<?xml version="1.0" encoding="UTF-8" standalone="no" ?>
<gpx xmlns="http://www.topografix.com/GPX/1/1" xmlns:xsi="http://www.w3.org/2001/XMLSchema-instance" xsi:schemaLocation="http://www.topografix.com/GPX/1/1 http://www.topografix.com/GPX/1/1/gpx.xsd" version="1.1" creator="VisuGPX - https://www.visugpx.com">
  <metadata>
    <name>1 - parcours_2023_v4</name>
  </metadata>
  <trk>
    <name><![CDATA[1 - parcours_2023_v4-16486039]]></name>
    <extensions>
      <line xmlns="http://www.topografix.com/GPX/gpx_style/0/2">
        <color>0000FF</color>
        <width>4</width>
      </line>
    </extensions>
    <trkseg>
      <trkpt lat="49.39736" lon="4.70249">
        <ele>111</ele>
        <time>2023-04-07T13:28:56Z</time>
      </trkpt>
      <trkpt lat="49.39729" lon="4.70243">
        <ele>111</ele>
        <time>2023-04-07T13:29:02Z</time>
      </trkpt>
      <trkpt lat="49.39688" lon="4.70245">
        <ele>110</ele>
        <time>2023-04-07T13:29:35Z</time>
      </trkpt>
      <trkpt lat="49.39584" lon="4.7024">
        <ele>106</ele>
        <time>2023-04-07T13:30:59Z</time>
      </trkpt>
      <trkpt lat="49.39549" lon="4.70227">
        <ele>105</ele>
        <time>2023-04-07T13:31:27Z</time>
      </trkpt>
      <trkpt lat="49.3952" lon="4.70221">
        <ele>103</ele>
        <time>2023-04-07T13:31:51Z</time>
      </trkpt>
      <trkpt lat="49.39406" lon="4.70231">
        <ele>98</ele>
        <time>2023-04-07T13:33:22Z</time>
      </trkpt>
      <trkpt lat="49.39388" lon="4.70239">
        <ele>97</ele>
        <time>2023-04-07T13:33:37Z</time>
      </trkpt>
      <trkpt lat="49.39358" lon="4.70237">
        <ele>97</ele>
        <time>2023-04-07T13:34:01Z</time>
      </trkpt>
      <trkpt lat="49.39349" lon="4.70232">
        <ele>96</ele>
        <time>2023-04-07T13:34:09Z</time>
      </trkpt>
      <trkpt lat="49.39298" lon="4.70158">
        <ele>97</ele>
        <time>2023-04-07T13:35:05Z</time>
      </trkpt>
      <trkpt lat="49.39286" lon="4.70123">
        <ele>98</ele>
        <time>2023-04-07T13:35:26Z</time>
      </trkpt>
      <trkpt lat="49.39276" lon="4.70105">
        <ele>99</ele>
        <time>2023-04-07T13:35:38Z</time>
      </trkpt>
      <trkpt lat="49.39261" lon="4.70086">
        <ele>100</ele>
        <time>2023-04-07T13:35:54Z</time>
      </trkpt>
      <trkpt lat="49.3923" lon="4.70059">
        <ele>102</ele>
        <time>2023-04-07T13:36:22Z</time>
      </trkpt>
      <trkpt lat="49.39189" lon="4.7003">
        <ele>103</ele>
        <time>2023-04-07T13:36:58Z</time>
      </trkpt>
      <trkpt lat="49.39149" lon="4.69996">
        <ele>105</ele>
        <time>2023-04-07T13:37:35Z</time>
      </trkpt>
      <trkpt lat="49.39129" lon="4.69968">
        <ele>105</ele>
        <time>2023-04-07T13:37:57Z</time>
      </trkpt>
      <trkpt lat="49.3906" lon="4.69848">
        <ele>105</ele>
        <time>2023-04-07T13:39:20Z</time>
      </trkpt>
      <trkpt lat="49.38986" lon="4.69673">
        <ele>106</ele>
        <time>2023-04-07T13:41:09Z</time>
      </trkpt>
      <trkpt lat="49.38921" lon="4.69508">
        <ele>106</ele>
        <time>2023-04-07T13:42:49Z</time>
      </trkpt>
      <trkpt lat="49.38902" lon="4.69429">
        <ele>106</ele>
        <time>2023-04-07T13:43:33Z</time>
      </trkpt>
      <trkpt lat="49.38896" lon="4.69371">
        <ele>107</ele>
        <time>2023-04-07T13:44:04Z</time>
      </trkpt>
      <trkpt lat="49.38892" lon="4.69195">
        <ele>107</ele>
        <time>2023-04-07T13:45:36Z</time>
      </trkpt>
      <trkpt lat="49.38901" lon="4.6889">
        <ele>109</ele>
        <time>2023-04-07T13:48:15Z</time>
      </trkpt>
      <trkpt lat="49.38905" lon="4.6885">
        <ele>109</ele>
        <time>2023-04-07T13:48:36Z</time>
      </trkpt>
      <trkpt lat="49.38909" lon="4.68836">
        <ele>109</ele>
        <time>2023-04-07T13:48:44Z</time>
      </trkpt>
      <trkpt lat="49.38919" lon="4.68822">
        <ele>109</ele>
        <time>2023-04-07T13:48:55Z</time>
      </trkpt>
      <trkpt lat="49.38949" lon="4.68802">
        <ele>110</ele>
        <time>2023-04-07T13:49:21Z</time>
      </trkpt>
      <trkpt lat="49.38956" lon="4.68767">
        <ele>111</ele>
        <time>2023-04-07T13:49:40Z</time>
      </trkpt>
      <trkpt lat="49.38968" lon="4.68668">
        <ele>112</ele>
        <time>2023-04-07T13:50:32Z</time>
      </trkpt>
      <trkpt lat="49.38976" lon="4.68643">
        <ele>112</ele>
        <time>2023-04-07T13:50:47Z</time>
      </trkpt>
      <trkpt lat="49.38995" lon="4.68621">
        <ele>113</ele>
        <time>2023-04-07T13:51:06Z</time>
      </trkpt>
      <trkpt lat="49.39005" lon="4.68614">
        <ele>113</ele>
        <time>2023-04-07T13:51:15Z</time>
      </trkpt>
      <trkpt lat="49.39014" lon="4.68618">
        <ele>113</ele>
        <time>2023-04-07T13:51:22Z</time>
      </trkpt>
      <trkpt lat="49.39019" lon="4.68631">
        <ele>113</ele>
        <time>2023-04-07T13:51:30Z</time>
      </trkpt>
      <trkpt lat="49.3902" lon="4.68639">
        <ele>113</ele>
        <time>2023-04-07T13:51:34Z</time>
      </trkpt>
      <trkpt lat="49.39012" lon="4.68651">
        <ele>113</ele>
        <time>2023-04-07T13:51:43Z</time>
      </trkpt>
      <trkpt lat="49.39008" lon="4.68664">
        <ele>113</ele>
        <time>2023-04-07T13:51:51Z</time>
      </trkpt>
      <trkpt lat="49.39009" lon="4.68685">
        <ele>113</ele>
        <time>2023-04-07T13:52:02Z</time>
      </trkpt>
      <trkpt lat="49.39021" lon="4.68749">
        <ele>113</ele>
        <time>2023-04-07T13:52:36Z</time>
      </trkpt>
      <trkpt lat="49.39036" lon="4.68797">
        <ele>113</ele>
        <time>2023-04-07T13:53:04Z</time>
      </trkpt>
      <trkpt lat="49.39038" lon="4.68814">
        <ele>113</ele>
        <time>2023-04-07T13:53:13Z</time>
      </trkpt>
      <trkpt lat="49.39047" lon="4.68827">
        <ele>113</ele>
        <time>2023-04-07T13:53:23Z</time>
      </trkpt>
      <trkpt lat="49.39063" lon="4.68832">
        <ele>114</ele>
        <time>2023-04-07T13:53:36Z</time>
      </trkpt>
      <trkpt lat="49.39155" lon="4.6884">
        <ele>116</ele>
        <time>2023-04-07T13:54:50Z</time>
      </trkpt>
      <trkpt lat="49.39241" lon="4.68836">
        <ele>116</ele>
        <time>2023-04-07T13:55:59Z</time>
      </trkpt>
      <trkpt lat="49.39335" lon="4.68822">
        <ele>115</ele>
        <time>2023-04-07T13:57:14Z</time>
      </trkpt>
      <trkpt lat="49.39372" lon="4.68812">
        <ele>114</ele>
        <time>2023-04-07T13:57:45Z</time>
      </trkpt>
      <trkpt lat="49.39396" lon="4.68799">
        <ele>114</ele>
        <time>2023-04-07T13:58:05Z</time>
      </trkpt>
      <trkpt lat="49.39405" lon="4.68797">
        <ele>114</ele>
        <time>2023-04-07T13:58:12Z</time>
      </trkpt>
      <trkpt lat="49.39403" lon="4.68798">
        <ele>114</ele>
        <time>2023-04-07T13:58:14Z</time>
      </trkpt>
      <trkpt lat="49.39417" lon="4.68799">
        <ele>114</ele>
        <time>2023-04-07T13:58:25Z</time>
      </trkpt>
      <trkpt lat="49.39562" lon="4.68757">
        <ele>113</ele>
        <time>2023-04-07T14:00:23Z</time>
      </trkpt>
      <trkpt lat="49.39599" lon="4.68753">
        <ele>113</ele>
        <time>2023-04-07T14:00:53Z</time>
      </trkpt>
      <trkpt lat="49.3961" lon="4.68754">
        <ele>113</ele>
        <time>2023-04-07T14:01:02Z</time>
      </trkpt>
      <trkpt lat="49.39617" lon="4.68763">
        <ele>114</ele>
        <time>2023-04-07T14:01:09Z</time>
      </trkpt>
      <trkpt lat="49.39639" lon="4.68887">
        <ele>117</ele>
        <time>2023-04-07T14:02:16Z</time>
      </trkpt>
      <trkpt lat="49.39746" lon="4.69755">
        <ele>108</ele>
        <time>2023-04-07T14:09:56Z</time>
      </trkpt>
      <trkpt lat="49.39751" lon="4.69787">
        <ele>108</ele>
        <time>2023-04-07T14:10:14Z</time>
      </trkpt>
      <trkpt lat="49.39756" lon="4.69793">
        <ele>108</ele>
        <time>2023-04-07T14:10:19Z</time>
      </trkpt>
      <trkpt lat="49.39797" lon="4.69779">
        <ele>110</ele>
        <time>2023-04-07T14:10:52Z</time>
      </trkpt>
      <trkpt lat="49.39826" lon="4.69766">
        <ele>112</ele>
        <time>2023-04-07T14:11:16Z</time>
      </trkpt>
      <trkpt lat="49.39819" lon="4.69741">
        <ele>111</ele>
        <time>2023-04-07T14:11:31Z</time>
      </trkpt>
      <trkpt lat="49.39824" lon="4.69734">
        <ele>112</ele>
        <time>2023-04-07T14:11:36Z</time>
      </trkpt>
      <trkpt lat="49.39845" lon="4.6972">
        <ele>113</ele>
        <time>2023-04-07T14:11:54Z</time>
      </trkpt>
      <trkpt lat="49.39853" lon="4.6969">
        <ele>114</ele>
        <time>2023-04-07T14:12:11Z</time>
      </trkpt>
      <trkpt lat="49.39894" lon="4.69667">
        <ele>118</ele>
        <time>2023-04-07T14:12:46Z</time>
      </trkpt>
      <trkpt lat="49.399" lon="4.69657">
        <ele>118</ele>
        <time>2023-04-07T14:12:53Z</time>
      </trkpt>
      <trkpt lat="49.39907" lon="4.69626">
        <ele>118</ele>
        <time>2023-04-07T14:13:10Z</time>
      </trkpt>
      <trkpt lat="49.39918" lon="4.69608">
        <ele>119</ele>
        <time>2023-04-07T14:13:23Z</time>
      </trkpt>
      <trkpt lat="49.39918" lon="4.69601">
        <ele>118</ele>
        <time>2023-04-07T14:13:27Z</time>
      </trkpt>
      <trkpt lat="49.39855" lon="4.6943">
        <ele>116</ele>
        <time>2023-04-07T14:15:09Z</time>
      </trkpt>
      <trkpt lat="49.39808" lon="4.6929">
        <ele>117</ele>
        <time>2023-04-07T14:16:31Z</time>
      </trkpt>
      <trkpt lat="49.39813" lon="4.69281">
        <ele>117</ele>
        <time>2023-04-07T14:16:38Z</time>
      </trkpt>
      <trkpt lat="49.39902" lon="4.69237">
        <ele>119</ele>
        <time>2023-04-07T14:17:52Z</time>
      </trkpt>
      <trkpt lat="49.39875" lon="4.69156">
        <ele>119</ele>
        <time>2023-04-07T14:18:40Z</time>
      </trkpt>
      <trkpt lat="49.39868" lon="4.69073">
        <ele>119</ele>
        <time>2023-04-07T14:19:23Z</time>
      </trkpt>
      <trkpt lat="49.39865" lon="4.6906">
        <ele>119</ele>
        <time>2023-04-07T14:19:31Z</time>
      </trkpt>
      <trkpt lat="49.39849" lon="4.69023">
        <ele>119</ele>
        <time>2023-04-07T14:19:54Z</time>
      </trkpt>
      <trkpt lat="49.39847" lon="4.68956">
        <ele>118</ele>
        <time>2023-04-07T14:20:29Z</time>
      </trkpt>
      <trkpt lat="49.39843" lon="4.68943">
        <ele>118</ele>
        <time>2023-04-07T14:20:36Z</time>
      </trkpt>
      <trkpt lat="49.39842" lon="4.68927">
        <ele>118</ele>
        <time>2023-04-07T14:20:45Z</time>
      </trkpt>
      <trkpt lat="49.39844" lon="4.68907">
        <ele>117</ele>
        <time>2023-04-07T14:20:55Z</time>
      </trkpt>
      <trkpt lat="49.39849" lon="4.68895">
        <ele>117</ele>
        <time>2023-04-07T14:21:03Z</time>
      </trkpt>
      <trkpt lat="49.39862" lon="4.68875">
        <ele>115</ele>
        <time>2023-04-07T14:21:17Z</time>
      </trkpt>
      <trkpt lat="49.39876" lon="4.68869">
        <ele>114</ele>
        <time>2023-04-07T14:21:29Z</time>
      </trkpt>
      <trkpt lat="49.39911" lon="4.68861">
        <ele>112</ele>
        <time>2023-04-07T14:21:57Z</time>
      </trkpt>
      <trkpt lat="49.39914" lon="4.6893">
        <ele>113</ele>
        <time>2023-04-07T14:22:33Z</time>
      </trkpt>
      <trkpt lat="49.39919" lon="4.68912">
        <ele>113</ele>
        <time>2023-04-07T14:22:44Z</time>
      </trkpt>
      <trkpt lat="49.3992" lon="4.68693">
        <ele>111</ele>
        <time>2023-04-07T14:24:38Z</time>
      </trkpt>
      <trkpt lat="49.39926" lon="4.68678">
        <ele>110</ele>
        <time>2023-04-07T14:24:47Z</time>
      </trkpt>
      <trkpt lat="49.39942" lon="4.68662">
        <ele>109</ele>
        <time>2023-04-07T14:25:02Z</time>
      </trkpt>
      <trkpt lat="49.39998" lon="4.68713">
        <ele>107</ele>
        <time>2023-04-07T14:25:54Z</time>
      </trkpt>
      <trkpt lat="49.40089" lon="4.68783">
        <ele>105</ele>
        <time>2023-04-07T14:27:16Z</time>
      </trkpt>
      <trkpt lat="49.40141" lon="4.68812">
        <ele>105</ele>
        <time>2023-04-07T14:28:00Z</time>
      </trkpt>
      <trkpt lat="49.40179" lon="4.68826">
        <ele>106</ele>
        <time>2023-04-07T14:28:31Z</time>
      </trkpt>
      <trkpt lat="49.40232" lon="4.68841">
        <ele>109</ele>
        <time>2023-04-07T14:29:14Z</time>
      </trkpt>
      <trkpt lat="49.4025" lon="4.68855">
        <ele>110</ele>
        <time>2023-04-07T14:29:31Z</time>
      </trkpt>
      <trkpt lat="49.40287" lon="4.68901">
        <ele>113</ele>
        <time>2023-04-07T14:30:09Z</time>
      </trkpt>
      <trkpt lat="49.40452" lon="4.69145">
        <ele>123</ele>
        <time>2023-04-07T14:33:12Z</time>
      </trkpt>
      <trkpt lat="49.40471" lon="4.6917">
        <ele>123</ele>
        <time>2023-04-07T14:33:32Z</time>
      </trkpt>
      <trkpt lat="49.40515" lon="4.69221">
        <ele>123</ele>
        <time>2023-04-07T14:34:16Z</time>
      </trkpt>
      <trkpt lat="49.4066" lon="4.69342">
        <ele>121</ele>
        <time>2023-04-07T14:36:28Z</time>
      </trkpt>
      <trkpt lat="49.40803" lon="4.69506">
        <ele>111</ele>
        <time>2023-04-07T14:38:51Z</time>
      </trkpt>
      <trkpt lat="49.4086" lon="4.69611">
        <ele>105</ele>
        <time>2023-04-07T14:40:02Z</time>
      </trkpt>
      <trkpt lat="49.40885" lon="4.69662">
        <ele>102</ele>
        <time>2023-04-07T14:40:36Z</time>
      </trkpt>
      <trkpt lat="49.40904" lon="4.69689">
        <ele>100</ele>
        <time>2023-04-07T14:40:56Z</time>
      </trkpt>
      <trkpt lat="49.40964" lon="4.69759">
        <ele>98</ele>
        <time>2023-04-07T14:41:57Z</time>
      </trkpt>
      <trkpt lat="49.40992" lon="4.69785">
        <ele>98</ele>
        <time>2023-04-07T14:42:23Z</time>
      </trkpt>
      <trkpt lat="49.41014" lon="4.69795">
        <ele>97</ele>
        <time>2023-04-07T14:42:41Z</time>
      </trkpt>
      <trkpt lat="49.41064" lon="4.69812">
        <ele>96</ele>
        <time>2023-04-07T14:43:22Z</time>
      </trkpt>
      <trkpt lat="49.41077" lon="4.6982">
        <ele>96</ele>
        <time>2023-04-07T14:43:33Z</time>
      </trkpt>
      <trkpt lat="49.41107" lon="4.69852">
        <ele>97</ele>
        <time>2023-04-07T14:44:03Z</time>
      </trkpt>
      <trkpt lat="49.41181" lon="4.69919">
        <ele>98</ele>
        <time>2023-04-07T14:45:11Z</time>
      </trkpt>
      <trkpt lat="49.41191" lon="4.69936">
        <ele>98</ele>
        <time>2023-04-07T14:45:23Z</time>
      </trkpt>
      <trkpt lat="49.41202" lon="4.69969">
        <ele>98</ele>
        <time>2023-04-07T14:45:43Z</time>
      </trkpt>
      <trkpt lat="49.41212" lon="4.69974">
        <ele>98</ele>
        <time>2023-04-07T14:45:51Z</time>
      </trkpt>
      <trkpt lat="49.41246" lon="4.69958">
        <ele>97</ele>
        <time>2023-04-07T14:46:20Z</time>
      </trkpt>
      <trkpt lat="49.4127" lon="4.6994">
        <ele>95</ele>
        <time>2023-04-07T14:46:41Z</time>
      </trkpt>
      <trkpt lat="49.41294" lon="4.69914">
        <ele>94</ele>
        <time>2023-04-07T14:47:05Z</time>
      </trkpt>
      <trkpt lat="49.41342" lon="4.69848">
        <ele>91</ele>
        <time>2023-04-07T14:47:56Z</time>
      </trkpt>
      <trkpt lat="49.41442" lon="4.69726">
        <ele>92</ele>
        <time>2023-04-07T14:49:38Z</time>
      </trkpt>
      <trkpt lat="49.41459" lon="4.69679">
        <ele>92</ele>
        <time>2023-04-07T14:50:06Z</time>
      </trkpt>
      <trkpt lat="49.41572" lon="4.69245">
        <ele>95</ele>
        <time>2023-04-07T14:54:10Z</time>
      </trkpt>
      <trkpt lat="49.41583" lon="4.69236">
        <ele>95</ele>
        <time>2023-04-07T14:54:20Z</time>
      </trkpt>
      <trkpt lat="49.41594" lon="4.69243">
        <ele>95</ele>
        <time>2023-04-07T14:54:29Z</time>
      </trkpt>
      <trkpt lat="49.41656" lon="4.693">
        <ele>91</ele>
        <time>2023-04-07T14:55:27Z</time>
      </trkpt>
      <trkpt lat="49.41665" lon="4.69302">
        <ele>91</ele>
        <time>2023-04-07T14:55:34Z</time>
      </trkpt>
      <trkpt lat="49.41695" lon="4.69226">
        <ele>91</ele>
        <time>2023-04-07T14:56:21Z</time>
      </trkpt>
      <trkpt lat="49.41722" lon="4.69191">
        <ele>90</ele>
        <time>2023-04-07T14:56:49Z</time>
      </trkpt>
      <trkpt lat="49.41787" lon="4.69028">
        <ele>92</ele>
        <time>2023-04-07T14:58:29Z</time>
      </trkpt>
      <trkpt lat="49.4181" lon="4.68948">
        <ele>93</ele>
        <time>2023-04-07T14:59:14Z</time>
      </trkpt>
      <trkpt lat="49.41813" lon="4.6893">
        <ele>93</ele>
        <time>2023-04-07T14:59:24Z</time>
      </trkpt>
      <trkpt lat="49.41812" lon="4.68903">
        <ele>93</ele>
        <time>2023-04-07T14:59:38Z</time>
      </trkpt>
      <trkpt lat="49.41806" lon="4.68873">
        <ele>94</ele>
        <time>2023-04-07T14:59:54Z</time>
      </trkpt>
      <trkpt lat="49.41805" lon="4.68837">
        <ele>94</ele>
        <time>2023-04-07T15:00:13Z</time>
      </trkpt>
      <trkpt lat="49.41808" lon="4.68823">
        <ele>95</ele>
        <time>2023-04-07T15:00:21Z</time>
      </trkpt>
      <trkpt lat="49.41806" lon="4.68796">
        <ele>97</ele>
        <time>2023-04-07T15:00:35Z</time>
      </trkpt>
      <trkpt lat="49.41802" lon="4.68783">
        <ele>98</ele>
        <time>2023-04-07T15:00:42Z</time>
      </trkpt>
      <trkpt lat="49.41812" lon="4.6874">
        <ele>101</ele>
        <time>2023-04-07T15:01:06Z</time>
      </trkpt>
      <trkpt lat="49.41856" lon="4.68683">
        <ele>100</ele>
        <time>2023-04-07T15:01:52Z</time>
      </trkpt>
      <trkpt lat="49.41862" lon="4.6867">
        <ele>100</ele>
        <time>2023-04-07T15:02:01Z</time>
      </trkpt>
      <trkpt lat="49.41864" lon="4.68657">
        <ele>100</ele>
        <time>2023-04-07T15:02:07Z</time>
      </trkpt>
      <trkpt lat="49.41871" lon="4.68646">
        <ele>100</ele>
        <time>2023-04-07T15:02:16Z</time>
      </trkpt>
      <trkpt lat="49.41946" lon="4.68542">
        <ele>97</ele>
        <time>2023-04-07T15:03:36Z</time>
      </trkpt>
      <trkpt lat="49.4199" lon="4.68487">
        <ele>94</ele>
        <time>2023-04-07T15:04:22Z</time>
      </trkpt>
      <trkpt lat="49.42015" lon="4.68446">
        <ele>93</ele>
        <time>2023-04-07T15:04:51Z</time>
      </trkpt>
      <trkpt lat="49.42073" lon="4.68385">
        <ele>94</ele>
        <time>2023-04-07T15:05:47Z</time>
      </trkpt>
      <trkpt lat="49.422" lon="4.68298">
        <ele>93</ele>
        <time>2023-04-07T15:07:39Z</time>
      </trkpt>
      <trkpt lat="49.42221" lon="4.68288">
        <ele>94</ele>
        <time>2023-04-07T15:07:56Z</time>
      </trkpt>
      <trkpt lat="49.42263" lon="4.68277">
        <ele>93</ele>
        <time>2023-04-07T15:08:30Z</time>
      </trkpt>
      <trkpt lat="49.42283" lon="4.68276">
        <ele>92</ele>
        <time>2023-04-07T15:08:46Z</time>
      </trkpt>
      <trkpt lat="49.42374" lon="4.68286">
        <ele>90</ele>
        <time>2023-04-07T15:09:59Z</time>
      </trkpt>
      <trkpt lat="49.42515" lon="4.68314">
        <ele>91</ele>
        <time>2023-04-07T15:11:53Z</time>
      </trkpt>
      <trkpt lat="49.4254" lon="4.68316">
        <ele>91</ele>
        <time>2023-04-07T15:12:13Z</time>
      </trkpt>
      <trkpt lat="49.42548" lon="4.68326">
        <ele>90</ele>
        <time>2023-04-07T15:12:22Z</time>
      </trkpt>
      <trkpt lat="49.42561" lon="4.68335">
        <ele>90</ele>
        <time>2023-04-07T15:12:33Z</time>
      </trkpt>
      <trkpt lat="49.4259" lon="4.68334">
        <ele>90</ele>
        <time>2023-04-07T15:12:56Z</time>
      </trkpt>
      <trkpt lat="49.4263" lon="4.68323">
        <ele>90</ele>
        <time>2023-04-07T15:13:29Z</time>
      </trkpt>
      <trkpt lat="49.42661" lon="4.68319">
        <ele>90</ele>
        <time>2023-04-07T15:13:54Z</time>
      </trkpt>
      <trkpt lat="49.42679" lon="4.68314">
        <ele>90</ele>
        <time>2023-04-07T15:14:08Z</time>
      </trkpt>
      <trkpt lat="49.42699" lon="4.68302">
        <ele>90</ele>
        <time>2023-04-07T15:14:25Z</time>
      </trkpt>
      <trkpt lat="49.42716" lon="4.68284">
        <ele>90</ele>
        <time>2023-04-07T15:14:42Z</time>
      </trkpt>
      <trkpt lat="49.42724" lon="4.6826">
        <ele>91</ele>
        <time>2023-04-07T15:14:56Z</time>
      </trkpt>
      <trkpt lat="49.42721" lon="4.6819">
        <ele>91</ele>
        <time>2023-04-07T15:15:33Z</time>
      </trkpt>
      <trkpt lat="49.42723" lon="4.68175">
        <ele>91</ele>
        <time>2023-04-07T15:15:41Z</time>
      </trkpt>
      <trkpt lat="49.42729" lon="4.68163">
        <ele>91</ele>
        <time>2023-04-07T15:15:48Z</time>
      </trkpt>
      <trkpt lat="49.42742" lon="4.68158">
        <ele>91</ele>
        <time>2023-04-07T15:15:59Z</time>
      </trkpt>
      <trkpt lat="49.42797" lon="4.68149">
        <ele>90</ele>
        <time>2023-04-07T15:16:43Z</time>
      </trkpt>
      <trkpt lat="49.42805" lon="4.68162">
        <ele>90</ele>
        <time>2023-04-07T15:16:53Z</time>
      </trkpt>
      <trkpt lat="49.42808" lon="4.68199">
        <ele>90</ele>
        <time>2023-04-07T15:17:12Z</time>
      </trkpt>
      <trkpt lat="49.42813" lon="4.68212">
        <ele>89</ele>
        <time>2023-04-07T15:17:20Z</time>
      </trkpt>
      <trkpt lat="49.42822" lon="4.68218">
        <ele>89</ele>
        <time>2023-04-07T15:17:28Z</time>
      </trkpt>
      <trkpt lat="49.42913" lon="4.68236">
        <ele>90</ele>
        <time>2023-04-07T15:18:41Z</time>
      </trkpt>
      <trkpt lat="49.42921" lon="4.68226">
        <ele>90</ele>
        <time>2023-04-07T15:18:50Z</time>
      </trkpt>
      <trkpt lat="49.42914" lon="4.68141">
        <ele>89</ele>
        <time>2023-04-07T15:19:34Z</time>
      </trkpt>
      <trkpt lat="49.42897" lon="4.68028">
        <ele>93</ele>
        <time>2023-04-07T15:20:35Z</time>
      </trkpt>
      <trkpt lat="49.42905" lon="4.68018">
        <ele>94</ele>
        <time>2023-04-07T15:20:43Z</time>
      </trkpt>
      <trkpt lat="49.42918" lon="4.68013">
        <ele>94</ele>
        <time>2023-04-07T15:20:54Z</time>
      </trkpt>
      <trkpt lat="49.42938" lon="4.68017">
        <ele>95</ele>
        <time>2023-04-07T15:21:10Z</time>
      </trkpt>
      <trkpt lat="49.42948" lon="4.68006">
        <ele>96</ele>
        <time>2023-04-07T15:21:20Z</time>
      </trkpt>
      <trkpt lat="49.42955" lon="4.67978">
        <ele>100</ele>
        <time>2023-04-07T15:21:35Z</time>
      </trkpt>
      <trkpt lat="49.42963" lon="4.67962">
        <ele>102</ele>
        <time>2023-04-07T15:21:46Z</time>
      </trkpt>
      <trkpt lat="49.42971" lon="4.6796">
        <ele>103</ele>
        <time>2023-04-07T15:21:52Z</time>
      </trkpt>
      <trkpt lat="49.42984" lon="4.67962">
        <ele>103</ele>
        <time>2023-04-07T15:22:03Z</time>
      </trkpt>
      <trkpt lat="49.43034" lon="4.6796">
        <ele>107</ele>
        <time>2023-04-07T15:22:43Z</time>
      </trkpt>
      <trkpt lat="49.43112" lon="4.67948">
        <ele>114</ele>
        <time>2023-04-07T15:23:46Z</time>
      </trkpt>
      <trkpt lat="49.43149" lon="4.67945">
        <ele>116</ele>
        <time>2023-04-07T15:24:15Z</time>
      </trkpt>
      <trkpt lat="49.43163" lon="4.67946">
        <ele>117</ele>
        <time>2023-04-07T15:24:26Z</time>
      </trkpt>
      <trkpt lat="49.43185" lon="4.6794">
        <ele>118</ele>
        <time>2023-04-07T15:24:44Z</time>
      </trkpt>
      <trkpt lat="49.43192" lon="4.67935">
        <ele>118</ele>
        <time>2023-04-07T15:24:50Z</time>
      </trkpt>
      <trkpt lat="49.43192" lon="4.67929">
        <ele>120</ele>
        <time>2023-04-07T15:24:54Z</time>
      </trkpt>
      <trkpt lat="49.43198" lon="4.67927">
        <ele>120</ele>
        <time>2023-04-07T15:24:59Z</time>
      </trkpt>
      <trkpt lat="49.43207" lon="4.67941">
        <ele>117</ele>
        <time>2023-04-07T15:25:09Z</time>
      </trkpt>
      <trkpt lat="49.43222" lon="4.6798">
        <ele>109</ele>
        <time>2023-04-07T15:25:32Z</time>
      </trkpt>
      <trkpt lat="49.43217" lon="4.68027">
        <ele>101</ele>
        <time>2023-04-07T15:25:57Z</time>
      </trkpt>
      <trkpt lat="49.43219" lon="4.68043">
        <ele>98</ele>
        <time>2023-04-07T15:26:06Z</time>
      </trkpt>
      <trkpt lat="49.43215" lon="4.68053">
        <ele>96</ele>
        <time>2023-04-07T15:26:12Z</time>
      </trkpt>
      <trkpt lat="49.43215" lon="4.68065">
        <ele>94</ele>
        <time>2023-04-07T15:26:18Z</time>
      </trkpt>
      <trkpt lat="49.43212" lon="4.68066">
        <ele>94</ele>
        <time>2023-04-07T15:26:20Z</time>
      </trkpt>
      <trkpt lat="49.43218" lon="4.68071">
        <ele>93</ele>
        <time>2023-04-07T15:26:26Z</time>
      </trkpt>
      <trkpt lat="49.43233" lon="4.6807">
        <ele>94</ele>
        <time>2023-04-07T15:26:38Z</time>
      </trkpt>
      <trkpt lat="49.43442" lon="4.68033">
        <ele>96</ele>
        <time>2023-04-07T15:29:26Z</time>
      </trkpt>
      <trkpt lat="49.43555" lon="4.67999">
        <ele>95</ele>
        <time>2023-04-07T15:30:59Z</time>
      </trkpt>
      <trkpt lat="49.43608" lon="4.67976">
        <ele>98</ele>
        <time>2023-04-07T15:31:43Z</time>
      </trkpt>
      <trkpt lat="49.43617" lon="4.67968">
        <ele>99</ele>
        <time>2023-04-07T15:31:51Z</time>
      </trkpt>
      <trkpt lat="49.43618" lon="4.67952">
        <ele>101</ele>
        <time>2023-04-07T15:31:59Z</time>
      </trkpt>
      <trkpt lat="49.43625" lon="4.67948">
        <ele>101</ele>
        <time>2023-04-07T15:32:05Z</time>
      </trkpt>
      <trkpt lat="49.4365" lon="4.6794">
        <ele>101</ele>
        <time>2023-04-07T15:32:26Z</time>
      </trkpt>
      <trkpt lat="49.43714" lon="4.67928">
        <ele>101</ele>
        <time>2023-04-07T15:33:17Z</time>
      </trkpt>
      <trkpt lat="49.43733" lon="4.67927">
        <ele>101</ele>
        <time>2023-04-07T15:33:33Z</time>
      </trkpt>
      <trkpt lat="49.43799" lon="4.67936">
        <ele>100</ele>
        <time>2023-04-07T15:34:26Z</time>
      </trkpt>
      <trkpt lat="49.43906" lon="4.67917">
        <ele>96</ele>
        <time>2023-04-07T15:35:52Z</time>
      </trkpt>
      <trkpt lat="49.43934" lon="4.67915">
        <ele>96</ele>
        <time>2023-04-07T15:36:14Z</time>
      </trkpt>
      <trkpt lat="49.43941" lon="4.67924">
        <ele>96</ele>
        <time>2023-04-07T15:36:22Z</time>
      </trkpt>
      <trkpt lat="49.43945" lon="4.67937">
        <ele>95</ele>
        <time>2023-04-07T15:36:29Z</time>
      </trkpt>
      <trkpt lat="49.43955" lon="4.67938">
        <ele>94</ele>
        <time>2023-04-07T15:36:37Z</time>
      </trkpt>
      <trkpt lat="49.43982" lon="4.6792">
        <ele>96</ele>
        <time>2023-04-07T15:37:01Z</time>
      </trkpt>
      <trkpt lat="49.44003" lon="4.67902">
        <ele>99</ele>
        <time>2023-04-07T15:37:20Z</time>
      </trkpt>
      <trkpt lat="49.44015" lon="4.67888">
        <ele>103</ele>
        <time>2023-04-07T15:37:32Z</time>
      </trkpt>
      <trkpt lat="49.44047" lon="4.67861">
        <ele>110</ele>
        <time>2023-04-07T15:38:01Z</time>
      </trkpt>
      <trkpt lat="49.44058" lon="4.67855">
        <ele>111</ele>
        <time>2023-04-07T15:38:11Z</time>
      </trkpt>
      <trkpt lat="49.44068" lon="4.67854">
        <ele>112</ele>
        <time>2023-04-07T15:38:19Z</time>
      </trkpt>
      <trkpt lat="49.44091" lon="4.67845">
        <ele>114</ele>
        <time>2023-04-07T15:38:38Z</time>
      </trkpt>
      <trkpt lat="49.44149" lon="4.67831">
        <ele>114</ele>
        <time>2023-04-07T15:39:25Z</time>
      </trkpt>
      <trkpt lat="49.44186" lon="4.67818">
        <ele>114</ele>
        <time>2023-04-07T15:39:55Z</time>
      </trkpt>
      <trkpt lat="49.44197" lon="4.67814">
        <ele>114</ele>
        <time>2023-04-07T15:40:04Z</time>
      </trkpt>
      <trkpt lat="49.44228" lon="4.67792">
        <ele>116</ele>
        <time>2023-04-07T15:40:31Z</time>
      </trkpt>
      <trkpt lat="49.4429" lon="4.6777">
        <ele>117</ele>
        <time>2023-04-07T15:41:22Z</time>
      </trkpt>
      <trkpt lat="49.44317" lon="4.67757">
        <ele>118</ele>
        <time>2023-04-07T15:41:45Z</time>
      </trkpt>
      <trkpt lat="49.44344" lon="4.67753">
        <ele>117</ele>
        <time>2023-04-07T15:42:07Z</time>
      </trkpt>
      <trkpt lat="49.44388" lon="4.67764">
        <ele>113</ele>
        <time>2023-04-07T15:42:42Z</time>
      </trkpt>
      <trkpt lat="49.44386" lon="4.67761">
        <ele>114</ele>
        <time>2023-04-07T15:42:45Z</time>
      </trkpt>
      <trkpt lat="49.44388" lon="4.67766">
        <ele>113</ele>
        <time>2023-04-07T15:42:48Z</time>
      </trkpt>
      <trkpt lat="49.44385" lon="4.6776">
        <ele>114</ele>
        <time>2023-04-07T15:42:52Z</time>
      </trkpt>
      <trkpt lat="49.44426" lon="4.67764">
        <ele>112</ele>
        <time>2023-04-07T15:43:25Z</time>
      </trkpt>
      <trkpt lat="49.4447" lon="4.67762">
        <ele>113</ele>
        <time>2023-04-07T15:44:00Z</time>
      </trkpt>
      <trkpt lat="49.44486" lon="4.67764">
        <ele>113</ele>
        <time>2023-04-07T15:44:13Z</time>
      </trkpt>
      <trkpt lat="49.44522" lon="4.67779">
        <ele>113</ele>
        <time>2023-04-07T15:44:43Z</time>
      </trkpt>
      <trkpt lat="49.44535" lon="4.67807">
        <ele>110</ele>
        <time>2023-04-07T15:45:00Z</time>
      </trkpt>
      <trkpt lat="49.44563" lon="4.67816">
        <ele>109</ele>
        <time>2023-04-07T15:45:23Z</time>
      </trkpt>
      <trkpt lat="49.44572" lon="4.67822">
        <ele>108</ele>
        <time>2023-04-07T15:45:31Z</time>
      </trkpt>
      <trkpt lat="49.44601" lon="4.67833">
        <ele>106</ele>
        <time>2023-04-07T15:45:55Z</time>
      </trkpt>
      <trkpt lat="49.44684" lon="4.67877">
        <ele>99</ele>
        <time>2023-04-07T15:47:05Z</time>
      </trkpt>
      <trkpt lat="49.44751" lon="4.67888">
        <ele>100</ele>
        <time>2023-04-07T15:47:59Z</time>
      </trkpt>
      <trkpt lat="49.4479" lon="4.67892">
        <ele>100</ele>
        <time>2023-04-07T15:48:31Z</time>
      </trkpt>
      <trkpt lat="49.44835" lon="4.67887">
        <ele>101</ele>
        <time>2023-04-07T15:49:07Z</time>
      </trkpt>
      <trkpt lat="49.44876" lon="4.67881">
        <ele>100</ele>
        <time>2023-04-07T15:49:40Z</time>
      </trkpt>
      <trkpt lat="49.4492" lon="4.67864">
        <ele>100</ele>
        <time>2023-04-07T15:50:16Z</time>
      </trkpt>
      <trkpt lat="49.44949" lon="4.67866">
        <ele>98</ele>
        <time>2023-04-07T15:50:39Z</time>
      </trkpt>
      <trkpt lat="49.44969" lon="4.67875">
        <ele>96</ele>
        <time>2023-04-07T15:50:56Z</time>
      </trkpt>
      <trkpt lat="49.44995" lon="4.67859">
        <ele>96</ele>
        <time>2023-04-07T15:51:18Z</time>
      </trkpt>
      <trkpt lat="49.45029" lon="4.6783">
        <ele>95</ele>
        <time>2023-04-07T15:51:50Z</time>
      </trkpt>
      <trkpt lat="49.45058" lon="4.67802">
        <ele>96</ele>
        <time>2023-04-07T15:52:17Z</time>
      </trkpt>
      <trkpt lat="49.45092" lon="4.67759">
        <ele>97</ele>
        <time>2023-04-07T15:52:52Z</time>
      </trkpt>
      <trkpt lat="49.45111" lon="4.67732">
        <ele>96</ele>
        <time>2023-04-07T15:53:13Z</time>
      </trkpt>
      <trkpt lat="49.45144" lon="4.67677">
        <ele>95</ele>
        <time>2023-04-07T15:53:52Z</time>
      </trkpt>
      <trkpt lat="49.45201" lon="4.67561">
        <ele>97</ele>
        <time>2023-04-07T15:55:08Z</time>
      </trkpt>
      <trkpt lat="49.45687" lon="4.66604">
        <ele>88</ele>
        <time>2023-04-07T16:05:40Z</time>
      </trkpt>
      <trkpt lat="49.45759" lon="4.66444">
        <ele>86</ele>
        <time>2023-04-07T16:07:21Z</time>
      </trkpt>
      <trkpt lat="49.45908" lon="4.6609">
        <ele>86</ele>
        <time>2023-04-07T16:11:00Z</time>
      </trkpt>
      <trkpt lat="49.45917" lon="4.66064">
        <ele>86</ele>
        <time>2023-04-07T16:11:16Z</time>
      </trkpt>
      <trkpt lat="49.45928" lon="4.66013">
        <ele>85</ele>
        <time>2023-04-07T16:11:44Z</time>
      </trkpt>
      <trkpt lat="49.45965" lon="4.65872">
        <ele>86</ele>
        <time>2023-04-07T16:13:03Z</time>
      </trkpt>
      <trkpt lat="49.46046" lon="4.65681">
        <ele>88</ele>
        <time>2023-04-07T16:15:02Z</time>
      </trkpt>
      <trkpt lat="49.46078" lon="4.65637">
        <ele>88</ele>
        <time>2023-04-07T16:15:36Z</time>
      </trkpt>
      <trkpt lat="49.46087" lon="4.65634">
        <ele>88</ele>
        <time>2023-04-07T16:15:43Z</time>
      </trkpt>
      <trkpt lat="49.46096" lon="4.65642">
        <ele>88</ele>
        <time>2023-04-07T16:15:52Z</time>
      </trkpt>
      <trkpt lat="49.46172" lon="4.65752">
        <ele>84</ele>
        <time>2023-04-07T16:17:15Z</time>
      </trkpt>
      <trkpt lat="49.46461" lon="4.66179">
        <ele>84</ele>
        <time>2023-04-07T16:22:36Z</time>
      </trkpt>
      <trkpt lat="49.46645" lon="4.66456">
        <ele>90</ele>
        <time>2023-04-07T16:26:02Z</time>
      </trkpt>
      <trkpt lat="49.46655" lon="4.66451">
        <ele>90</ele>
        <time>2023-04-07T16:26:11Z</time>
      </trkpt>
      <trkpt lat="49.46692" lon="4.66331">
        <ele>92</ele>
        <time>2023-04-07T16:27:20Z</time>
      </trkpt>
      <trkpt lat="49.46698" lon="4.6632">
        <ele>92</ele>
        <time>2023-04-07T16:27:27Z</time>
      </trkpt>
      <trkpt lat="49.46711" lon="4.66319">
        <ele>94</ele>
        <time>2023-04-07T16:27:38Z</time>
      </trkpt>
      <trkpt lat="49.46771" lon="4.66379">
        <ele>101</ele>
        <time>2023-04-07T16:28:35Z</time>
      </trkpt>
      <trkpt lat="49.46828" lon="4.66423">
        <ele>108</ele>
        <time>2023-04-07T16:29:26Z</time>
      </trkpt>
      <trkpt lat="49.46901" lon="4.66474">
        <ele>119</ele>
        <time>2023-04-07T16:30:30Z</time>
      </trkpt>
      <trkpt lat="49.46911" lon="4.66477">
        <ele>120</ele>
        <time>2023-04-07T16:30:38Z</time>
      </trkpt>
      <trkpt lat="49.46921" lon="4.66474">
        <ele>122</ele>
        <time>2023-04-07T16:30:46Z</time>
      </trkpt>
      <trkpt lat="49.46938" lon="4.66451">
        <ele>124</ele>
        <time>2023-04-07T16:31:05Z</time>
      </trkpt>
      <trkpt lat="49.46948" lon="4.66449">
        <ele>126</ele>
        <time>2023-04-07T16:31:13Z</time>
      </trkpt>
      <trkpt lat="49.46949" lon="4.66462">
        <ele>126</ele>
        <time>2023-04-07T16:31:19Z</time>
      </trkpt>
      <trkpt lat="49.46945" lon="4.66484">
        <ele>127</ele>
        <time>2023-04-07T16:31:31Z</time>
      </trkpt>
      <trkpt lat="49.46909" lon="4.66648">
        <ele>133</ele>
        <time>2023-04-07T16:33:01Z</time>
      </trkpt>
      <trkpt lat="49.46886" lon="4.66769">
        <ele>134</ele>
        <time>2023-04-07T16:34:07Z</time>
      </trkpt>
      <trkpt lat="49.46861" lon="4.66833">
        <ele>131</ele>
        <time>2023-04-07T16:34:46Z</time>
      </trkpt>
      <trkpt lat="49.4685" lon="4.66893">
        <ele>130</ele>
        <time>2023-04-07T16:35:18Z</time>
      </trkpt>
      <trkpt lat="49.46834" lon="4.67153">
        <ele>129</ele>
        <time>2023-04-07T16:37:34Z</time>
      </trkpt>
      <trkpt lat="49.46847" lon="4.67282">
        <ele>124</ele>
        <time>2023-04-07T16:38:42Z</time>
      </trkpt>
      <trkpt lat="49.46847" lon="4.67343">
        <ele>118</ele>
        <time>2023-04-07T16:39:14Z</time>
      </trkpt>
      <trkpt lat="49.46842" lon="4.67366">
        <ele>116</ele>
        <time>2023-04-07T16:39:26Z</time>
      </trkpt>
      <trkpt lat="49.46812" lon="4.67447">
        <ele>110</ele>
        <time>2023-04-07T16:40:15Z</time>
      </trkpt>
      <trkpt lat="49.46795" lon="4.67525">
        <ele>105</ele>
        <time>2023-04-07T16:40:58Z</time>
      </trkpt>
      <trkpt lat="49.46751" lon="4.67622">
        <ele>102</ele>
        <time>2023-04-07T16:41:59Z</time>
      </trkpt>
      <trkpt lat="49.46698" lon="4.6771">
        <ele>106</ele>
        <time>2023-04-07T16:43:02Z</time>
      </trkpt>
      <trkpt lat="49.46689" lon="4.67729">
        <ele>107</ele>
        <time>2023-04-07T16:43:14Z</time>
      </trkpt>
      <trkpt lat="49.46683" lon="4.67756">
        <ele>109</ele>
        <time>2023-04-07T16:43:29Z</time>
      </trkpt>
      <trkpt lat="49.46692" lon="4.67871">
        <ele>115</ele>
        <time>2023-04-07T16:44:29Z</time>
      </trkpt>
      <trkpt lat="49.46696" lon="4.67892">
        <ele>116</ele>
        <time>2023-04-07T16:44:40Z</time>
      </trkpt>
      <trkpt lat="49.46699" lon="4.6797">
        <ele>119</ele>
        <time>2023-04-07T16:45:21Z</time>
      </trkpt>
      <trkpt lat="49.46693" lon="4.68025">
        <ele>122</ele>
        <time>2023-04-07T16:45:50Z</time>
      </trkpt>
      <trkpt lat="49.46689" lon="4.68152">
        <ele>128</ele>
        <time>2023-04-07T16:46:56Z</time>
      </trkpt>
      <trkpt lat="49.46705" lon="4.6828">
        <ele>134</ele>
        <time>2023-04-07T16:48:04Z</time>
      </trkpt>
      <trkpt lat="49.46705" lon="4.68321">
        <ele>136</ele>
        <time>2023-04-07T16:48:25Z</time>
      </trkpt>
      <trkpt lat="49.46701" lon="4.6837">
        <ele>135</ele>
        <time>2023-04-07T16:48:51Z</time>
      </trkpt>
      <trkpt lat="49.46673" lon="4.68473">
        <ele>138</ele>
        <time>2023-04-07T16:49:49Z</time>
      </trkpt>
      <trkpt lat="49.46648" lon="4.68546">
        <ele>142</ele>
        <time>2023-04-07T16:50:32Z</time>
      </trkpt>
      <trkpt lat="49.46611" lon="4.68642">
        <ele>145</ele>
        <time>2023-04-07T16:51:30Z</time>
      </trkpt>
      <trkpt lat="49.46596" lon="4.68742">
        <ele>149</ele>
        <time>2023-04-07T16:52:24Z</time>
      </trkpt>
      <trkpt lat="49.46594" lon="4.68977">
        <ele>153</ele>
        <time>2023-04-07T16:54:26Z</time>
      </trkpt>
      <trkpt lat="49.46598" lon="4.68998">
        <ele>153</ele>
        <time>2023-04-07T16:54:37Z</time>
      </trkpt>
      <trkpt lat="49.46607" lon="4.69012">
        <ele>154</ele>
        <time>2023-04-07T16:54:48Z</time>
      </trkpt>
      <trkpt lat="49.46661" lon="4.69062">
        <ele>157</ele>
        <time>2023-04-07T16:55:38Z</time>
      </trkpt>
      <trkpt lat="49.46769" lon="4.6918">
        <ele>157</ele>
        <time>2023-04-07T16:57:24Z</time>
      </trkpt>
      <trkpt lat="49.46796" lon="4.69224">
        <ele>158</ele>
        <time>2023-04-07T16:57:56Z</time>
      </trkpt>
      <trkpt lat="49.46856" lon="4.69356">
        <ele>158</ele>
        <time>2023-04-07T16:59:19Z</time>
      </trkpt>
      <trkpt lat="49.46933" lon="4.69534">
        <ele>157</ele>
        <time>2023-04-07T17:01:11Z</time>
      </trkpt>
      <trkpt lat="49.46952" lon="4.69562">
        <ele>157</ele>
        <time>2023-04-07T17:01:32Z</time>
      </trkpt>
      <trkpt lat="49.46998" lon="4.69613">
        <ele>157</ele>
        <time>2023-04-07T17:02:17Z</time>
      </trkpt>
      <trkpt lat="49.47012" lon="4.69633">
        <ele>157</ele>
        <time>2023-04-07T17:02:32Z</time>
      </trkpt>
      <trkpt lat="49.47033" lon="4.69653">
        <ele>157</ele>
        <time>2023-04-07T17:02:52Z</time>
      </trkpt>
      <trkpt lat="49.47053" lon="4.69683">
        <ele>157</ele>
        <time>2023-04-07T17:03:15Z</time>
      </trkpt>
      <trkpt lat="49.47069" lon="4.69702">
        <ele>158</ele>
        <time>2023-04-07T17:03:31Z</time>
      </trkpt>
      <trkpt lat="49.47095" lon="4.69724">
        <ele>158</ele>
        <time>2023-04-07T17:03:55Z</time>
      </trkpt>
      <trkpt lat="49.47177" lon="4.6983">
        <ele>159</ele>
        <time>2023-04-07T17:05:20Z</time>
      </trkpt>
      <trkpt lat="49.47195" lon="4.69842">
        <ele>159</ele>
        <time>2023-04-07T17:05:36Z</time>
      </trkpt>
      <trkpt lat="49.47203" lon="4.69851">
        <ele>159</ele>
        <time>2023-04-07T17:05:44Z</time>
      </trkpt>
      <trkpt lat="49.47198" lon="4.69857">
        <ele>159</ele>
        <time>2023-04-07T17:05:49Z</time>
      </trkpt>
      <trkpt lat="49.47199" lon="4.69853">
        <ele>159</ele>
        <time>2023-04-07T17:05:51Z</time>
      </trkpt>
      <trkpt lat="49.47205" lon="4.69855">
        <ele>159</ele>
        <time>2023-04-07T17:05:56Z</time>
      </trkpt>
      <trkpt lat="49.47218" lon="4.69869">
        <ele>159</ele>
        <time>2023-04-07T17:06:09Z</time>
      </trkpt>
      <trkpt lat="49.47215" lon="4.69872">
        <ele>158</ele>
        <time>2023-04-07T17:06:12Z</time>
      </trkpt>
      <trkpt lat="49.47192" lon="4.69862">
        <ele>158</ele>
        <time>2023-04-07T17:06:31Z</time>
      </trkpt>
      <trkpt lat="49.4712" lon="4.69907">
        <ele>149</ele>
        <time>2023-04-07T17:07:33Z</time>
      </trkpt>
      <trkpt lat="49.47084" lon="4.69905">
        <ele>144</ele>
        <time>2023-04-07T17:08:02Z</time>
      </trkpt>
      <trkpt lat="49.47062" lon="4.69908">
        <ele>142</ele>
        <time>2023-04-07T17:08:20Z</time>
      </trkpt>
      <trkpt lat="49.47043" lon="4.69906">
        <ele>141</ele>
        <time>2023-04-07T17:08:35Z</time>
      </trkpt>
      <trkpt lat="49.47033" lon="4.699">
        <ele>141</ele>
        <time>2023-04-07T17:08:43Z</time>
      </trkpt>
      <trkpt lat="49.47024" lon="4.69899">
        <ele>140</ele>
        <time>2023-04-07T17:08:51Z</time>
      </trkpt>
      <trkpt lat="49.47019" lon="4.69904">
        <ele>139</ele>
        <time>2023-04-07T17:08:55Z</time>
      </trkpt>
      <trkpt lat="49.47016" lon="4.699">
        <ele>139</ele>
        <time>2023-04-07T17:08:59Z</time>
      </trkpt>
      <trkpt lat="49.46965" lon="4.69883">
        <ele>138</ele>
        <time>2023-04-07T17:09:40Z</time>
      </trkpt>
      <trkpt lat="49.46931" lon="4.69894">
        <ele>135</ele>
        <time>2023-04-07T17:10:08Z</time>
      </trkpt>
      <trkpt lat="49.46881" lon="4.69895">
        <ele>132</ele>
        <time>2023-04-07T17:10:48Z</time>
      </trkpt>
      <trkpt lat="49.46825" lon="4.69912">
        <ele>126</ele>
        <time>2023-04-07T17:11:34Z</time>
      </trkpt>
      <trkpt lat="49.46821" lon="4.69923">
        <ele>125</ele>
        <time>2023-04-07T17:11:41Z</time>
      </trkpt>
      <trkpt lat="49.46825" lon="4.69939">
        <ele>126</ele>
        <time>2023-04-07T17:11:49Z</time>
      </trkpt>
      <trkpt lat="49.46826" lon="4.69959">
        <ele>126</ele>
        <time>2023-04-07T17:12:00Z</time>
      </trkpt>
      <trkpt lat="49.46826" lon="4.6999">
        <ele>126</ele>
        <time>2023-04-07T17:12:16Z</time>
      </trkpt>
      <trkpt lat="49.46822" lon="4.70028">
        <ele>126</ele>
        <time>2023-04-07T17:12:36Z</time>
      </trkpt>
      <trkpt lat="49.468" lon="4.70124">
        <ele>125</ele>
        <time>2023-04-07T17:13:29Z</time>
      </trkpt>
      <trkpt lat="49.46804" lon="4.70137">
        <ele>126</ele>
        <time>2023-04-07T17:13:36Z</time>
      </trkpt>
      <trkpt lat="49.46819" lon="4.70157">
        <ele>128</ele>
        <time>2023-04-07T17:13:52Z</time>
      </trkpt>
      <trkpt lat="49.46883" lon="4.70227">
        <ele>137</ele>
        <time>2023-04-07T17:14:55Z</time>
      </trkpt>
      <trkpt lat="49.46911" lon="4.70265">
        <ele>141</ele>
        <time>2023-04-07T17:15:25Z</time>
      </trkpt>
      <trkpt lat="49.46939" lon="4.70357">
        <ele>146</ele>
        <time>2023-04-07T17:16:18Z</time>
      </trkpt>
      <trkpt lat="49.46967" lon="4.70388">
        <ele>148</ele>
        <time>2023-04-07T17:16:46Z</time>
      </trkpt>
      <trkpt lat="49.46972" lon="4.70402">
        <ele>149</ele>
        <time>2023-04-07T17:16:54Z</time>
      </trkpt>
      <trkpt lat="49.46971" lon="4.70432">
        <ele>151</ele>
        <time>2023-04-07T17:17:10Z</time>
      </trkpt>
      <trkpt lat="49.46963" lon="4.70459">
        <ele>151</ele>
        <time>2023-04-07T17:17:25Z</time>
      </trkpt>
      <trkpt lat="49.46962" lon="4.7049">
        <ele>152</ele>
        <time>2023-04-07T17:17:41Z</time>
      </trkpt>
      <trkpt lat="49.46965" lon="4.70568">
        <ele>157</ele>
        <time>2023-04-07T17:18:22Z</time>
      </trkpt>
      <trkpt lat="49.46962" lon="4.70661">
        <ele>161</ele>
        <time>2023-04-07T17:19:10Z</time>
      </trkpt>
      <trkpt lat="49.46946" lon="4.70736">
        <ele>164</ele>
        <time>2023-04-07T17:19:51Z</time>
      </trkpt>
      <trkpt lat="49.46942" lon="4.70785">
        <ele>166</ele>
        <time>2023-04-07T17:20:17Z</time>
      </trkpt>
      <trkpt lat="49.46943" lon="4.70845">
        <ele>169</ele>
        <time>2023-04-07T17:20:48Z</time>
      </trkpt>
      <trkpt lat="49.4695" lon="4.70899">
        <ele>173</ele>
        <time>2023-04-07T17:21:17Z</time>
      </trkpt>
      <trkpt lat="49.46962" lon="4.7095">
        <ele>175</ele>
        <time>2023-04-07T17:21:45Z</time>
      </trkpt>
      <trkpt lat="49.46997" lon="4.71035">
        <ele>178</ele>
        <time>2023-04-07T17:22:37Z</time>
      </trkpt>
      <trkpt lat="49.47006" lon="4.71045">
        <ele>177</ele>
        <time>2023-04-07T17:22:46Z</time>
      </trkpt>
      <trkpt lat="49.47112" lon="4.71209">
        <ele>183</ele>
        <time>2023-04-07T17:24:47Z</time>
      </trkpt>
      <trkpt lat="49.47142" lon="4.71274">
        <ele>185</ele>
        <time>2023-04-07T17:25:28Z</time>
      </trkpt>
      <trkpt lat="49.47145" lon="4.71274">
        <ele>185</ele>
        <time>2023-04-07T17:25:31Z</time>
      </trkpt>
      <trkpt lat="49.4715" lon="4.71283">
        <ele>186</ele>
        <time>2023-04-07T17:25:37Z</time>
      </trkpt>
      <trkpt lat="49.47174" lon="4.71304">
        <ele>187</ele>
        <time>2023-04-07T17:25:59Z</time>
      </trkpt>
      <trkpt lat="49.47183" lon="4.71321">
        <ele>188</ele>
        <time>2023-04-07T17:26:10Z</time>
      </trkpt>
      <trkpt lat="49.47232" lon="4.71378">
        <ele>189</ele>
        <time>2023-04-07T17:26:59Z</time>
      </trkpt>
      <trkpt lat="49.47271" lon="4.71429">
        <ele>190</ele>
        <time>2023-04-07T17:27:40Z</time>
      </trkpt>
      <trkpt lat="49.47277" lon="4.71433">
        <ele>190</ele>
        <time>2023-04-07T17:27:46Z</time>
      </trkpt>
      <trkpt lat="49.47273" lon="4.71435">
        <ele>190</ele>
        <time>2023-04-07T17:27:49Z</time>
      </trkpt>
      <trkpt lat="49.47286" lon="4.71453">
        <ele>189</ele>
        <time>2023-04-07T17:28:03Z</time>
      </trkpt>
      <trkpt lat="49.47302" lon="4.71466">
        <ele>189</ele>
        <time>2023-04-07T17:28:18Z</time>
      </trkpt>
      <trkpt lat="49.47345" lon="4.71558">
        <ele>191</ele>
        <time>2023-04-07T17:29:16Z</time>
      </trkpt>
      <trkpt lat="49.47395" lon="4.71652">
        <ele>194</ele>
        <time>2023-04-07T17:30:20Z</time>
      </trkpt>
      <trkpt lat="49.47404" lon="4.71681">
        <ele>194</ele>
        <time>2023-04-07T17:30:36Z</time>
      </trkpt>
      <trkpt lat="49.47411" lon="4.71674">
        <ele>194</ele>
        <time>2023-04-07T17:30:43Z</time>
      </trkpt>
      <trkpt lat="49.47435" lon="4.71508">
        <ele>191</ele>
        <time>2023-04-07T17:32:12Z</time>
      </trkpt>
      <trkpt lat="49.47456" lon="4.71403">
        <ele>188</ele>
        <time>2023-04-07T17:33:09Z</time>
      </trkpt>
      <trkpt lat="49.47477" lon="4.71356">
        <ele>186</ele>
        <time>2023-04-07T17:33:38Z</time>
      </trkpt>
      <trkpt lat="49.47488" lon="4.71343">
        <ele>186</ele>
        <time>2023-04-07T17:33:50Z</time>
      </trkpt>
      <trkpt lat="49.47526" lon="4.71309">
        <ele>185</ele>
        <time>2023-04-07T17:34:25Z</time>
      </trkpt>
      <trkpt lat="49.47536" lon="4.71295">
        <ele>185</ele>
        <time>2023-04-07T17:34:36Z</time>
      </trkpt>
      <trkpt lat="49.4756" lon="4.71237">
        <ele>184</ele>
        <time>2023-04-07T17:35:11Z</time>
      </trkpt>
      <trkpt lat="49.47572" lon="4.7119">
        <ele>185</ele>
        <time>2023-04-07T17:35:38Z</time>
      </trkpt>
      <trkpt lat="49.4758" lon="4.71115">
        <ele>185</ele>
        <time>2023-04-07T17:36:17Z</time>
      </trkpt>
      <trkpt lat="49.47582" lon="4.70949">
        <ele>182</ele>
        <time>2023-04-07T17:37:43Z</time>
      </trkpt>
      <trkpt lat="49.47631" lon="4.7056">
        <ele>179</ele>
        <time>2023-04-07T17:41:10Z</time>
      </trkpt>
      <trkpt lat="49.47633" lon="4.70491">
        <ele>179</ele>
        <time>2023-04-07T17:41:46Z</time>
      </trkpt>
      <trkpt lat="49.47624" lon="4.70446">
        <ele>179</ele>
        <time>2023-04-07T17:42:10Z</time>
      </trkpt>
      <trkpt lat="49.47598" lon="4.70374">
        <ele>177</ele>
        <time>2023-04-07T17:42:53Z</time>
      </trkpt>
      <trkpt lat="49.47545" lon="4.70258">
        <ele>176</ele>
        <time>2023-04-07T17:44:07Z</time>
      </trkpt>
      <trkpt lat="49.47511" lon="4.70197">
        <ele>175</ele>
        <time>2023-04-07T17:44:49Z</time>
      </trkpt>
      <trkpt lat="49.47484" lon="4.70136">
        <ele>177</ele>
        <time>2023-04-07T17:45:27Z</time>
      </trkpt>
      <trkpt lat="49.47439" lon="4.69993">
        <ele>176</ele>
        <time>2023-04-07T17:46:50Z</time>
      </trkpt>
      <trkpt lat="49.47429" lon="4.69953">
        <ele>174</ele>
        <time>2023-04-07T17:47:12Z</time>
      </trkpt>
      <trkpt lat="49.47404" lon="4.69843">
        <ele>170</ele>
        <time>2023-04-07T17:48:13Z</time>
      </trkpt>
      <trkpt lat="49.47398" lon="4.6979">
        <ele>170</ele>
        <time>2023-04-07T17:48:40Z</time>
      </trkpt>
      <trkpt lat="49.47403" lon="4.69773">
        <ele>170</ele>
        <time>2023-04-07T17:48:50Z</time>
      </trkpt>
      <trkpt lat="49.4744" lon="4.6971">
        <ele>174</ele>
        <time>2023-04-07T17:49:34Z</time>
      </trkpt>
      <trkpt lat="49.47458" lon="4.69688">
        <ele>176</ele>
        <time>2023-04-07T17:49:53Z</time>
      </trkpt>
      <trkpt lat="49.47471" lon="4.69657">
        <ele>178</ele>
        <time>2023-04-07T17:50:12Z</time>
      </trkpt>
      <trkpt lat="49.47492" lon="4.69642">
        <ele>179</ele>
        <time>2023-04-07T17:50:31Z</time>
      </trkpt>
      <trkpt lat="49.47504" lon="4.6963">
        <ele>179</ele>
        <time>2023-04-07T17:50:42Z</time>
      </trkpt>
      <trkpt lat="49.47528" lon="4.69621">
        <ele>179</ele>
        <time>2023-04-07T17:51:02Z</time>
      </trkpt>
      <trkpt lat="49.4755" lon="4.69608">
        <ele>179</ele>
        <time>2023-04-07T17:51:21Z</time>
      </trkpt>
      <trkpt lat="49.47561" lon="4.69607">
        <ele>179</ele>
        <time>2023-04-07T17:51:29Z</time>
      </trkpt>
      <trkpt lat="49.47582" lon="4.69614">
        <ele>180</ele>
        <time>2023-04-07T17:51:47Z</time>
      </trkpt>
      <trkpt lat="49.47598" lon="4.69613">
        <ele>180</ele>
        <time>2023-04-07T17:51:59Z</time>
      </trkpt>
      <trkpt lat="49.47628" lon="4.69592">
        <ele>179</ele>
        <time>2023-04-07T17:52:26Z</time>
      </trkpt>
      <trkpt lat="49.47673" lon="4.69547">
        <ele>177</ele>
        <time>2023-04-07T17:53:09Z</time>
      </trkpt>
      <trkpt lat="49.47917" lon="4.6934">
        <ele>164</ele>
        <time>2023-04-07T17:56:52Z</time>
      </trkpt>
      <trkpt lat="49.47979" lon="4.69277">
        <ele>157</ele>
        <time>2023-04-07T17:57:51Z</time>
      </trkpt>
      <trkpt lat="49.48036" lon="4.69233">
        <ele>149</ele>
        <time>2023-04-07T17:58:42Z</time>
      </trkpt>
      <trkpt lat="49.48053" lon="4.69223">
        <ele>147</ele>
        <time>2023-04-07T17:58:57Z</time>
      </trkpt>
      <trkpt lat="49.48082" lon="4.69192">
        <ele>144</ele>
        <time>2023-04-07T17:59:25Z</time>
      </trkpt>
      <trkpt lat="49.48117" lon="4.69166">
        <ele>142</ele>
        <time>2023-04-07T17:59:56Z</time>
      </trkpt>
      <trkpt lat="49.48153" lon="4.69133">
        <ele>138</ele>
        <time>2023-04-07T18:00:30Z</time>
      </trkpt>
      <trkpt lat="49.48161" lon="4.69137">
        <ele>138</ele>
        <time>2023-04-07T18:00:37Z</time>
      </trkpt>
      <trkpt lat="49.48177" lon="4.69159">
        <ele>138</ele>
        <time>2023-04-07T18:00:54Z</time>
      </trkpt>
      <trkpt lat="49.48183" lon="4.69172">
        <ele>138</ele>
        <time>2023-04-07T18:01:02Z</time>
      </trkpt>
      <trkpt lat="49.48237" lon="4.69253">
        <ele>137</ele>
        <time>2023-04-07T18:02:03Z</time>
      </trkpt>
      <trkpt lat="49.48326" lon="4.69445">
        <ele>143</ele>
        <time>2023-04-07T18:04:05Z</time>
      </trkpt>
      <trkpt lat="49.4838" lon="4.69573">
        <ele>149</ele>
        <time>2023-04-07T18:05:25Z</time>
      </trkpt>
      <trkpt lat="49.48432" lon="4.69729">
        <ele>159</ele>
        <time>2023-04-07T18:06:56Z</time>
      </trkpt>
      <trkpt lat="49.48435" lon="4.69735">
        <ele>160</ele>
        <time>2023-04-07T18:07:00Z</time>
      </trkpt>
      <trkpt lat="49.48442" lon="4.69732">
        <ele>159</ele>
        <time>2023-04-07T18:07:06Z</time>
      </trkpt>
      <trkpt lat="49.48446" lon="4.69747">
        <ele>159</ele>
        <time>2023-04-07T18:07:14Z</time>
      </trkpt>
      <trkpt lat="49.48454" lon="4.69782">
        <ele>161</ele>
        <time>2023-04-07T18:07:33Z</time>
      </trkpt>
      <trkpt lat="49.48466" lon="4.69863">
        <ele>164</ele>
        <time>2023-04-07T18:08:17Z</time>
      </trkpt>
      <trkpt lat="49.48468" lon="4.69904">
        <ele>166</ele>
        <time>2023-04-07T18:08:38Z</time>
      </trkpt>
      <trkpt lat="49.48474" lon="4.6994">
        <ele>167</ele>
        <time>2023-04-07T18:08:57Z</time>
      </trkpt>
      <trkpt lat="49.48475" lon="4.69964">
        <ele>168</ele>
        <time>2023-04-07T18:09:10Z</time>
      </trkpt>
      <trkpt lat="49.48471" lon="4.69982">
        <ele>169</ele>
        <time>2023-04-07T18:09:20Z</time>
      </trkpt>
      <trkpt lat="49.4847" lon="4.70038">
        <ele>170</ele>
        <time>2023-04-07T18:09:49Z</time>
      </trkpt>
      <trkpt lat="49.48473" lon="4.70122">
        <ele>170</ele>
        <time>2023-04-07T18:10:33Z</time>
      </trkpt>
      <trkpt lat="49.4847" lon="4.70242">
        <ele>179</ele>
        <time>2023-04-07T18:11:35Z</time>
      </trkpt>
      <trkpt lat="49.48458" lon="4.70333">
        <ele>184</ele>
        <time>2023-04-07T18:12:23Z</time>
      </trkpt>
      <trkpt lat="49.48461" lon="4.70364">
        <ele>185</ele>
        <time>2023-04-07T18:12:40Z</time>
      </trkpt>
      <trkpt lat="49.48464" lon="4.70459">
        <ele>187</ele>
        <time>2023-04-07T18:13:29Z</time>
      </trkpt>
      <trkpt lat="49.48466" lon="4.70478">
        <ele>187</ele>
        <time>2023-04-07T18:13:39Z</time>
      </trkpt>
      <trkpt lat="49.48491" lon="4.70585">
        <ele>187</ele>
        <time>2023-04-07T18:14:38Z</time>
      </trkpt>
      <trkpt lat="49.485" lon="4.70647">
        <ele>189</ele>
        <time>2023-04-07T18:15:11Z</time>
      </trkpt>
      <trkpt lat="49.48505" lon="4.70664">
        <ele>189</ele>
        <time>2023-04-07T18:15:21Z</time>
      </trkpt>
      <trkpt lat="49.48516" lon="4.70697">
        <ele>189</ele>
        <time>2023-04-07T18:15:40Z</time>
      </trkpt>
      <trkpt lat="49.48545" lon="4.70761">
        <ele>186</ele>
        <time>2023-04-07T18:16:21Z</time>
      </trkpt>
      <trkpt lat="49.48554" lon="4.708">
        <ele>185</ele>
        <time>2023-04-07T18:16:42Z</time>
      </trkpt>
      <trkpt lat="49.48562" lon="4.70816">
        <ele>184</ele>
        <time>2023-04-07T18:16:53Z</time>
      </trkpt>
      <trkpt lat="49.48573" lon="4.70833">
        <ele>183</ele>
        <time>2023-04-07T18:17:05Z</time>
      </trkpt>
      <trkpt lat="49.48595" lon="4.70857">
        <ele>182</ele>
        <time>2023-04-07T18:17:27Z</time>
      </trkpt>
      <trkpt lat="49.48644" lon="4.70924">
        <ele>180</ele>
        <time>2023-04-07T18:18:19Z</time>
      </trkpt>
      <trkpt lat="49.48691" lon="4.71014">
        <ele>185</ele>
        <time>2023-04-07T18:19:20Z</time>
      </trkpt>
      <trkpt lat="49.48753" lon="4.7111">
        <ele>188</ele>
        <time>2023-04-07T18:20:30Z</time>
      </trkpt>
      <trkpt lat="49.48775" lon="4.71152">
        <ele>188</ele>
        <time>2023-04-07T18:20:58Z</time>
      </trkpt>
      <trkpt lat="49.48796" lon="4.71184">
        <ele>189</ele>
        <time>2023-04-07T18:21:22Z</time>
      </trkpt>
      <trkpt lat="49.48806" lon="4.71183">
        <ele>189</ele>
        <time>2023-04-07T18:21:30Z</time>
      </trkpt>
      <trkpt lat="49.48843" lon="4.71126">
        <ele>188</ele>
        <time>2023-04-07T18:22:12Z</time>
      </trkpt>
      <trkpt lat="49.48905" lon="4.71058">
        <ele>180</ele>
        <time>2023-04-07T18:23:13Z</time>
      </trkpt>
      <trkpt lat="49.48919" lon="4.71033">
        <ele>178</ele>
        <time>2023-04-07T18:23:30Z</time>
      </trkpt>
      <trkpt lat="49.48952" lon="4.7099">
        <ele>175</ele>
        <time>2023-04-07T18:24:04Z</time>
      </trkpt>
      <trkpt lat="49.48971" lon="4.70972">
        <ele>174</ele>
        <time>2023-04-07T18:24:22Z</time>
      </trkpt>
      <trkpt lat="49.48972" lon="4.70958">
        <ele>174</ele>
        <time>2023-04-07T18:24:30Z</time>
      </trkpt>
      <trkpt lat="49.48977" lon="4.70944">
        <ele>174</ele>
        <time>2023-04-07T18:24:38Z</time>
      </trkpt>
      <trkpt lat="49.48986" lon="4.70941">
        <ele>174</ele>
        <time>2023-04-07T18:24:45Z</time>
      </trkpt>
      <trkpt lat="49.49001" lon="4.70914">
        <ele>176</ele>
        <time>2023-04-07T18:25:04Z</time>
      </trkpt>
      <trkpt lat="49.49015" lon="4.7088">
        <ele>173</ele>
        <time>2023-04-07T18:25:25Z</time>
      </trkpt>
      <trkpt lat="49.49025" lon="4.70863">
        <ele>171</ele>
        <time>2023-04-07T18:25:37Z</time>
      </trkpt>
      <trkpt lat="49.4905" lon="4.70832">
        <ele>168</ele>
        <time>2023-04-07T18:26:02Z</time>
      </trkpt>
      <trkpt lat="49.49063" lon="4.7082">
        <ele>166</ele>
        <time>2023-04-07T18:26:14Z</time>
      </trkpt>
      <trkpt lat="49.49095" lon="4.70798">
        <ele>163</ele>
        <time>2023-04-07T18:26:42Z</time>
      </trkpt>
      <trkpt lat="49.49171" lon="4.70762">
        <ele>158</ele>
        <time>2023-04-07T18:27:46Z</time>
      </trkpt>
      <trkpt lat="49.4926" lon="4.70668">
        <ele>157</ele>
        <time>2023-04-07T18:29:13Z</time>
      </trkpt>
      <trkpt lat="49.49274" lon="4.70657">
        <ele>157</ele>
        <time>2023-04-07T18:29:25Z</time>
      </trkpt>
      <trkpt lat="49.49304" lon="4.70618">
        <ele>156</ele>
        <time>2023-04-07T18:29:57Z</time>
      </trkpt>
      <trkpt lat="49.49355" lon="4.70535">
        <ele>154</ele>
        <time>2023-04-07T18:30:56Z</time>
      </trkpt>
      <trkpt lat="49.49388" lon="4.70471">
        <ele>152</ele>
        <time>2023-04-07T18:31:38Z</time>
      </trkpt>
      <trkpt lat="49.49401" lon="4.70437">
        <ele>151</ele>
        <time>2023-04-07T18:31:59Z</time>
      </trkpt>
      <trkpt lat="49.49416" lon="4.70391">
        <ele>150</ele>
        <time>2023-04-07T18:32:26Z</time>
      </trkpt>
      <trkpt lat="49.49417" lon="4.70378">
        <ele>150</ele>
        <time>2023-04-07T18:32:33Z</time>
      </trkpt>
      <trkpt lat="49.49397" lon="4.70324">
        <ele>154</ele>
        <time>2023-04-07T18:33:05Z</time>
      </trkpt>
      <trkpt lat="49.49374" lon="4.70205">
        <ele>156</ele>
        <time>2023-04-07T18:34:09Z</time>
      </trkpt>
      <trkpt lat="49.49374" lon="4.70177">
        <ele>155</ele>
        <time>2023-04-07T18:34:24Z</time>
      </trkpt>
      <trkpt lat="49.49323" lon="4.69982">
        <ele>150</ele>
        <time>2023-04-07T18:36:13Z</time>
      </trkpt>
      <trkpt lat="49.49288" lon="4.69831">
        <ele>143</ele>
        <time>2023-04-07T18:37:37Z</time>
      </trkpt>
      <trkpt lat="49.4925" lon="4.69707">
        <ele>139</ele>
        <time>2023-04-07T18:38:48Z</time>
      </trkpt>
      <trkpt lat="49.49208" lon="4.69599">
        <ele>136</ele>
        <time>2023-04-07T18:39:54Z</time>
      </trkpt>
      <trkpt lat="49.49213" lon="4.69587">
        <ele>135</ele>
        <time>2023-04-07T18:40:01Z</time>
      </trkpt>
      <trkpt lat="49.49227" lon="4.69573">
        <ele>134</ele>
        <time>2023-04-07T18:40:14Z</time>
      </trkpt>
      <trkpt lat="49.49262" lon="4.69551">
        <ele>133</ele>
        <time>2023-04-07T18:40:45Z</time>
      </trkpt>
      <trkpt lat="49.4928" lon="4.69544">
        <ele>132</ele>
        <time>2023-04-07T18:40:59Z</time>
      </trkpt>
      <trkpt lat="49.49295" lon="4.69506">
        <ele>130</ele>
        <time>2023-04-07T18:41:23Z</time>
      </trkpt>
      <trkpt lat="49.49294" lon="4.69492">
        <ele>129</ele>
        <time>2023-04-07T18:41:30Z</time>
      </trkpt>
      <trkpt lat="49.493" lon="4.69467">
        <ele>125</ele>
        <time>2023-04-07T18:41:44Z</time>
      </trkpt>
      <trkpt lat="49.49309" lon="4.69464">
        <ele>125</ele>
        <time>2023-04-07T18:41:51Z</time>
      </trkpt>
      <trkpt lat="49.49326" lon="4.69444">
        <ele>122</ele>
        <time>2023-04-07T18:42:08Z</time>
      </trkpt>
      <trkpt lat="49.49356" lon="4.69431">
        <ele>118</ele>
        <time>2023-04-07T18:42:33Z</time>
      </trkpt>
      <trkpt lat="49.49354" lon="4.69434">
        <ele>118</ele>
        <time>2023-04-07T18:42:35Z</time>
      </trkpt>
      <trkpt lat="49.49355" lon="4.69427">
        <ele>118</ele>
        <time>2023-04-07T18:42:39Z</time>
      </trkpt>
      <trkpt lat="49.4936" lon="4.69433">
        <ele>118</ele>
        <time>2023-04-07T18:42:44Z</time>
      </trkpt>
      <trkpt lat="49.49354" lon="4.69432">
        <ele>118</ele>
        <time>2023-04-07T18:42:49Z</time>
      </trkpt>
      <trkpt lat="49.49365" lon="4.69421">
        <ele>116</ele>
        <time>2023-04-07T18:43:00Z</time>
      </trkpt>
      <trkpt lat="49.4937" lon="4.6941">
        <ele>115</ele>
        <time>2023-04-07T18:43:07Z</time>
      </trkpt>
      <trkpt lat="49.49373" lon="4.69409">
        <ele>115</ele>
        <time>2023-04-07T18:43:09Z</time>
      </trkpt>
      <trkpt lat="49.49374" lon="4.69383">
        <ele>112</ele>
        <time>2023-04-07T18:43:23Z</time>
      </trkpt>
      <trkpt lat="49.49368" lon="4.69369">
        <ele>112</ele>
        <time>2023-04-07T18:43:31Z</time>
      </trkpt>
      <trkpt lat="49.49346" lon="4.69341">
        <ele>110</ele>
        <time>2023-04-07T18:43:54Z</time>
      </trkpt>
      <trkpt lat="49.49341" lon="4.69324">
        <ele>109</ele>
        <time>2023-04-07T18:44:04Z</time>
      </trkpt>
      <trkpt lat="49.49335" lon="4.69313">
        <ele>109</ele>
        <time>2023-04-07T18:44:11Z</time>
      </trkpt>
      <trkpt lat="49.49309" lon="4.69322">
        <ele>113</ele>
        <time>2023-04-07T18:44:33Z</time>
      </trkpt>
      <trkpt lat="49.49252" lon="4.69353">
        <ele>122</ele>
        <time>2023-04-07T18:45:21Z</time>
      </trkpt>
      <trkpt lat="49.49242" lon="4.6935">
        <ele>123</ele>
        <time>2023-04-07T18:45:29Z</time>
      </trkpt>
      <trkpt lat="49.49239" lon="4.69335">
        <ele>123</ele>
        <time>2023-04-07T18:45:37Z</time>
      </trkpt>
      <trkpt lat="49.49249" lon="4.69324">
        <ele>122</ele>
        <time>2023-04-07T18:45:47Z</time>
      </trkpt>
      <trkpt lat="49.49259" lon="4.69321">
        <ele>121</ele>
        <time>2023-04-07T18:45:55Z</time>
      </trkpt>
      <trkpt lat="49.49268" lon="4.6931">
        <ele>120</ele>
        <time>2023-04-07T18:46:05Z</time>
      </trkpt>
      <trkpt lat="49.49295" lon="4.69151">
        <ele>115</ele>
        <time>2023-04-07T18:47:30Z</time>
      </trkpt>
      <trkpt lat="49.49304" lon="4.69134">
        <ele>113</ele>
        <time>2023-04-07T18:47:41Z</time>
      </trkpt>
      <trkpt lat="49.49317" lon="4.69128">
        <ele>111</ele>
        <time>2023-04-07T18:47:52Z</time>
      </trkpt>
      <trkpt lat="49.49347" lon="4.69136">
        <ele>108</ele>
        <time>2023-04-07T18:48:17Z</time>
      </trkpt>
      <trkpt lat="49.4937" lon="4.69133">
        <ele>109</ele>
        <time>2023-04-07T18:48:35Z</time>
      </trkpt>
      <trkpt lat="49.4938" lon="4.69134">
        <ele>109</ele>
        <time>2023-04-07T18:48:43Z</time>
      </trkpt>
      <trkpt lat="49.49394" lon="4.69147">
        <ele>109</ele>
        <time>2023-04-07T18:48:56Z</time>
      </trkpt>
      <trkpt lat="49.49392" lon="4.69149">
        <ele>109</ele>
        <time>2023-04-07T18:48:58Z</time>
      </trkpt>
      <trkpt lat="49.49394" lon="4.6915">
        <ele>109</ele>
        <time>2023-04-07T18:49:00Z</time>
      </trkpt>
      <trkpt lat="49.49393" lon="4.69147">
        <ele>109</ele>
        <time>2023-04-07T18:49:02Z</time>
      </trkpt>
      <trkpt lat="49.49396" lon="4.69144">
        <ele>109</ele>
        <time>2023-04-07T18:49:04Z</time>
      </trkpt>
      <trkpt lat="49.49394" lon="4.69156">
        <ele>109</ele>
        <time>2023-04-07T18:49:11Z</time>
      </trkpt>
      <trkpt lat="49.49397" lon="4.69161">
        <ele>109</ele>
        <time>2023-04-07T18:49:14Z</time>
      </trkpt>
      <trkpt lat="49.49405" lon="4.6916">
        <ele>109</ele>
        <time>2023-04-07T18:49:21Z</time>
      </trkpt>
      <trkpt lat="49.49414" lon="4.69153">
        <ele>109</ele>
        <time>2023-04-07T18:49:29Z</time>
      </trkpt>
      <trkpt lat="49.49423" lon="4.69137">
        <ele>111</ele>
        <time>2023-04-07T18:49:40Z</time>
      </trkpt>
      <trkpt lat="49.49429" lon="4.69116">
        <ele>113</ele>
        <time>2023-04-07T18:49:52Z</time>
      </trkpt>
      <trkpt lat="49.49431" lon="4.69091">
        <ele>114</ele>
        <time>2023-04-07T18:50:05Z</time>
      </trkpt>
      <trkpt lat="49.49428" lon="4.69065">
        <ele>114</ele>
        <time>2023-04-07T18:50:19Z</time>
      </trkpt>
      <trkpt lat="49.49409" lon="4.68995">
        <ele>114</ele>
        <time>2023-04-07T18:50:58Z</time>
      </trkpt>
      <trkpt lat="49.49393" lon="4.68955">
        <ele>114</ele>
        <time>2023-04-07T18:51:23Z</time>
      </trkpt>
      <trkpt lat="49.4935" lon="4.68822">
        <ele>110</ele>
        <time>2023-04-07T18:52:40Z</time>
      </trkpt>
      <trkpt lat="49.49328" lon="4.68763">
        <ele>110</ele>
        <time>2023-04-07T18:53:15Z</time>
      </trkpt>
      <trkpt lat="49.49305" lon="4.68651">
        <ele>106</ele>
        <time>2023-04-07T18:54:16Z</time>
      </trkpt>
      <trkpt lat="49.49266" lon="4.68595">
        <ele>103</ele>
        <time>2023-04-07T18:54:59Z</time>
      </trkpt>
      <trkpt lat="49.49223" lon="4.68545">
        <ele>104</ele>
        <time>2023-04-07T18:55:42Z</time>
      </trkpt>
      <trkpt lat="49.49189" lon="4.68516">
        <ele>105</ele>
        <time>2023-04-07T18:56:13Z</time>
      </trkpt>
      <trkpt lat="49.49157" lon="4.68498">
        <ele>105</ele>
        <time>2023-04-07T18:56:41Z</time>
      </trkpt>
      <trkpt lat="49.49069" lon="4.68458">
        <ele>109</ele>
        <time>2023-04-07T18:57:54Z</time>
      </trkpt>
      <trkpt lat="49.49056" lon="4.68446">
        <ele>109</ele>
        <time>2023-04-07T18:58:06Z</time>
      </trkpt>
      <trkpt lat="49.49043" lon="4.68426">
        <ele>109</ele>
        <time>2023-04-07T18:58:21Z</time>
      </trkpt>
      <trkpt lat="49.49033" lon="4.68401">
        <ele>109</ele>
        <time>2023-04-07T18:58:36Z</time>
      </trkpt>
      <trkpt lat="49.49028" lon="4.68341">
        <ele>111</ele>
        <time>2023-04-07T18:59:08Z</time>
      </trkpt>
      <trkpt lat="49.49031" lon="4.68271">
        <ele>113</ele>
        <time>2023-04-07T18:59:44Z</time>
      </trkpt>
      <trkpt lat="49.49043" lon="4.68201">
        <ele>114</ele>
        <time>2023-04-07T19:00:22Z</time>
      </trkpt>
      <trkpt lat="49.49052" lon="4.68177">
        <ele>115</ele>
        <time>2023-04-07T19:00:36Z</time>
      </trkpt>
      <trkpt lat="49.49151" lon="4.68065">
        <ele>126</ele>
        <time>2023-04-07T19:02:15Z</time>
      </trkpt>
      <trkpt lat="49.49177" lon="4.6802">
        <ele>127</ele>
        <time>2023-04-07T19:02:46Z</time>
      </trkpt>
      <trkpt lat="49.49193" lon="4.67986">
        <ele>127</ele>
        <time>2023-04-07T19:03:08Z</time>
      </trkpt>
      <trkpt lat="49.49196" lon="4.67972">
        <ele>127</ele>
        <time>2023-04-07T19:03:15Z</time>
      </trkpt>
      <trkpt lat="49.49205" lon="4.67916">
        <ele>126</ele>
        <time>2023-04-07T19:03:45Z</time>
      </trkpt>
      <trkpt lat="49.49205" lon="4.6787">
        <ele>126</ele>
        <time>2023-04-07T19:04:09Z</time>
      </trkpt>
      <trkpt lat="49.49201" lon="4.67806">
        <ele>126</ele>
        <time>2023-04-07T19:04:43Z</time>
      </trkpt>
      <trkpt lat="49.4919" lon="4.67681">
        <ele>125</ele>
        <time>2023-04-07T19:05:48Z</time>
      </trkpt>
      <trkpt lat="49.49171" lon="4.6758">
        <ele>125</ele>
        <time>2023-04-07T19:06:43Z</time>
      </trkpt>
      <trkpt lat="49.49182" lon="4.67567">
        <ele>127</ele>
        <time>2023-04-07T19:06:54Z</time>
      </trkpt>
      <trkpt lat="49.49239" lon="4.67566">
        <ele>130</ele>
        <time>2023-04-07T19:07:40Z</time>
      </trkpt>
      <trkpt lat="49.49259" lon="4.67574">
        <ele>131</ele>
        <time>2023-04-07T19:07:56Z</time>
      </trkpt>
      <trkpt lat="49.49268" lon="4.67575">
        <ele>132</ele>
        <time>2023-04-07T19:08:04Z</time>
      </trkpt>
      <trkpt lat="49.49373" lon="4.67567">
        <ele>136</ele>
        <time>2023-04-07T19:09:28Z</time>
      </trkpt>
      <trkpt lat="49.49412" lon="4.67573">
        <ele>138</ele>
        <time>2023-04-07T19:09:59Z</time>
      </trkpt>
      <trkpt lat="49.49458" lon="4.67585">
        <ele>139</ele>
        <time>2023-04-07T19:10:36Z</time>
      </trkpt>
      <trkpt lat="49.49468" lon="4.67579">
        <ele>139</ele>
        <time>2023-04-07T19:10:45Z</time>
      </trkpt>
      <trkpt lat="49.49473" lon="4.67563">
        <ele>141</ele>
        <time>2023-04-07T19:10:54Z</time>
      </trkpt>
      <trkpt lat="49.49485" lon="4.67462">
        <ele>147</ele>
        <time>2023-04-07T19:11:48Z</time>
      </trkpt>
      <trkpt lat="49.49496" lon="4.67446">
        <ele>148</ele>
        <time>2023-04-07T19:12:00Z</time>
      </trkpt>
      <trkpt lat="49.49499" lon="4.67448">
        <ele>148</ele>
        <time>2023-04-07T19:12:02Z</time>
      </trkpt>
      <trkpt lat="49.49504" lon="4.67445">
        <ele>148</ele>
        <time>2023-04-07T19:12:07Z</time>
      </trkpt>
      <trkpt lat="49.49509" lon="4.67431">
        <ele>149</ele>
        <time>2023-04-07T19:12:15Z</time>
      </trkpt>
      <trkpt lat="49.49523" lon="4.67412">
        <ele>150</ele>
        <time>2023-04-07T19:12:30Z</time>
      </trkpt>
      <trkpt lat="49.49529" lon="4.67384">
        <ele>150</ele>
        <time>2023-04-07T19:12:45Z</time>
      </trkpt>
      <trkpt lat="49.49572" lon="4.67307">
        <ele>151</ele>
        <time>2023-04-07T19:13:38Z</time>
      </trkpt>
      <trkpt lat="49.49681" lon="4.6716">
        <ele>150</ele>
        <time>2023-04-07T19:15:34Z</time>
      </trkpt>
      <trkpt lat="49.49707" lon="4.67113">
        <ele>149</ele>
        <time>2023-04-07T19:16:06Z</time>
      </trkpt>
      <trkpt lat="49.49733" lon="4.67072">
        <ele>147</ele>
        <time>2023-04-07T19:16:36Z</time>
      </trkpt>
      <trkpt lat="49.49748" lon="4.67038">
        <ele>146</ele>
        <time>2023-04-07T19:16:57Z</time>
      </trkpt>
      <trkpt lat="49.49764" lon="4.6699">
        <ele>145</ele>
        <time>2023-04-07T19:17:25Z</time>
      </trkpt>
      <trkpt lat="49.49774" lon="4.66938">
        <ele>145</ele>
        <time>2023-04-07T19:17:54Z</time>
      </trkpt>
      <trkpt lat="49.4978" lon="4.66921">
        <ele>145</ele>
        <time>2023-04-07T19:18:04Z</time>
      </trkpt>
      <trkpt lat="49.49814" lon="4.66858">
        <ele>144</ele>
        <time>2023-04-07T19:18:46Z</time>
      </trkpt>
      <trkpt lat="49.49842" lon="4.66821">
        <ele>143</ele>
        <time>2023-04-07T19:19:16Z</time>
      </trkpt>
      <trkpt lat="49.49856" lon="4.66789">
        <ele>141</ele>
        <time>2023-04-07T19:19:36Z</time>
      </trkpt>
      <trkpt lat="49.49869" lon="4.66771">
        <ele>139</ele>
        <time>2023-04-07T19:19:50Z</time>
      </trkpt>
      <trkpt lat="49.4989" lon="4.6673">
        <ele>135</ele>
        <time>2023-04-07T19:20:17Z</time>
      </trkpt>
      <trkpt lat="49.49887" lon="4.6671">
        <ele>134</ele>
        <time>2023-04-07T19:20:28Z</time>
      </trkpt>
      <trkpt lat="49.49881" lon="4.66697">
        <ele>134</ele>
        <time>2023-04-07T19:20:36Z</time>
      </trkpt>
      <trkpt lat="49.49869" lon="4.66679">
        <ele>134</ele>
        <time>2023-04-07T19:20:49Z</time>
      </trkpt>
      <trkpt lat="49.4986" lon="4.66672">
        <ele>134</ele>
        <time>2023-04-07T19:20:58Z</time>
      </trkpt>
      <trkpt lat="49.49836" lon="4.66633">
        <ele>133</ele>
        <time>2023-04-07T19:21:26Z</time>
      </trkpt>
      <trkpt lat="49.49794" lon="4.66582">
        <ele>131</ele>
        <time>2023-04-07T19:22:08Z</time>
      </trkpt>
      <trkpt lat="49.49773" lon="4.66571">
        <ele>131</ele>
        <time>2023-04-07T19:22:26Z</time>
      </trkpt>
      <trkpt lat="49.49701" lon="4.66549">
        <ele>133</ele>
        <time>2023-04-07T19:23:25Z</time>
      </trkpt>
      <trkpt lat="49.49638" lon="4.66525">
        <ele>134</ele>
        <time>2023-04-07T19:24:17Z</time>
      </trkpt>
      <trkpt lat="49.49555" lon="4.66468">
        <ele>135</ele>
        <time>2023-04-07T19:25:30Z</time>
      </trkpt>
      <trkpt lat="49.49549" lon="4.66454">
        <ele>135</ele>
        <time>2023-04-07T19:25:38Z</time>
      </trkpt>
      <trkpt lat="49.49494" lon="4.66061">
        <ele>127</ele>
        <time>2023-04-07T19:29:07Z</time>
      </trkpt>
      <trkpt lat="49.49475" lon="4.6591">
        <ele>124</ele>
        <time>2023-04-07T19:30:27Z</time>
      </trkpt>
      <trkpt lat="49.49474" lon="4.65881">
        <ele>124</ele>
        <time>2023-04-07T19:30:42Z</time>
      </trkpt>
      <trkpt lat="49.49487" lon="4.65874">
        <ele>125</ele>
        <time>2023-04-07T19:30:54Z</time>
      </trkpt>
      <trkpt lat="49.49556" lon="4.65872">
        <ele>125</ele>
        <time>2023-04-07T19:31:49Z</time>
      </trkpt>
      <trkpt lat="49.49591" lon="4.65874">
        <ele>125</ele>
        <time>2023-04-07T19:32:17Z</time>
      </trkpt>
      <trkpt lat="49.49619" lon="4.65881">
        <ele>124</ele>
        <time>2023-04-07T19:32:40Z</time>
      </trkpt>
      <trkpt lat="49.50071" lon="4.66063">
        <ele>127</ele>
        <time>2023-04-07T19:38:54Z</time>
      </trkpt>
      <trkpt lat="49.50245" lon="4.6613">
        <ele>130</ele>
        <time>2023-04-07T19:41:17Z</time>
      </trkpt>
      <trkpt lat="49.50273" lon="4.66145">
        <ele>130</ele>
        <time>2023-04-07T19:41:41Z</time>
      </trkpt>
      <trkpt lat="49.50301" lon="4.66179">
        <ele>131</ele>
        <time>2023-04-07T19:42:09Z</time>
      </trkpt>
      <trkpt lat="49.50328" lon="4.66225">
        <ele>132</ele>
        <time>2023-04-07T19:42:42Z</time>
      </trkpt>
      <trkpt lat="49.50519" lon="4.66602">
        <ele>143</ele>
        <time>2023-04-07T19:46:50Z</time>
      </trkpt>
      <trkpt lat="49.50531" lon="4.66598">
        <ele>143</ele>
        <time>2023-04-07T19:47:00Z</time>
      </trkpt>
      <trkpt lat="49.50678" lon="4.6624">
        <ele>143</ele>
        <time>2023-04-07T19:50:40Z</time>
      </trkpt>
      <trkpt lat="49.50688" lon="4.6622">
        <ele>143</ele>
        <time>2023-04-07T19:50:54Z</time>
      </trkpt>
      <trkpt lat="49.50697" lon="4.66214">
        <ele>143</ele>
        <time>2023-04-07T19:51:01Z</time>
      </trkpt>
      <trkpt lat="49.50711" lon="4.6621">
        <ele>144</ele>
        <time>2023-04-07T19:51:13Z</time>
      </trkpt>
      <trkpt lat="49.50778" lon="4.66205">
        <ele>148</ele>
        <time>2023-04-07T19:52:07Z</time>
      </trkpt>
      <trkpt lat="49.50811" lon="4.66204">
        <ele>150</ele>
        <time>2023-04-07T19:52:33Z</time>
      </trkpt>
      <trkpt lat="49.50822" lon="4.66206">
        <ele>151</ele>
        <time>2023-04-07T19:52:42Z</time>
      </trkpt>
      <trkpt lat="49.50871" lon="4.66232">
        <ele>151</ele>
        <time>2023-04-07T19:53:23Z</time>
      </trkpt>
      <trkpt lat="49.50897" lon="4.66251">
        <ele>151</ele>
        <time>2023-04-07T19:53:46Z</time>
      </trkpt>
      <trkpt lat="49.50928" lon="4.66279">
        <ele>152</ele>
        <time>2023-04-07T19:54:15Z</time>
      </trkpt>
      <trkpt lat="49.50993" lon="4.66327">
        <ele>154</ele>
        <time>2023-04-07T19:55:13Z</time>
      </trkpt>
      <trkpt lat="49.51016" lon="4.66339">
        <ele>154</ele>
        <time>2023-04-07T19:55:32Z</time>
      </trkpt>
      <trkpt lat="49.51032" lon="4.66342">
        <ele>155</ele>
        <time>2023-04-07T19:55:45Z</time>
      </trkpt>
      <trkpt lat="49.51056" lon="4.66341">
        <ele>156</ele>
        <time>2023-04-07T19:56:04Z</time>
      </trkpt>
      <trkpt lat="49.51066" lon="4.66335">
        <ele>156</ele>
        <time>2023-04-07T19:56:13Z</time>
      </trkpt>
      <trkpt lat="49.51075" lon="4.66301">
        <ele>159</ele>
        <time>2023-04-07T19:56:32Z</time>
      </trkpt>
      <trkpt lat="49.51093" lon="4.66198">
        <ele>165</ele>
        <time>2023-04-07T19:57:28Z</time>
      </trkpt>
      <trkpt lat="49.51087" lon="4.66184">
        <ele>166</ele>
        <time>2023-04-07T19:57:36Z</time>
      </trkpt>
      <trkpt lat="49.51099" lon="4.66145">
        <ele>166</ele>
        <time>2023-04-07T19:57:59Z</time>
      </trkpt>
      <trkpt lat="49.51112" lon="4.66072">
        <ele>166</ele>
        <time>2023-04-07T19:58:38Z</time>
      </trkpt>
      <trkpt lat="49.51123" lon="4.66033">
        <ele>167</ele>
        <time>2023-04-07T19:59:00Z</time>
      </trkpt>
      <trkpt lat="49.51169" lon="4.65959">
        <ele>171</ele>
        <time>2023-04-07T19:59:53Z</time>
      </trkpt>
      <trkpt lat="49.51176" lon="4.65925">
        <ele>170</ele>
        <time>2023-04-07T20:00:12Z</time>
      </trkpt>
      <trkpt lat="49.51179" lon="4.65883">
        <ele>169</ele>
        <time>2023-04-07T20:00:34Z</time>
      </trkpt>
      <trkpt lat="49.51174" lon="4.65847">
        <ele>167</ele>
        <time>2023-04-07T20:00:53Z</time>
      </trkpt>
      <trkpt lat="49.51176" lon="4.6583">
        <ele>167</ele>
        <time>2023-04-07T20:01:02Z</time>
      </trkpt>
      <trkpt lat="49.51217" lon="4.65799">
        <ele>164</ele>
        <time>2023-04-07T20:01:39Z</time>
      </trkpt>
      <trkpt lat="49.51236" lon="4.6579">
        <ele>163</ele>
        <time>2023-04-07T20:01:55Z</time>
      </trkpt>
      <trkpt lat="49.51268" lon="4.65781">
        <ele>162</ele>
        <time>2023-04-07T20:02:21Z</time>
      </trkpt>
      <trkpt lat="49.51338" lon="4.6575">
        <ele>161</ele>
        <time>2023-04-07T20:03:19Z</time>
      </trkpt>
      <trkpt lat="49.51364" lon="4.65732">
        <ele>162</ele>
        <time>2023-04-07T20:03:42Z</time>
      </trkpt>
      <trkpt lat="49.51384" lon="4.6573">
        <ele>164</ele>
        <time>2023-04-07T20:03:58Z</time>
      </trkpt>
      <trkpt lat="49.51408" lon="4.65717">
        <ele>165</ele>
        <time>2023-04-07T20:04:18Z</time>
      </trkpt>
      <trkpt lat="49.51417" lon="4.65719">
        <ele>166</ele>
        <time>2023-04-07T20:04:25Z</time>
      </trkpt>
      <trkpt lat="49.51473" lon="4.65714">
        <ele>166</ele>
        <time>2023-04-07T20:05:10Z</time>
      </trkpt>
      <trkpt lat="49.51486" lon="4.65712">
        <ele>166</ele>
        <time>2023-04-07T20:05:21Z</time>
      </trkpt>
      <trkpt lat="49.51497" lon="4.65707">
        <ele>166</ele>
        <time>2023-04-07T20:05:30Z</time>
      </trkpt>
      <trkpt lat="49.51512" lon="4.65693">
        <ele>167</ele>
        <time>2023-04-07T20:05:44Z</time>
      </trkpt>
      <trkpt lat="49.51546" lon="4.65642">
        <ele>165</ele>
        <time>2023-04-07T20:06:22Z</time>
      </trkpt>
      <trkpt lat="49.51563" lon="4.65611">
        <ele>163</ele>
        <time>2023-04-07T20:06:43Z</time>
      </trkpt>
      <trkpt lat="49.51613" lon="4.65493">
        <ele>161</ele>
        <time>2023-04-07T20:07:56Z</time>
      </trkpt>
      <trkpt lat="49.51621" lon="4.65496">
        <ele>162</ele>
        <time>2023-04-07T20:08:03Z</time>
      </trkpt>
      <trkpt lat="49.51646" lon="4.6552">
        <ele>164</ele>
        <time>2023-04-07T20:08:27Z</time>
      </trkpt>
      <trkpt lat="49.51648" lon="4.65539">
        <ele>164</ele>
        <time>2023-04-07T20:08:37Z</time>
      </trkpt>
      <trkpt lat="49.51665" lon="4.6556">
        <ele>166</ele>
        <time>2023-04-07T20:08:54Z</time>
      </trkpt>
      <trkpt lat="49.51694" lon="4.65625">
        <ele>165</ele>
        <time>2023-04-07T20:09:35Z</time>
      </trkpt>
      <trkpt lat="49.51704" lon="4.65632">
        <ele>165</ele>
        <time>2023-04-07T20:09:44Z</time>
      </trkpt>
      <trkpt lat="49.51716" lon="4.65648">
        <ele>165</ele>
        <time>2023-04-07T20:09:56Z</time>
      </trkpt>
      <trkpt lat="49.51725" lon="4.65655">
        <ele>165</ele>
        <time>2023-04-07T20:10:05Z</time>
      </trkpt>
      <trkpt lat="49.51743" lon="4.65663">
        <ele>165</ele>
        <time>2023-04-07T20:10:20Z</time>
      </trkpt>
      <trkpt lat="49.51761" lon="4.65677">
        <ele>165</ele>
        <time>2023-04-07T20:10:36Z</time>
      </trkpt>
      <trkpt lat="49.51768" lon="4.65687">
        <ele>166</ele>
        <time>2023-04-07T20:10:43Z</time>
      </trkpt>
      <trkpt lat="49.5178" lon="4.65692">
        <ele>166</ele>
        <time>2023-04-07T20:10:53Z</time>
      </trkpt>
      <trkpt lat="49.51812" lon="4.65715">
        <ele>168</ele>
        <time>2023-04-07T20:11:22Z</time>
      </trkpt>
      <trkpt lat="49.51825" lon="4.65733">
        <ele>169</ele>
        <time>2023-04-07T20:11:36Z</time>
      </trkpt>
      <trkpt lat="49.51826" lon="4.65746">
        <ele>170</ele>
        <time>2023-04-07T20:11:42Z</time>
      </trkpt>
      <trkpt lat="49.51813" lon="4.65768">
        <ele>171</ele>
        <time>2023-04-07T20:11:58Z</time>
      </trkpt>
      <trkpt lat="49.51811" lon="4.65778">
        <ele>171</ele>
        <time>2023-04-07T20:12:03Z</time>
      </trkpt>
      <trkpt lat="49.51796" lon="4.65815">
        <ele>171</ele>
        <time>2023-04-07T20:12:26Z</time>
      </trkpt>
      <trkpt lat="49.51783" lon="4.6584">
        <ele>172</ele>
        <time>2023-04-07T20:12:43Z</time>
      </trkpt>
      <trkpt lat="49.51788" lon="4.65835">
        <ele>171</ele>
        <time>2023-04-07T20:12:47Z</time>
      </trkpt>
      <trkpt lat="49.51787" lon="4.65839">
        <ele>172</ele>
        <time>2023-04-07T20:12:50Z</time>
      </trkpt>
      <trkpt lat="49.51775" lon="4.65863">
        <ele>172</ele>
        <time>2023-04-07T20:13:05Z</time>
      </trkpt>
      <trkpt lat="49.51768" lon="4.65865">
        <ele>172</ele>
        <time>2023-04-07T20:13:11Z</time>
      </trkpt>
      <trkpt lat="49.51762" lon="4.65863">
        <ele>172</ele>
        <time>2023-04-07T20:13:16Z</time>
      </trkpt>
      <trkpt lat="49.5175" lon="4.65881">
        <ele>173</ele>
        <time>2023-04-07T20:13:29Z</time>
      </trkpt>
      <trkpt lat="49.51747" lon="4.65893">
        <ele>174</ele>
        <time>2023-04-07T20:13:36Z</time>
      </trkpt>
      <trkpt lat="49.51739" lon="4.65895">
        <ele>174</ele>
        <time>2023-04-07T20:13:43Z</time>
      </trkpt>
      <trkpt lat="49.51745" lon="4.65893">
        <ele>174</ele>
        <time>2023-04-07T20:13:47Z</time>
      </trkpt>
      <trkpt lat="49.51741" lon="4.65895">
        <ele>174</ele>
        <time>2023-04-07T20:13:51Z</time>
      </trkpt>
      <trkpt lat="49.51742" lon="4.65911">
        <ele>175</ele>
        <time>2023-04-07T20:13:59Z</time>
      </trkpt>
      <trkpt lat="49.51738" lon="4.65927">
        <ele>176</ele>
        <time>2023-04-07T20:14:08Z</time>
      </trkpt>
      <trkpt lat="49.51746" lon="4.66036">
        <ele>183</ele>
        <time>2023-04-07T20:15:05Z</time>
      </trkpt>
      <trkpt lat="49.51751" lon="4.66056">
        <ele>184</ele>
        <time>2023-04-07T20:15:16Z</time>
      </trkpt>
      <trkpt lat="49.51743" lon="4.66116">
        <ele>185</ele>
        <time>2023-04-07T20:15:48Z</time>
      </trkpt>
      <trkpt lat="49.51738" lon="4.66129">
        <ele>185</ele>
        <time>2023-04-07T20:15:56Z</time>
      </trkpt>
      <trkpt lat="49.51743" lon="4.66147">
        <ele>185</ele>
        <time>2023-04-07T20:16:06Z</time>
      </trkpt>
      <trkpt lat="49.5175" lon="4.66159">
        <ele>185</ele>
        <time>2023-04-07T20:16:15Z</time>
      </trkpt>
      <trkpt lat="49.51761" lon="4.66168">
        <ele>186</ele>
        <time>2023-04-07T20:16:25Z</time>
      </trkpt>
      <trkpt lat="49.51778" lon="4.66206">
        <ele>186</ele>
        <time>2023-04-07T20:16:48Z</time>
      </trkpt>
      <trkpt lat="49.51794" lon="4.66221">
        <ele>186</ele>
        <time>2023-04-07T20:17:03Z</time>
      </trkpt>
      <trkpt lat="49.51802" lon="4.66256">
        <ele>186</ele>
        <time>2023-04-07T20:17:23Z</time>
      </trkpt>
      <trkpt lat="49.51807" lon="4.66271">
        <ele>186</ele>
        <time>2023-04-07T20:17:32Z</time>
      </trkpt>
      <trkpt lat="49.51814" lon="4.66283">
        <ele>186</ele>
        <time>2023-04-07T20:17:40Z</time>
      </trkpt>
      <trkpt lat="49.51827" lon="4.66277">
        <ele>186</ele>
        <time>2023-04-07T20:17:51Z</time>
      </trkpt>
      <trkpt lat="49.51855" lon="4.66241">
        <ele>186</ele>
        <time>2023-04-07T20:18:20Z</time>
      </trkpt>
      <trkpt lat="49.51876" lon="4.66219">
        <ele>187</ele>
        <time>2023-04-07T20:18:40Z</time>
      </trkpt>
      <trkpt lat="49.51904" lon="4.662">
        <ele>187</ele>
        <time>2023-04-07T20:19:05Z</time>
      </trkpt>
      <trkpt lat="49.51926" lon="4.66208">
        <ele>187</ele>
        <time>2023-04-07T20:19:23Z</time>
      </trkpt>
      <trkpt lat="49.51946" lon="4.66225">
        <ele>187</ele>
        <time>2023-04-07T20:19:41Z</time>
      </trkpt>
      <trkpt lat="49.51962" lon="4.6623">
        <ele>187</ele>
        <time>2023-04-07T20:19:54Z</time>
      </trkpt>
      <trkpt lat="49.5199" lon="4.66244">
        <ele>186</ele>
        <time>2023-04-07T20:20:18Z</time>
      </trkpt>
      <trkpt lat="49.52048" lon="4.66255">
        <ele>189</ele>
        <time>2023-04-07T20:21:05Z</time>
      </trkpt>
      <trkpt lat="49.5206" lon="4.66254">
        <ele>190</ele>
        <time>2023-04-07T20:21:14Z</time>
      </trkpt>
      <trkpt lat="49.52112" lon="4.66272">
        <ele>190</ele>
        <time>2023-04-07T20:21:57Z</time>
      </trkpt>
      <trkpt lat="49.5214" lon="4.66279">
        <ele>190</ele>
        <time>2023-04-07T20:22:20Z</time>
      </trkpt>
      <trkpt lat="49.52213" lon="4.66309">
        <ele>191</ele>
        <time>2023-04-07T20:23:20Z</time>
      </trkpt>
      <trkpt lat="49.52271" lon="4.66337">
        <ele>191</ele>
        <time>2023-04-07T20:24:09Z</time>
      </trkpt>
      <trkpt lat="49.52324" lon="4.66373">
        <ele>191</ele>
        <time>2023-04-07T20:24:55Z</time>
      </trkpt>
      <trkpt lat="49.52359" lon="4.66388">
        <ele>192</ele>
        <time>2023-04-07T20:25:24Z</time>
      </trkpt>
      <trkpt lat="49.5238" lon="4.66391">
        <ele>191</ele>
        <time>2023-04-07T20:25:41Z</time>
      </trkpt>
      <trkpt lat="49.52401" lon="4.66399">
        <ele>191</ele>
        <time>2023-04-07T20:25:58Z</time>
      </trkpt>
      <trkpt lat="49.52419" lon="4.66401">
        <ele>191</ele>
        <time>2023-04-07T20:26:13Z</time>
      </trkpt>
      <trkpt lat="49.52442" lon="4.66411">
        <ele>191</ele>
        <time>2023-04-07T20:26:32Z</time>
      </trkpt>
      <trkpt lat="49.52516" lon="4.66433">
        <ele>190</ele>
        <time>2023-04-07T20:27:32Z</time>
      </trkpt>
      <trkpt lat="49.5256" lon="4.66439">
        <ele>191</ele>
        <time>2023-04-07T20:28:08Z</time>
      </trkpt>
      <trkpt lat="49.52621" lon="4.66434">
        <ele>192</ele>
        <time>2023-04-07T20:28:57Z</time>
      </trkpt>
      <trkpt lat="49.52641" lon="4.66428">
        <ele>192</ele>
        <time>2023-04-07T20:29:13Z</time>
      </trkpt>
      <trkpt lat="49.52719" lon="4.66374">
        <ele>197</ele>
        <time>2023-04-07T20:30:21Z</time>
      </trkpt>
      <trkpt lat="49.52767" lon="4.66335">
        <ele>200</ele>
        <time>2023-04-07T20:31:05Z</time>
      </trkpt>
      <trkpt lat="49.52787" lon="4.66325">
        <ele>200</ele>
        <time>2023-04-07T20:31:22Z</time>
      </trkpt>
      <trkpt lat="49.52796" lon="4.66326">
        <ele>199</ele>
        <time>2023-04-07T20:31:29Z</time>
      </trkpt>
      <trkpt lat="49.52812" lon="4.66302">
        <ele>199</ele>
        <time>2023-04-07T20:31:47Z</time>
      </trkpt>
      <trkpt lat="49.52859" lon="4.66279">
        <ele>200</ele>
        <time>2023-04-07T20:32:26Z</time>
      </trkpt>
      <trkpt lat="49.529" lon="4.66274">
        <ele>200</ele>
        <time>2023-04-07T20:32:59Z</time>
      </trkpt>
      <trkpt lat="49.52909" lon="4.66278">
        <ele>200</ele>
        <time>2023-04-07T20:33:07Z</time>
      </trkpt>
      <trkpt lat="49.52937" lon="4.66265">
        <ele>200</ele>
        <time>2023-04-07T20:33:30Z</time>
      </trkpt>
      <trkpt lat="49.52939" lon="4.66267">
        <ele>200</ele>
        <time>2023-04-07T20:33:32Z</time>
      </trkpt>
      <trkpt lat="49.5296" lon="4.66267">
        <ele>200</ele>
        <time>2023-04-07T20:33:49Z</time>
      </trkpt>
      <trkpt lat="49.52981" lon="4.66262">
        <ele>199</ele>
        <time>2023-04-07T20:34:06Z</time>
      </trkpt>
      <trkpt lat="49.53009" lon="4.6626">
        <ele>199</ele>
        <time>2023-04-07T20:34:28Z</time>
      </trkpt>
      <trkpt lat="49.53021" lon="4.66246">
        <ele>199</ele>
        <time>2023-04-07T20:34:40Z</time>
      </trkpt>
      <trkpt lat="49.53031" lon="4.6625">
        <ele>198</ele>
        <time>2023-04-07T20:34:49Z</time>
      </trkpt>
      <trkpt lat="49.5304" lon="4.66258">
        <ele>198</ele>
        <time>2023-04-07T20:34:57Z</time>
      </trkpt>
      <trkpt lat="49.53042" lon="4.66271">
        <ele>198</ele>
        <time>2023-04-07T20:35:04Z</time>
      </trkpt>
      <trkpt lat="49.53063" lon="4.66302">
        <ele>197</ele>
        <time>2023-04-07T20:35:27Z</time>
      </trkpt>
      <trkpt lat="49.53085" lon="4.66311">
        <ele>196</ele>
        <time>2023-04-07T20:35:45Z</time>
      </trkpt>
      <trkpt lat="49.53096" lon="4.66319">
        <ele>197</ele>
        <time>2023-04-07T20:35:55Z</time>
      </trkpt>
      <trkpt lat="49.53109" lon="4.66336">
        <ele>197</ele>
        <time>2023-04-07T20:36:09Z</time>
      </trkpt>
      <trkpt lat="49.53119" lon="4.66343">
        <ele>197</ele>
        <time>2023-04-07T20:36:18Z</time>
      </trkpt>
      <trkpt lat="49.53129" lon="4.6634">
        <ele>197</ele>
        <time>2023-04-07T20:36:26Z</time>
      </trkpt>
      <trkpt lat="49.5314" lon="4.66324">
        <ele>198</ele>
        <time>2023-04-07T20:36:38Z</time>
      </trkpt>
      <trkpt lat="49.53164" lon="4.66329">
        <ele>198</ele>
        <time>2023-04-07T20:36:57Z</time>
      </trkpt>
      <trkpt lat="49.532" lon="4.6633">
        <ele>197</ele>
        <time>2023-04-07T20:37:26Z</time>
      </trkpt>
      <trkpt lat="49.5324" lon="4.6632">
        <ele>196</ele>
        <time>2023-04-07T20:37:59Z</time>
      </trkpt>
      <trkpt lat="49.53252" lon="4.6632">
        <ele>195</ele>
        <time>2023-04-07T20:38:08Z</time>
      </trkpt>
      <trkpt lat="49.53293" lon="4.66333">
        <ele>193</ele>
        <time>2023-04-07T20:38:42Z</time>
      </trkpt>
      <trkpt lat="49.53305" lon="4.66331">
        <ele>192</ele>
        <time>2023-04-07T20:38:51Z</time>
      </trkpt>
      <trkpt lat="49.53317" lon="4.66334">
        <ele>192</ele>
        <time>2023-04-07T20:39:01Z</time>
      </trkpt>
      <trkpt lat="49.5335" lon="4.66347">
        <ele>192</ele>
        <time>2023-04-07T20:39:28Z</time>
      </trkpt>
      <trkpt lat="49.53371" lon="4.6635">
        <ele>192</ele>
        <time>2023-04-07T20:39:45Z</time>
      </trkpt>
      <trkpt lat="49.5338" lon="4.66348">
        <ele>192</ele>
        <time>2023-04-07T20:39:53Z</time>
      </trkpt>
      <trkpt lat="49.53387" lon="4.66357">
        <ele>193</ele>
        <time>2023-04-07T20:40:00Z</time>
      </trkpt>
      <trkpt lat="49.53396" lon="4.66354">
        <ele>193</ele>
        <time>2023-04-07T20:40:07Z</time>
      </trkpt>
      <trkpt lat="49.53412" lon="4.66354">
        <ele>193</ele>
        <time>2023-04-07T20:40:20Z</time>
      </trkpt>
      <trkpt lat="49.53407" lon="4.66355">
        <ele>193</ele>
        <time>2023-04-07T20:40:24Z</time>
      </trkpt>
      <trkpt lat="49.53414" lon="4.66352">
        <ele>193</ele>
        <time>2023-04-07T20:40:30Z</time>
      </trkpt>
      <trkpt lat="49.53422" lon="4.66355">
        <ele>194</ele>
        <time>2023-04-07T20:40:36Z</time>
      </trkpt>
      <trkpt lat="49.5343" lon="4.66347">
        <ele>195</ele>
        <time>2023-04-07T20:40:44Z</time>
      </trkpt>
      <trkpt lat="49.5344" lon="4.66347">
        <ele>196</ele>
        <time>2023-04-07T20:40:52Z</time>
      </trkpt>
      <trkpt lat="49.53449" lon="4.66351">
        <ele>197</ele>
        <time>2023-04-07T20:41:00Z</time>
      </trkpt>
      <trkpt lat="49.5347" lon="4.66352">
        <ele>200</ele>
        <time>2023-04-07T20:41:16Z</time>
      </trkpt>
      <trkpt lat="49.53486" lon="4.66333">
        <ele>201</ele>
        <time>2023-04-07T20:41:33Z</time>
      </trkpt>
      <trkpt lat="49.53536" lon="4.66316">
        <ele>203</ele>
        <time>2023-04-07T20:42:14Z</time>
      </trkpt>
      <trkpt lat="49.53564" lon="4.66299">
        <ele>202</ele>
        <time>2023-04-07T20:42:38Z</time>
      </trkpt>
      <trkpt lat="49.53638" lon="4.66279">
        <ele>200</ele>
        <time>2023-04-07T20:43:38Z</time>
      </trkpt>
      <trkpt lat="49.53744" lon="4.66265">
        <ele>203</ele>
        <time>2023-04-07T20:45:03Z</time>
      </trkpt>
      <trkpt lat="49.53776" lon="4.66256">
        <ele>205</ele>
        <time>2023-04-07T20:45:29Z</time>
      </trkpt>
      <trkpt lat="49.53792" lon="4.66248">
        <ele>205</ele>
        <time>2023-04-07T20:45:43Z</time>
      </trkpt>
      <trkpt lat="49.53863" lon="4.66222">
        <ele>207</ele>
        <time>2023-04-07T20:46:41Z</time>
      </trkpt>
      <trkpt lat="49.53882" lon="4.6621">
        <ele>207</ele>
        <time>2023-04-07T20:46:57Z</time>
      </trkpt>
      <trkpt lat="49.53895" lon="4.6621">
        <ele>207</ele>
        <time>2023-04-07T20:47:08Z</time>
      </trkpt>
      <trkpt lat="49.53891" lon="4.66214">
        <ele>207</ele>
        <time>2023-04-07T20:47:12Z</time>
      </trkpt>
      <trkpt lat="49.53894" lon="4.66217">
        <ele>207</ele>
        <time>2023-04-07T20:47:15Z</time>
      </trkpt>
      <trkpt lat="49.53896" lon="4.66212">
        <ele>207</ele>
        <time>2023-04-07T20:47:18Z</time>
      </trkpt>
      <trkpt lat="49.53897" lon="4.66214">
        <ele>207</ele>
        <time>2023-04-07T20:47:19Z</time>
      </trkpt>
      <trkpt lat="49.53905" lon="4.66208">
        <ele>207</ele>
        <time>2023-04-07T20:47:26Z</time>
      </trkpt>
      <trkpt lat="49.53913" lon="4.66208">
        <ele>207</ele>
        <time>2023-04-07T20:47:32Z</time>
      </trkpt>
      <trkpt lat="49.53919" lon="4.66204">
        <ele>207</ele>
        <time>2023-04-07T20:47:38Z</time>
      </trkpt>
      <trkpt lat="49.53915" lon="4.66204">
        <ele>207</ele>
        <time>2023-04-07T20:47:41Z</time>
      </trkpt>
      <trkpt lat="49.53951" lon="4.66194">
        <ele>207</ele>
        <time>2023-04-07T20:48:10Z</time>
      </trkpt>
      <trkpt lat="49.54028" lon="4.66152">
        <ele>208</ele>
        <time>2023-04-07T20:49:16Z</time>
      </trkpt>
      <trkpt lat="49.54046" lon="4.66155">
        <ele>209</ele>
        <time>2023-04-07T20:49:30Z</time>
      </trkpt>
      <trkpt lat="49.54065" lon="4.66145">
        <ele>209</ele>
        <time>2023-04-07T20:49:46Z</time>
      </trkpt>
      <trkpt lat="49.54071" lon="4.66135">
        <ele>209</ele>
        <time>2023-04-07T20:49:53Z</time>
      </trkpt>
      <trkpt lat="49.54081" lon="4.66127">
        <ele>209</ele>
        <time>2023-04-07T20:50:02Z</time>
      </trkpt>
      <trkpt lat="49.54122" lon="4.66116">
        <ele>210</ele>
        <time>2023-04-07T20:50:36Z</time>
      </trkpt>
      <trkpt lat="49.54161" lon="4.66093">
        <ele>209</ele>
        <time>2023-04-07T20:51:09Z</time>
      </trkpt>
      <trkpt lat="49.54188" lon="4.66074">
        <ele>208</ele>
        <time>2023-04-07T20:51:33Z</time>
      </trkpt>
      <trkpt lat="49.54181" lon="4.66082">
        <ele>209</ele>
        <time>2023-04-07T20:51:40Z</time>
      </trkpt>
      <trkpt lat="49.54191" lon="4.66076">
        <ele>209</ele>
        <time>2023-04-07T20:51:48Z</time>
      </trkpt>
      <trkpt lat="49.54202" lon="4.66084">
        <ele>209</ele>
        <time>2023-04-07T20:51:58Z</time>
      </trkpt>
      <trkpt lat="49.54212" lon="4.66082">
        <ele>209</ele>
        <time>2023-04-07T20:52:06Z</time>
      </trkpt>
      <trkpt lat="49.54231" lon="4.66064">
        <ele>207</ele>
        <time>2023-04-07T20:52:24Z</time>
      </trkpt>
      <trkpt lat="49.54242" lon="4.66057">
        <ele>206</ele>
        <time>2023-04-07T20:52:34Z</time>
      </trkpt>
      <trkpt lat="49.54266" lon="4.6605">
        <ele>205</ele>
        <time>2023-04-07T20:52:53Z</time>
      </trkpt>
      <trkpt lat="49.54292" lon="4.66037">
        <ele>204</ele>
        <time>2023-04-07T20:53:15Z</time>
      </trkpt>
      <trkpt lat="49.54329" lon="4.65974">
        <ele>200</ele>
        <time>2023-04-07T20:53:59Z</time>
      </trkpt>
      <trkpt lat="49.54344" lon="4.65958">
        <ele>198</ele>
        <time>2023-04-07T20:54:14Z</time>
      </trkpt>
      <trkpt lat="49.54371" lon="4.65938">
        <ele>195</ele>
        <time>2023-04-07T20:54:38Z</time>
      </trkpt>
      <trkpt lat="49.54415" lon="4.65899">
        <ele>192</ele>
        <time>2023-04-07T20:55:18Z</time>
      </trkpt>
      <trkpt lat="49.54553" lon="4.65798">
        <ele>193</ele>
        <time>2023-04-07T20:57:21Z</time>
      </trkpt>
      <trkpt lat="49.54591" lon="4.65773">
        <ele>192</ele>
        <time>2023-04-07T20:57:54Z</time>
      </trkpt>
      <trkpt lat="49.54627" lon="4.65754">
        <ele>194</ele>
        <time>2023-04-07T20:58:24Z</time>
      </trkpt>
      <trkpt lat="49.5464" lon="4.6575">
        <ele>194</ele>
        <time>2023-04-07T20:58:35Z</time>
      </trkpt>
      <trkpt lat="49.54652" lon="4.65755">
        <ele>194</ele>
        <time>2023-04-07T20:58:45Z</time>
      </trkpt>
      <trkpt lat="49.54669" lon="4.6577">
        <ele>195</ele>
        <time>2023-04-07T20:59:00Z</time>
      </trkpt>
      <trkpt lat="49.54801" lon="4.6593">
        <ele>195</ele>
        <time>2023-04-07T21:01:15Z</time>
      </trkpt>
      <trkpt lat="49.54821" lon="4.65945">
        <ele>196</ele>
        <time>2023-04-07T21:01:33Z</time>
      </trkpt>
      <trkpt lat="49.54835" lon="4.6596">
        <ele>197</ele>
        <time>2023-04-07T21:01:46Z</time>
      </trkpt>
      <trkpt lat="49.54845" lon="4.65985">
        <ele>197</ele>
        <time>2023-04-07T21:02:02Z</time>
      </trkpt>
      <trkpt lat="49.54877" lon="4.66159">
        <ele>196</ele>
        <time>2023-04-07T21:03:36Z</time>
      </trkpt>
      <trkpt lat="49.54883" lon="4.66171">
        <ele>196</ele>
        <time>2023-04-07T21:03:43Z</time>
      </trkpt>
      <trkpt lat="49.54903" lon="4.66187">
        <ele>197</ele>
        <time>2023-04-07T21:04:02Z</time>
      </trkpt>
      <trkpt lat="49.54991" lon="4.66212">
        <ele>198</ele>
        <time>2023-04-07T21:05:13Z</time>
      </trkpt>
      <trkpt lat="49.55045" lon="4.66212">
        <ele>198</ele>
        <time>2023-04-07T21:05:56Z</time>
      </trkpt>
      <trkpt lat="49.55099" lon="4.66227">
        <ele>198</ele>
        <time>2023-04-07T21:06:40Z</time>
      </trkpt>
      <trkpt lat="49.55197" lon="4.66268">
        <ele>199</ele>
        <time>2023-04-07T21:08:02Z</time>
      </trkpt>
      <trkpt lat="49.55249" lon="4.66282">
        <ele>199</ele>
        <time>2023-04-07T21:08:44Z</time>
      </trkpt>
      <trkpt lat="49.55272" lon="4.66282">
        <ele>199</ele>
        <time>2023-04-07T21:09:02Z</time>
      </trkpt>
      <trkpt lat="49.55282" lon="4.66278">
        <ele>199</ele>
        <time>2023-04-07T21:09:11Z</time>
      </trkpt>
      <trkpt lat="49.55333" lon="4.66217">
        <ele>200</ele>
        <time>2023-04-07T21:10:02Z</time>
      </trkpt>
      <trkpt lat="49.55346" lon="4.66208">
        <ele>201</ele>
        <time>2023-04-07T21:10:14Z</time>
      </trkpt>
      <trkpt lat="49.55564" lon="4.66106">
        <ele>204</ele>
        <time>2023-04-07T21:13:16Z</time>
      </trkpt>
      <trkpt lat="49.55596" lon="4.66107">
        <ele>204</ele>
        <time>2023-04-07T21:13:42Z</time>
      </trkpt>
      <trkpt lat="49.55629" lon="4.66118">
        <ele>205</ele>
        <time>2023-04-07T21:14:09Z</time>
      </trkpt>
      <trkpt lat="49.55704" lon="4.66163">
        <ele>207</ele>
        <time>2023-04-07T21:15:13Z</time>
      </trkpt>
      <trkpt lat="49.558" lon="4.66196">
        <ele>212</ele>
        <time>2023-04-07T21:16:32Z</time>
      </trkpt>
      <trkpt lat="49.55838" lon="4.66227">
        <ele>213</ele>
        <time>2023-04-07T21:17:06Z</time>
      </trkpt>
      <trkpt lat="49.55896" lon="4.66265">
        <ele>213</ele>
        <time>2023-04-07T21:17:57Z</time>
      </trkpt>
      <trkpt lat="49.55898" lon="4.66279">
        <ele>213</ele>
        <time>2023-04-07T21:18:04Z</time>
      </trkpt>
      <trkpt lat="49.55873" lon="4.66292">
        <ele>213</ele>
        <time>2023-04-07T21:18:25Z</time>
      </trkpt>
      <trkpt lat="49.55865" lon="4.66301">
        <ele>213</ele>
        <time>2023-04-07T21:18:33Z</time>
      </trkpt>
      <trkpt lat="49.55846" lon="4.66324">
        <ele>213</ele>
        <time>2023-04-07T21:18:53Z</time>
      </trkpt>
      <trkpt lat="49.55794" lon="4.66403">
        <ele>212</ele>
        <time>2023-04-07T21:19:51Z</time>
      </trkpt>
      <trkpt lat="49.5574" lon="4.66512">
        <ele>214</ele>
        <time>2023-04-07T21:21:02Z</time>
      </trkpt>
      <trkpt lat="49.55676" lon="4.66672">
        <ele>212</ele>
        <time>2023-04-07T21:22:40Z</time>
      </trkpt>
      <trkpt lat="49.55637" lon="4.66728">
        <ele>212</ele>
        <time>2023-04-07T21:23:23Z</time>
      </trkpt>
      <trkpt lat="49.55588" lon="4.66783">
        <ele>213</ele>
        <time>2023-04-07T21:24:11Z</time>
      </trkpt>
      <trkpt lat="49.55554" lon="4.66813">
        <ele>212</ele>
        <time>2023-04-07T21:24:43Z</time>
      </trkpt>
      <trkpt lat="49.55513" lon="4.66843">
        <ele>209</ele>
        <time>2023-04-07T21:25:19Z</time>
      </trkpt>
      <trkpt lat="49.55485" lon="4.66855">
        <ele>208</ele>
        <time>2023-04-07T21:25:42Z</time>
      </trkpt>
      <trkpt lat="49.55458" lon="4.6686">
        <ele>206</ele>
        <time>2023-04-07T21:26:04Z</time>
      </trkpt>
      <trkpt lat="49.5545" lon="4.66865">
        <ele>205</ele>
        <time>2023-04-07T21:26:11Z</time>
      </trkpt>
      <trkpt lat="49.55448" lon="4.66881">
        <ele>204</ele>
        <time>2023-04-07T21:26:19Z</time>
      </trkpt>
      <trkpt lat="49.55496" lon="4.66988">
        <ele>207</ele>
        <time>2023-04-07T21:27:27Z</time>
      </trkpt>
      <trkpt lat="49.55505" lon="4.6702">
        <ele>207</ele>
        <time>2023-04-07T21:27:45Z</time>
      </trkpt>
      <trkpt lat="49.5553" lon="4.67148">
        <ele>206</ele>
        <time>2023-04-07T21:28:54Z</time>
      </trkpt>
      <trkpt lat="49.55577" lon="4.67225">
        <ele>201</ele>
        <time>2023-04-07T21:29:49Z</time>
      </trkpt>
      <trkpt lat="49.55623" lon="4.67289">
        <ele>197</ele>
        <time>2023-04-07T21:30:39Z</time>
      </trkpt>
      <trkpt lat="49.55785" lon="4.67581">
        <ele>204</ele>
        <time>2023-04-07T21:33:59Z</time>
      </trkpt>
      <trkpt lat="49.55829" lon="4.67666">
        <ele>207</ele>
        <time>2023-04-07T21:34:55Z</time>
      </trkpt>
      <trkpt lat="49.55948" lon="4.67931">
        <ele>219</ele>
        <time>2023-04-07T21:37:42Z</time>
      </trkpt>
      <trkpt lat="49.55965" lon="4.67975">
        <ele>221</ele>
        <time>2023-04-07T21:38:09Z</time>
      </trkpt>
      <trkpt lat="49.55992" lon="4.68029">
        <ele>220</ele>
        <time>2023-04-07T21:38:44Z</time>
      </trkpt>
      <trkpt lat="49.5599" lon="4.68042">
        <ele>220</ele>
        <time>2023-04-07T21:38:51Z</time>
      </trkpt>
      <trkpt lat="49.55981" lon="4.68056">
        <ele>221</ele>
        <time>2023-04-07T21:39:02Z</time>
      </trkpt>
      <trkpt lat="49.55941" lon="4.68104">
        <ele>224</ele>
        <time>2023-04-07T21:39:42Z</time>
      </trkpt>
      <trkpt lat="49.55837" lon="4.68241">
        <ele>220</ele>
        <time>2023-04-07T21:41:32Z</time>
      </trkpt>
      <trkpt lat="49.5573" lon="4.68401">
        <ele>225</ele>
        <time>2023-04-07T21:43:31Z</time>
      </trkpt>
      <trkpt lat="49.5566" lon="4.68526">
        <ele>228</ele>
        <time>2023-04-07T21:44:57Z</time>
      </trkpt>
      <trkpt lat="49.55662" lon="4.68541">
        <ele>228</ele>
        <time>2023-04-07T21:45:05Z</time>
      </trkpt>
      <trkpt lat="49.55715" lon="4.68548">
        <ele>227</ele>
        <time>2023-04-07T21:45:47Z</time>
      </trkpt>
      <trkpt lat="49.55756" lon="4.68562">
        <ele>228</ele>
        <time>2023-04-07T21:46:21Z</time>
      </trkpt>
      <trkpt lat="49.55855" lon="4.68623">
        <ele>230</ele>
        <time>2023-04-07T21:47:46Z</time>
      </trkpt>
      <trkpt lat="49.55883" lon="4.68644">
        <ele>230</ele>
        <time>2023-04-07T21:48:11Z</time>
      </trkpt>
      <trkpt lat="49.55905" lon="4.68664">
        <ele>230</ele>
        <time>2023-04-07T21:48:32Z</time>
      </trkpt>
      <trkpt lat="49.55931" lon="4.68682">
        <ele>229</ele>
        <time>2023-04-07T21:48:55Z</time>
      </trkpt>
      <trkpt lat="49.55935" lon="4.68695">
        <ele>229</ele>
        <time>2023-04-07T21:49:02Z</time>
      </trkpt>
      <trkpt lat="49.55925" lon="4.68718">
        <ele>229</ele>
        <time>2023-04-07T21:49:16Z</time>
      </trkpt>
      <trkpt lat="49.55858" lon="4.68826">
        <ele>228</ele>
        <time>2023-04-07T21:50:34Z</time>
      </trkpt>
      <trkpt lat="49.55823" lon="4.68863">
        <ele>226</ele>
        <time>2023-04-07T21:51:08Z</time>
      </trkpt>
      <trkpt lat="49.55771" lon="4.68935">
        <ele>222</ele>
        <time>2023-04-07T21:52:04Z</time>
      </trkpt>
      <trkpt lat="49.55757" lon="4.68959">
        <ele>222</ele>
        <time>2023-04-07T21:52:21Z</time>
      </trkpt>
      <trkpt lat="49.55665" lon="4.69131">
        <ele>215</ele>
        <time>2023-04-07T21:54:17Z</time>
      </trkpt>
      <trkpt lat="49.55608" lon="4.69264">
        <ele>208</ele>
        <time>2023-04-07T21:55:39Z</time>
      </trkpt>
      <trkpt lat="49.55571" lon="4.69358">
        <ele>204</ele>
        <time>2023-04-07T21:56:36Z</time>
      </trkpt>
      <trkpt lat="49.55544" lon="4.69411">
        <ele>204</ele>
        <time>2023-04-07T21:57:11Z</time>
      </trkpt>
      <trkpt lat="49.55457" lon="4.6966">
        <ele>198</ele>
        <time>2023-04-07T21:59:38Z</time>
      </trkpt>
      <trkpt lat="49.5545" lon="4.6969">
        <ele>198</ele>
        <time>2023-04-07T21:59:55Z</time>
      </trkpt>
      <trkpt lat="49.55448" lon="4.69715">
        <ele>198</ele>
        <time>2023-04-07T22:00:08Z</time>
      </trkpt>
      <trkpt lat="49.55449" lon="4.69744">
        <ele>198</ele>
        <time>2023-04-07T22:00:23Z</time>
      </trkpt>
      <trkpt lat="49.55462" lon="4.69865">
        <ele>196</ele>
        <time>2023-04-07T22:01:27Z</time>
      </trkpt>
      <trkpt lat="49.55456" lon="4.69899">
        <ele>196</ele>
        <time>2023-04-07T22:01:45Z</time>
      </trkpt>
      <trkpt lat="49.55442" lon="4.69942">
        <ele>194</ele>
        <time>2023-04-07T22:02:10Z</time>
      </trkpt>
      <trkpt lat="49.55428" lon="4.69976">
        <ele>192</ele>
        <time>2023-04-07T22:02:31Z</time>
      </trkpt>
      <trkpt lat="49.5537" lon="4.70046">
        <ele>193</ele>
        <time>2023-04-07T22:03:30Z</time>
      </trkpt>
      <trkpt lat="49.55332" lon="4.70123">
        <ele>190</ele>
        <time>2023-04-07T22:04:20Z</time>
      </trkpt>
      <trkpt lat="49.5532" lon="4.70164">
        <ele>190</ele>
        <time>2023-04-07T22:04:44Z</time>
      </trkpt>
      <trkpt lat="49.55301" lon="4.70279">
        <ele>193</ele>
        <time>2023-04-07T22:05:45Z</time>
      </trkpt>
      <trkpt lat="49.55291" lon="4.70308">
        <ele>193</ele>
        <time>2023-04-07T22:06:02Z</time>
      </trkpt>
      <trkpt lat="49.55284" lon="4.7032">
        <ele>193</ele>
        <time>2023-04-07T22:06:11Z</time>
      </trkpt>
      <trkpt lat="49.55276" lon="4.70326">
        <ele>193</ele>
        <time>2023-04-07T22:06:18Z</time>
      </trkpt>
      <trkpt lat="49.55272" lon="4.70362">
        <ele>192</ele>
        <time>2023-04-07T22:06:37Z</time>
      </trkpt>
      <trkpt lat="49.55251" lon="4.70415">
        <ele>188</ele>
        <time>2023-04-07T22:07:09Z</time>
      </trkpt>
      <trkpt lat="49.5524" lon="4.70432">
        <ele>188</ele>
        <time>2023-04-07T22:07:21Z</time>
      </trkpt>
      <trkpt lat="49.55139" lon="4.70526">
        <ele>190</ele>
        <time>2023-04-07T22:08:56Z</time>
      </trkpt>
      <trkpt lat="49.55102" lon="4.706">
        <ele>190</ele>
        <time>2023-04-07T22:09:44Z</time>
      </trkpt>
      <trkpt lat="49.55091" lon="4.70629">
        <ele>189</ele>
        <time>2023-04-07T22:10:02Z</time>
      </trkpt>
      <trkpt lat="49.55084" lon="4.70654">
        <ele>188</ele>
        <time>2023-04-07T22:10:16Z</time>
      </trkpt>
      <trkpt lat="49.55083" lon="4.7068">
        <ele>187</ele>
        <time>2023-04-07T22:10:30Z</time>
      </trkpt>
      <trkpt lat="49.55086" lon="4.70694">
        <ele>187</ele>
        <time>2023-04-07T22:10:37Z</time>
      </trkpt>
      <trkpt lat="49.55118" lon="4.70762">
        <ele>186</ele>
        <time>2023-04-07T22:11:21Z</time>
      </trkpt>
      <trkpt lat="49.55131" lon="4.7077">
        <ele>186</ele>
        <time>2023-04-07T22:11:32Z</time>
      </trkpt>
      <trkpt lat="49.55142" lon="4.70763">
        <ele>186</ele>
        <time>2023-04-07T22:11:42Z</time>
      </trkpt>
      <trkpt lat="49.55154" lon="4.70749">
        <ele>186</ele>
        <time>2023-04-07T22:11:54Z</time>
      </trkpt>
      <trkpt lat="49.55166" lon="4.70742">
        <ele>186</ele>
        <time>2023-04-07T22:12:04Z</time>
      </trkpt>
      <trkpt lat="49.55192" lon="4.70741">
        <ele>188</ele>
        <time>2023-04-07T22:12:25Z</time>
      </trkpt>
      <trkpt lat="49.55388" lon="4.70683">
        <ele>206</ele>
        <time>2023-04-07T22:15:05Z</time>
      </trkpt>
      <trkpt lat="49.55484" lon="4.70696">
        <ele>214</ele>
        <time>2023-04-07T22:16:22Z</time>
      </trkpt>
      <trkpt lat="49.55759" lon="4.70772">
        <ele>224</ele>
        <time>2023-04-07T22:20:05Z</time>
      </trkpt>
      <trkpt lat="49.55809" lon="4.70797">
        <ele>224</ele>
        <time>2023-04-07T22:20:48Z</time>
      </trkpt>
      <trkpt lat="49.55855" lon="4.70816">
        <ele>225</ele>
        <time>2023-04-07T22:21:26Z</time>
      </trkpt>
      <trkpt lat="49.55888" lon="4.70818">
        <ele>226</ele>
        <time>2023-04-07T22:21:52Z</time>
      </trkpt>
      <trkpt lat="49.55921" lon="4.70809">
        <ele>227</ele>
        <time>2023-04-07T22:22:19Z</time>
      </trkpt>
      <trkpt lat="49.55967" lon="4.70801">
        <ele>230</ele>
        <time>2023-04-07T22:22:56Z</time>
      </trkpt>
      <trkpt lat="49.56011" lon="4.70802">
        <ele>233</ele>
        <time>2023-04-07T22:23:31Z</time>
      </trkpt>
      <trkpt lat="49.56143" lon="4.70781">
        <ele>239</ele>
        <time>2023-04-07T22:25:17Z</time>
      </trkpt>
      <trkpt lat="49.56159" lon="4.70782">
        <ele>240</ele>
        <time>2023-04-07T22:25:30Z</time>
      </trkpt>
      <trkpt lat="49.56315" lon="4.70812">
        <ele>245</ele>
        <time>2023-04-07T22:27:36Z</time>
      </trkpt>
      <trkpt lat="49.56371" lon="4.70816">
        <ele>247</ele>
        <time>2023-04-07T22:28:21Z</time>
      </trkpt>
      <trkpt lat="49.56404" lon="4.70812">
        <ele>249</ele>
        <time>2023-04-07T22:28:48Z</time>
      </trkpt>
      <trkpt lat="49.56434" lon="4.70813">
        <ele>251</ele>
        <time>2023-04-07T22:29:12Z</time>
      </trkpt>
      <trkpt lat="49.56578" lon="4.70838">
        <ele>254</ele>
        <time>2023-04-07T22:31:08Z</time>
      </trkpt>
      <trkpt lat="49.56641" lon="4.7087">
        <ele>251</ele>
        <time>2023-04-07T22:32:01Z</time>
      </trkpt>
      <trkpt lat="49.56672" lon="4.70879">
        <ele>250</ele>
        <time>2023-04-07T22:32:26Z</time>
      </trkpt>
      <trkpt lat="49.56683" lon="4.70878">
        <ele>250</ele>
        <time>2023-04-07T22:32:35Z</time>
      </trkpt>
      <trkpt lat="49.56695" lon="4.70873">
        <ele>250</ele>
        <time>2023-04-07T22:32:45Z</time>
      </trkpt>
      <trkpt lat="49.56709" lon="4.70859">
        <ele>249</ele>
        <time>2023-04-07T22:32:58Z</time>
      </trkpt>
      <trkpt lat="49.56718" lon="4.70846">
        <ele>249</ele>
        <time>2023-04-07T22:33:08Z</time>
      </trkpt>
      <trkpt lat="49.5722" lon="4.70047">
        <ele>247</ele>
        <time>2023-04-07T22:42:46Z</time>
      </trkpt>
      <trkpt lat="49.57265" lon="4.69948">
        <ele>250</ele>
        <time>2023-04-07T22:43:48Z</time>
      </trkpt>
      <trkpt lat="49.57286" lon="4.69881">
        <ele>251</ele>
        <time>2023-04-07T22:44:27Z</time>
      </trkpt>
      <trkpt lat="49.57294" lon="4.69865">
        <ele>252</ele>
        <time>2023-04-07T22:44:38Z</time>
      </trkpt>
      <trkpt lat="49.57305" lon="4.6986">
        <ele>252</ele>
        <time>2023-04-07T22:44:47Z</time>
      </trkpt>
      <trkpt lat="49.57319" lon="4.69871">
        <ele>252</ele>
        <time>2023-04-07T22:44:59Z</time>
      </trkpt>
      <trkpt lat="49.57372" lon="4.69963">
        <ele>245</ele>
        <time>2023-04-07T22:46:03Z</time>
      </trkpt>
      <trkpt lat="49.57376" lon="4.69977">
        <ele>244</ele>
        <time>2023-04-07T22:46:11Z</time>
      </trkpt>
      <trkpt lat="49.57377" lon="4.70006">
        <ele>242</ele>
        <time>2023-04-07T22:46:26Z</time>
      </trkpt>
      <trkpt lat="49.57374" lon="4.70036">
        <ele>239</ele>
        <time>2023-04-07T22:46:42Z</time>
      </trkpt>
      <trkpt lat="49.57368" lon="4.70066">
        <ele>237</ele>
        <time>2023-04-07T22:46:58Z</time>
      </trkpt>
      <trkpt lat="49.57363" lon="4.70079">
        <ele>236</ele>
        <time>2023-04-07T22:47:06Z</time>
      </trkpt>
      <trkpt lat="49.57312" lon="4.70173">
        <ele>235</ele>
        <time>2023-04-07T22:48:10Z</time>
      </trkpt>
      <trkpt lat="49.5731" lon="4.70193">
        <ele>233</ele>
        <time>2023-04-07T22:48:20Z</time>
      </trkpt>
      <trkpt lat="49.57323" lon="4.7022">
        <ele>229</ele>
        <time>2023-04-07T22:48:38Z</time>
      </trkpt>
      <trkpt lat="49.57325" lon="4.70353">
        <ele>221</ele>
        <time>2023-04-07T22:49:47Z</time>
      </trkpt>
      <trkpt lat="49.57328" lon="4.70389">
        <ele>218</ele>
        <time>2023-04-07T22:50:06Z</time>
      </trkpt>
      <trkpt lat="49.57322" lon="4.70498">
        <ele>212</ele>
        <time>2023-04-07T22:51:02Z</time>
      </trkpt>
      <trkpt lat="49.57316" lon="4.70551">
        <ele>212</ele>
        <time>2023-04-07T22:51:30Z</time>
      </trkpt>
      <trkpt lat="49.57302" lon="4.70618">
        <ele>213</ele>
        <time>2023-04-07T22:52:07Z</time>
      </trkpt>
      <trkpt lat="49.57304" lon="4.70632">
        <ele>212</ele>
        <time>2023-04-07T22:52:14Z</time>
      </trkpt>
      <trkpt lat="49.57335" lon="4.70686">
        <ele>206</ele>
        <time>2023-04-07T22:52:52Z</time>
      </trkpt>
      <trkpt lat="49.57357" lon="4.70737">
        <ele>201</ele>
        <time>2023-04-07T22:53:24Z</time>
      </trkpt>
      <trkpt lat="49.57384" lon="4.70788">
        <ele>194</ele>
        <time>2023-04-07T22:53:58Z</time>
      </trkpt>
      <trkpt lat="49.57399" lon="4.70825">
        <ele>190</ele>
        <time>2023-04-07T22:54:20Z</time>
      </trkpt>
      <trkpt lat="49.57433" lon="4.70895">
        <ele>185</ele>
        <time>2023-04-07T22:55:06Z</time>
      </trkpt>
      <trkpt lat="49.57435" lon="4.70915">
        <ele>184</ele>
        <time>2023-04-07T22:55:16Z</time>
      </trkpt>
      <trkpt lat="49.57429" lon="4.70959">
        <ele>184</ele>
        <time>2023-04-07T22:55:40Z</time>
      </trkpt>
      <trkpt lat="49.57432" lon="4.70982">
        <ele>184</ele>
        <time>2023-04-07T22:55:52Z</time>
      </trkpt>
      <trkpt lat="49.57475" lon="4.71086">
        <ele>186</ele>
        <time>2023-04-07T22:56:56Z</time>
      </trkpt>
      <trkpt lat="49.57477" lon="4.71111">
        <ele>187</ele>
        <time>2023-04-07T22:57:09Z</time>
      </trkpt>
      <trkpt lat="49.57476" lon="4.71141">
        <ele>188</ele>
        <time>2023-04-07T22:57:25Z</time>
      </trkpt>
      <trkpt lat="49.57467" lon="4.7124">
        <ele>187</ele>
        <time>2023-04-07T22:58:17Z</time>
      </trkpt>
      <trkpt lat="49.57471" lon="4.71273">
        <ele>187</ele>
        <time>2023-04-07T22:58:34Z</time>
      </trkpt>
      <trkpt lat="49.57498" lon="4.71384">
        <ele>190</ele>
        <time>2023-04-07T22:59:36Z</time>
      </trkpt>
      <trkpt lat="49.57635" lon="4.71868">
        <ele>217</ele>
        <time>2023-04-07T23:04:10Z</time>
      </trkpt>
      <trkpt lat="49.57658" lon="4.71962">
        <ele>220</ele>
        <time>2023-04-07T23:05:02Z</time>
      </trkpt>
      <trkpt lat="49.57671" lon="4.72064">
        <ele>222</ele>
        <time>2023-04-07T23:05:56Z</time>
      </trkpt>
      <trkpt lat="49.57667" lon="4.72082">
        <ele>221</ele>
        <time>2023-04-07T23:06:06Z</time>
      </trkpt>
      <trkpt lat="49.57656" lon="4.72091">
        <ele>219</ele>
        <time>2023-04-07T23:06:16Z</time>
      </trkpt>
      <trkpt lat="49.5761" lon="4.72107">
        <ele>213</ele>
        <time>2023-04-07T23:06:53Z</time>
      </trkpt>
      <trkpt lat="49.57552" lon="4.72135">
        <ele>207</ele>
        <time>2023-04-07T23:07:42Z</time>
      </trkpt>
      <trkpt lat="49.5753" lon="4.72143">
        <ele>205</ele>
        <time>2023-04-07T23:08:00Z</time>
      </trkpt>
      <trkpt lat="49.57523" lon="4.72157">
        <ele>204</ele>
        <time>2023-04-07T23:08:09Z</time>
      </trkpt>
      <trkpt lat="49.5752" lon="4.72171">
        <ele>204</ele>
        <time>2023-04-07T23:08:17Z</time>
      </trkpt>
      <trkpt lat="49.57518" lon="4.72214">
        <ele>204</ele>
        <time>2023-04-07T23:08:39Z</time>
      </trkpt>
      <trkpt lat="49.57509" lon="4.7227">
        <ele>202</ele>
        <time>2023-04-07T23:09:09Z</time>
      </trkpt>
      <trkpt lat="49.57509" lon="4.72292">
        <ele>202</ele>
        <time>2023-04-07T23:09:21Z</time>
      </trkpt>
      <trkpt lat="49.57513" lon="4.72341">
        <ele>202</ele>
        <time>2023-04-07T23:09:46Z</time>
      </trkpt>
      <trkpt lat="49.57534" lon="4.72397">
        <ele>203</ele>
        <time>2023-04-07T23:10:20Z</time>
      </trkpt>
      <trkpt lat="49.57557" lon="4.72484">
        <ele>201</ele>
        <time>2023-04-07T23:11:09Z</time>
      </trkpt>
      <trkpt lat="49.57558" lon="4.72536">
        <ele>201</ele>
        <time>2023-04-07T23:11:36Z</time>
      </trkpt>
      <trkpt lat="49.57555" lon="4.7256">
        <ele>202</ele>
        <time>2023-04-07T23:11:49Z</time>
      </trkpt>
      <trkpt lat="49.57548" lon="4.72575">
        <ele>203</ele>
        <time>2023-04-07T23:11:58Z</time>
      </trkpt>
      <trkpt lat="49.57514" lon="4.72613">
        <ele>207</ele>
        <time>2023-04-07T23:12:32Z</time>
      </trkpt>
      <trkpt lat="49.57481" lon="4.72632">
        <ele>209</ele>
        <time>2023-04-07T23:13:00Z</time>
      </trkpt>
      <trkpt lat="49.57471" lon="4.72641">
        <ele>209</ele>
        <time>2023-04-07T23:13:09Z</time>
      </trkpt>
      <trkpt lat="49.57461" lon="4.72656">
        <ele>210</ele>
        <time>2023-04-07T23:13:20Z</time>
      </trkpt>
      <trkpt lat="49.57452" lon="4.72661">
        <ele>210</ele>
        <time>2023-04-07T23:13:28Z</time>
      </trkpt>
      <trkpt lat="49.57387" lon="4.7266">
        <ele>205</ele>
        <time>2023-04-07T23:14:20Z</time>
      </trkpt>
      <trkpt lat="49.57354" lon="4.72663">
        <ele>203</ele>
        <time>2023-04-07T23:14:47Z</time>
      </trkpt>
      <trkpt lat="49.57298" lon="4.72663">
        <ele>197</ele>
        <time>2023-04-07T23:15:31Z</time>
      </trkpt>
      <trkpt lat="49.5728" lon="4.72684">
        <ele>196</ele>
        <time>2023-04-07T23:15:49Z</time>
      </trkpt>
      <trkpt lat="49.57272" lon="4.72696">
        <ele>196</ele>
        <time>2023-04-07T23:15:58Z</time>
      </trkpt>
      <trkpt lat="49.57251" lon="4.72744">
        <ele>195</ele>
        <time>2023-04-07T23:16:28Z</time>
      </trkpt>
      <trkpt lat="49.57224" lon="4.72791">
        <ele>195</ele>
        <time>2023-04-07T23:17:01Z</time>
      </trkpt>
      <trkpt lat="49.57211" lon="4.72822">
        <ele>195</ele>
        <time>2023-04-07T23:17:20Z</time>
      </trkpt>
      <trkpt lat="49.57208" lon="4.72838">
        <ele>195</ele>
        <time>2023-04-07T23:17:29Z</time>
      </trkpt>
      <trkpt lat="49.57201" lon="4.72847">
        <ele>195</ele>
        <time>2023-04-07T23:17:36Z</time>
      </trkpt>
      <trkpt lat="49.57196" lon="4.72862">
        <ele>194</ele>
        <time>2023-04-07T23:17:45Z</time>
      </trkpt>
      <trkpt lat="49.57193" lon="4.72876">
        <ele>194</ele>
        <time>2023-04-07T23:17:53Z</time>
      </trkpt>
      <trkpt lat="49.57189" lon="4.72929">
        <ele>193</ele>
        <time>2023-04-07T23:18:20Z</time>
      </trkpt>
      <trkpt lat="49.5719" lon="4.72942">
        <ele>193</ele>
        <time>2023-04-07T23:18:27Z</time>
      </trkpt>
      <trkpt lat="49.57196" lon="4.72953">
        <ele>194</ele>
        <time>2023-04-07T23:18:35Z</time>
      </trkpt>
      <trkpt lat="49.57192" lon="4.72964">
        <ele>193</ele>
        <time>2023-04-07T23:18:41Z</time>
      </trkpt>
      <trkpt lat="49.57178" lon="4.72983">
        <ele>193</ele>
        <time>2023-04-07T23:18:56Z</time>
      </trkpt>
      <trkpt lat="49.57174" lon="4.72996">
        <ele>193</ele>
        <time>2023-04-07T23:19:04Z</time>
      </trkpt>
      <trkpt lat="49.57162" lon="4.7309">
        <ele>193</ele>
        <time>2023-04-07T23:19:53Z</time>
      </trkpt>
      <trkpt lat="49.57155" lon="4.73101">
        <ele>195</ele>
        <time>2023-04-07T23:20:01Z</time>
      </trkpt>
      <trkpt lat="49.57146" lon="4.73104">
        <ele>197</ele>
        <time>2023-04-07T23:20:09Z</time>
      </trkpt>
      <trkpt lat="49.57138" lon="4.73103">
        <ele>198</ele>
        <time>2023-04-07T23:20:15Z</time>
      </trkpt>
      <trkpt lat="49.57128" lon="4.73079">
        <ele>197</ele>
        <time>2023-04-07T23:20:30Z</time>
      </trkpt>
      <trkpt lat="49.57085" lon="4.73024">
        <ele>200</ele>
        <time>2023-04-07T23:21:15Z</time>
      </trkpt>
      <trkpt lat="49.5704" lon="4.72979">
        <ele>200</ele>
        <time>2023-04-07T23:21:58Z</time>
      </trkpt>
      <trkpt lat="49.57027" lon="4.7297">
        <ele>200</ele>
        <time>2023-04-07T23:22:09Z</time>
      </trkpt>
      <trkpt lat="49.56955" lon="4.72934">
        <ele>201</ele>
        <time>2023-04-07T23:23:10Z</time>
      </trkpt>
      <trkpt lat="49.56936" lon="4.72934">
        <ele>202</ele>
        <time>2023-04-07T23:23:25Z</time>
      </trkpt>
      <trkpt lat="49.56923" lon="4.72937">
        <ele>203</ele>
        <time>2023-04-07T23:23:35Z</time>
      </trkpt>
      <trkpt lat="49.56873" lon="4.72953">
        <ele>202</ele>
        <time>2023-04-07T23:24:16Z</time>
      </trkpt>
      <trkpt lat="49.56833" lon="4.72956">
        <ele>200</ele>
        <time>2023-04-07T23:24:48Z</time>
      </trkpt>
      <trkpt lat="49.568" lon="4.72965">
        <ele>200</ele>
        <time>2023-04-07T23:25:15Z</time>
      </trkpt>
      <trkpt lat="49.56787" lon="4.72972">
        <ele>200</ele>
        <time>2023-04-07T23:25:26Z</time>
      </trkpt>
      <trkpt lat="49.56769" lon="4.72971">
        <ele>199</ele>
        <time>2023-04-07T23:25:41Z</time>
      </trkpt>
      <trkpt lat="49.5674" lon="4.72985">
        <ele>198</ele>
        <time>2023-04-07T23:26:05Z</time>
      </trkpt>
      <trkpt lat="49.56725" lon="4.72995">
        <ele>196</ele>
        <time>2023-04-07T23:26:18Z</time>
      </trkpt>
      <trkpt lat="49.56703" lon="4.73035">
        <ele>194</ele>
        <time>2023-04-07T23:26:45Z</time>
      </trkpt>
      <trkpt lat="49.56696" lon="4.73055">
        <ele>193</ele>
        <time>2023-04-07T23:26:57Z</time>
      </trkpt>
      <trkpt lat="49.56659" lon="4.73114">
        <ele>189</ele>
        <time>2023-04-07T23:27:40Z</time>
      </trkpt>
      <trkpt lat="49.5662" lon="4.73165">
        <ele>189</ele>
        <time>2023-04-07T23:28:21Z</time>
      </trkpt>
      <trkpt lat="49.56581" lon="4.73225">
        <ele>194</ele>
        <time>2023-04-07T23:29:05Z</time>
      </trkpt>
      <trkpt lat="49.56564" lon="4.73241">
        <ele>194</ele>
        <time>2023-04-07T23:29:21Z</time>
      </trkpt>
      <trkpt lat="49.56513" lon="4.73281">
        <ele>192</ele>
        <time>2023-04-07T23:30:06Z</time>
      </trkpt>
      <trkpt lat="49.56389" lon="4.73362">
        <ele>192</ele>
        <time>2023-04-07T23:31:54Z</time>
      </trkpt>
      <trkpt lat="49.56349" lon="4.73398">
        <ele>194</ele>
        <time>2023-04-07T23:32:31Z</time>
      </trkpt>
      <trkpt lat="49.56254" lon="4.73455">
        <ele>193</ele>
        <time>2023-04-07T23:33:53Z</time>
      </trkpt>
      <trkpt lat="49.56184" lon="4.73508">
        <ele>190</ele>
        <time>2023-04-07T23:34:55Z</time>
      </trkpt>
      <trkpt lat="49.56158" lon="4.73533">
        <ele>189</ele>
        <time>2023-04-07T23:35:20Z</time>
      </trkpt>
      <trkpt lat="49.56111" lon="4.73571">
        <ele>186</ele>
        <time>2023-04-07T23:36:02Z</time>
      </trkpt>
      <trkpt lat="49.56089" lon="4.73591">
        <ele>183</ele>
        <time>2023-04-07T23:36:23Z</time>
      </trkpt>
      <trkpt lat="49.55997" lon="4.73707">
        <ele>180</ele>
        <time>2023-04-07T23:37:58Z</time>
      </trkpt>
      <trkpt lat="49.55952" lon="4.73756">
        <ele>179</ele>
        <time>2023-04-07T23:38:42Z</time>
      </trkpt>
      <trkpt lat="49.55901" lon="4.73794">
        <ele>178</ele>
        <time>2023-04-07T23:39:28Z</time>
      </trkpt>
      <trkpt lat="49.55805" lon="4.73852">
        <ele>179</ele>
        <time>2023-04-07T23:40:50Z</time>
      </trkpt>
      <trkpt lat="49.55783" lon="4.73868">
        <ele>181</ele>
        <time>2023-04-07T23:41:10Z</time>
      </trkpt>
      <trkpt lat="49.55767" lon="4.73886">
        <ele>183</ele>
        <time>2023-04-07T23:41:25Z</time>
      </trkpt>
      <trkpt lat="49.55754" lon="4.73908">
        <ele>184</ele>
        <time>2023-04-07T23:41:41Z</time>
      </trkpt>
      <trkpt lat="49.55743" lon="4.73929">
        <ele>186</ele>
        <time>2023-04-07T23:41:55Z</time>
      </trkpt>
      <trkpt lat="49.55722" lon="4.73984">
        <ele>188</ele>
        <time>2023-04-07T23:42:28Z</time>
      </trkpt>
      <trkpt lat="49.55711" lon="4.73996">
        <ele>188</ele>
        <time>2023-04-07T23:42:39Z</time>
      </trkpt>
      <trkpt lat="49.55671" lon="4.74017">
        <ele>188</ele>
        <time>2023-04-07T23:43:13Z</time>
      </trkpt>
      <trkpt lat="49.55645" lon="4.74035">
        <ele>187</ele>
        <time>2023-04-07T23:43:35Z</time>
      </trkpt>
      <trkpt lat="49.5562" lon="4.74048">
        <ele>186</ele>
        <time>2023-04-07T23:43:57Z</time>
      </trkpt>
      <trkpt lat="49.55609" lon="4.7405">
        <ele>185</ele>
        <time>2023-04-07T23:44:05Z</time>
      </trkpt>
      <trkpt lat="49.55588" lon="4.74049">
        <ele>184</ele>
        <time>2023-04-07T23:44:22Z</time>
      </trkpt>
      <trkpt lat="49.55554" lon="4.74038">
        <ele>182</ele>
        <time>2023-04-07T23:44:50Z</time>
      </trkpt>
      <trkpt lat="49.55537" lon="4.74037">
        <ele>181</ele>
        <time>2023-04-07T23:45:04Z</time>
      </trkpt>
      <trkpt lat="49.55504" lon="4.74042">
        <ele>179</ele>
        <time>2023-04-07T23:45:30Z</time>
      </trkpt>
      <trkpt lat="49.55501" lon="4.74055">
        <ele>178</ele>
        <time>2023-04-07T23:45:37Z</time>
      </trkpt>
      <trkpt lat="49.55509" lon="4.74068">
        <ele>179</ele>
        <time>2023-04-07T23:45:47Z</time>
      </trkpt>
      <trkpt lat="49.55518" lon="4.74091">
        <ele>179</ele>
        <time>2023-04-07T23:46:01Z</time>
      </trkpt>
      <trkpt lat="49.55525" lon="4.74137">
        <ele>180</ele>
        <time>2023-04-07T23:46:25Z</time>
      </trkpt>
      <trkpt lat="49.55532" lon="4.74277">
        <ele>180</ele>
        <time>2023-04-07T23:47:38Z</time>
      </trkpt>
      <trkpt lat="49.55534" lon="4.7435">
        <ele>178</ele>
        <time>2023-04-07T23:48:16Z</time>
      </trkpt>
      <trkpt lat="49.5553" lon="4.7472">
        <ele>177</ele>
        <time>2023-04-07T23:51:28Z</time>
      </trkpt>
      <trkpt lat="49.55522" lon="4.74761">
        <ele>177</ele>
        <time>2023-04-07T23:51:51Z</time>
      </trkpt>
      <trkpt lat="49.55508" lon="4.74802">
        <ele>177</ele>
        <time>2023-04-07T23:52:15Z</time>
      </trkpt>
      <trkpt lat="49.55383" lon="4.75112">
        <ele>176</ele>
        <time>2023-04-07T23:55:24Z</time>
      </trkpt>
      <trkpt lat="49.5539" lon="4.75261">
        <ele>180</ele>
        <time>2023-04-07T23:56:42Z</time>
      </trkpt>
      <trkpt lat="49.554" lon="4.75324">
        <ele>182</ele>
        <time>2023-04-07T23:57:16Z</time>
      </trkpt>
      <trkpt lat="49.55432" lon="4.75473">
        <ele>180</ele>
        <time>2023-04-07T23:58:37Z</time>
      </trkpt>
      <trkpt lat="49.5545" lon="4.75571">
        <ele>183</ele>
        <time>2023-04-07T23:59:30Z</time>
      </trkpt>
      <trkpt lat="49.55458" lon="4.75676">
        <ele>187</ele>
        <time>2023-04-08T00:00:25Z</time>
      </trkpt>
      <trkpt lat="49.55467" lon="4.75864">
        <ele>194</ele>
        <time>2023-04-08T00:02:03Z</time>
      </trkpt>
      <trkpt lat="49.55483" lon="4.76086">
        <ele>196</ele>
        <time>2023-04-08T00:03:59Z</time>
      </trkpt>
      <trkpt lat="49.55519" lon="4.76276">
        <ele>202</ele>
        <time>2023-04-08T00:05:42Z</time>
      </trkpt>
      <trkpt lat="49.55559" lon="4.76406">
        <ele>207</ele>
        <time>2023-04-08T00:06:56Z</time>
      </trkpt>
      <trkpt lat="49.55546" lon="4.76455">
        <ele>209</ele>
        <time>2023-04-08T00:07:24Z</time>
      </trkpt>
      <trkpt lat="49.55543" lon="4.76487">
        <ele>210</ele>
        <time>2023-04-08T00:07:41Z</time>
      </trkpt>
      <trkpt lat="49.55508" lon="4.76494">
        <ele>207</ele>
        <time>2023-04-08T00:08:09Z</time>
      </trkpt>
      <trkpt lat="49.5548" lon="4.76517">
        <ele>206</ele>
        <time>2023-04-08T00:08:34Z</time>
      </trkpt>
      <trkpt lat="49.5545" lon="4.76489">
        <ele>204</ele>
        <time>2023-04-08T00:09:02Z</time>
      </trkpt>
      <trkpt lat="49.55417" lon="4.76464">
        <ele>201</ele>
        <time>2023-04-08T00:09:32Z</time>
      </trkpt>
      <trkpt lat="49.55336" lon="4.76446">
        <ele>202</ele>
        <time>2023-04-08T00:10:37Z</time>
      </trkpt>
      <trkpt lat="49.55299" lon="4.76432">
        <ele>201</ele>
        <time>2023-04-08T00:11:08Z</time>
      </trkpt>
      <trkpt lat="49.55252" lon="4.76405">
        <ele>198</ele>
        <time>2023-04-08T00:11:48Z</time>
      </trkpt>
      <trkpt lat="49.55204" lon="4.76385">
        <ele>196</ele>
        <time>2023-04-08T00:12:28Z</time>
      </trkpt>
      <trkpt lat="49.55161" lon="4.764">
        <ele>195</ele>
        <time>2023-04-08T00:13:03Z</time>
      </trkpt>
      <trkpt lat="49.5511" lon="4.76436">
        <ele>195</ele>
        <time>2023-04-08T00:13:48Z</time>
      </trkpt>
      <trkpt lat="49.55055" lon="4.76484">
        <ele>194</ele>
        <time>2023-04-08T00:14:39Z</time>
      </trkpt>
      <trkpt lat="49.55012" lon="4.7654">
        <ele>191</ele>
        <time>2023-04-08T00:15:24Z</time>
      </trkpt>
      <trkpt lat="49.54927" lon="4.76602">
        <ele>190</ele>
        <time>2023-04-08T00:16:39Z</time>
      </trkpt>
      <trkpt lat="49.54883" lon="4.76619">
        <ele>190</ele>
        <time>2023-04-08T00:17:15Z</time>
      </trkpt>
      <trkpt lat="49.54826" lon="4.76646">
        <ele>189</ele>
        <time>2023-04-08T00:18:03Z</time>
      </trkpt>
      <trkpt lat="49.54772" lon="4.76677">
        <ele>186</ele>
        <time>2023-04-08T00:18:49Z</time>
      </trkpt>
      <trkpt lat="49.54723" lon="4.76676">
        <ele>184</ele>
        <time>2023-04-08T00:19:28Z</time>
      </trkpt>
      <trkpt lat="49.54678" lon="4.76682">
        <ele>185</ele>
        <time>2023-04-08T00:20:05Z</time>
      </trkpt>
      <trkpt lat="49.54664" lon="4.76692">
        <ele>186</ele>
        <time>2023-04-08T00:20:17Z</time>
      </trkpt>
      <trkpt lat="49.54652" lon="4.76724">
        <ele>188</ele>
        <time>2023-04-08T00:20:36Z</time>
      </trkpt>
      <trkpt lat="49.54643" lon="4.76779">
        <ele>193</ele>
        <time>2023-04-08T00:21:06Z</time>
      </trkpt>
      <trkpt lat="49.54644" lon="4.76834">
        <ele>199</ele>
        <time>2023-04-08T00:21:34Z</time>
      </trkpt>
      <trkpt lat="49.5465" lon="4.76907">
        <ele>207</ele>
        <time>2023-04-08T00:22:12Z</time>
      </trkpt>
      <trkpt lat="49.54679" lon="4.77112">
        <ele>228</ele>
        <time>2023-04-08T00:24:01Z</time>
      </trkpt>
      <trkpt lat="49.54681" lon="4.77239">
        <ele>234</ele>
        <time>2023-04-08T00:25:07Z</time>
      </trkpt>
      <trkpt lat="49.54676" lon="4.77296">
        <ele>232</ele>
        <time>2023-04-08T00:25:37Z</time>
      </trkpt>
      <trkpt lat="49.54572" lon="4.77282">
        <ele>231</ele>
        <time>2023-04-08T00:27:01Z</time>
      </trkpt>
      <trkpt lat="49.54571" lon="4.77354">
        <ele>227</ele>
        <time>2023-04-08T00:27:38Z</time>
      </trkpt>
      <trkpt lat="49.54563" lon="4.7738">
        <ele>224</ele>
        <time>2023-04-08T00:27:53Z</time>
      </trkpt>
      <trkpt lat="49.54524" lon="4.77412">
        <ele>219</ele>
        <time>2023-04-08T00:28:29Z</time>
      </trkpt>
      <trkpt lat="49.54386" lon="4.77536">
        <ele>202</ele>
        <time>2023-04-08T00:30:37Z</time>
      </trkpt>
      <trkpt lat="49.54308" lon="4.77598">
        <ele>195</ele>
        <time>2023-04-08T00:31:47Z</time>
      </trkpt>
      <trkpt lat="49.54206" lon="4.77693">
        <ele>190</ele>
        <time>2023-04-08T00:33:22Z</time>
      </trkpt>
      <trkpt lat="49.54091" lon="4.77666">
        <ele>199</ele>
        <time>2023-04-08T00:34:55Z</time>
      </trkpt>
      <trkpt lat="49.54058" lon="4.77666">
        <ele>203</ele>
        <time>2023-04-08T00:35:22Z</time>
      </trkpt>
      <trkpt lat="49.5393" lon="4.77838">
        <ele>200</ele>
        <time>2023-04-08T00:37:38Z</time>
      </trkpt>
      <trkpt lat="49.53881" lon="4.77898">
        <ele>199</ele>
        <time>2023-04-08T00:38:28Z</time>
      </trkpt>
      <trkpt lat="49.53812" lon="4.77977">
        <ele>199</ele>
        <time>2023-04-08T00:39:37Z</time>
      </trkpt>
      <trkpt lat="49.53724" lon="4.78068">
        <ele>200</ele>
        <time>2023-04-08T00:41:02Z</time>
      </trkpt>
      <trkpt lat="49.5366" lon="4.78139">
        <ele>202</ele>
        <time>2023-04-08T00:42:05Z</time>
      </trkpt>
      <trkpt lat="49.5363" lon="4.78198">
        <ele>201</ele>
        <time>2023-04-08T00:42:44Z</time>
      </trkpt>
      <trkpt lat="49.53577" lon="4.78287">
        <ele>200</ele>
        <time>2023-04-08T00:43:46Z</time>
      </trkpt>
      <trkpt lat="49.53505" lon="4.78445">
        <ele>199</ele>
        <time>2023-04-08T00:45:27Z</time>
      </trkpt>
      <trkpt lat="49.53522" lon="4.78639">
        <ele>188</ele>
        <time>2023-04-08T00:47:08Z</time>
      </trkpt>
      <trkpt lat="49.53527" lon="4.78745">
        <ele>185</ele>
        <time>2023-04-08T00:48:04Z</time>
      </trkpt>
      <trkpt lat="49.53524" lon="4.78827">
        <ele>184</ele>
        <time>2023-04-08T00:48:46Z</time>
      </trkpt>
      <trkpt lat="49.53517" lon="4.78896">
        <ele>185</ele>
        <time>2023-04-08T00:49:23Z</time>
      </trkpt>
      <trkpt lat="49.53525" lon="4.7899">
        <ele>182</ele>
        <time>2023-04-08T00:50:12Z</time>
      </trkpt>
      <trkpt lat="49.53522" lon="4.79009">
        <ele>181</ele>
        <time>2023-04-08T00:50:22Z</time>
      </trkpt>
      <trkpt lat="49.53484" lon="4.79156">
        <ele>180</ele>
        <time>2023-04-08T00:51:44Z</time>
      </trkpt>
      <trkpt lat="49.53468" lon="4.79259">
        <ele>179</ele>
        <time>2023-04-08T00:52:39Z</time>
      </trkpt>
      <trkpt lat="49.53442" lon="4.79377">
        <ele>177</ele>
        <time>2023-04-08T00:53:44Z</time>
      </trkpt>
      <trkpt lat="49.53438" lon="4.7941">
        <ele>176</ele>
        <time>2023-04-08T00:54:02Z</time>
      </trkpt>
      <trkpt lat="49.53437" lon="4.7945">
        <ele>176</ele>
        <time>2023-04-08T00:54:22Z</time>
      </trkpt>
      <trkpt lat="49.53442" lon="4.79487">
        <ele>175</ele>
        <time>2023-04-08T00:54:42Z</time>
      </trkpt>
      <trkpt lat="49.53449" lon="4.79506">
        <ele>175</ele>
        <time>2023-04-08T00:54:53Z</time>
      </trkpt>
      <trkpt lat="49.53519" lon="4.79653">
        <ele>176</ele>
        <time>2023-04-08T00:56:28Z</time>
      </trkpt>
      <trkpt lat="49.53539" lon="4.79711">
        <ele>175</ele>
        <time>2023-04-08T00:57:02Z</time>
      </trkpt>
      <trkpt lat="49.53542" lon="4.79726">
        <ele>175</ele>
        <time>2023-04-08T00:57:10Z</time>
      </trkpt>
      <trkpt lat="49.53534" lon="4.7974">
        <ele>175</ele>
        <time>2023-04-08T00:57:20Z</time>
      </trkpt>
      <trkpt lat="49.53468" lon="4.79765">
        <ele>177</ele>
        <time>2023-04-08T00:58:14Z</time>
      </trkpt>
      <trkpt lat="49.52839" lon="4.79978">
        <ele>174</ele>
        <time>2023-04-08T01:06:50Z</time>
      </trkpt>
      <trkpt lat="49.52663" lon="4.8003">
        <ele>162</ele>
        <time>2023-04-08T01:09:14Z</time>
      </trkpt>
      <trkpt lat="49.5259" lon="4.80028">
        <ele>163</ele>
        <time>2023-04-08T01:10:12Z</time>
      </trkpt>
      <trkpt lat="49.51622" lon="4.79921">
        <ele>165</ele>
        <time>2023-04-08T01:23:09Z</time>
      </trkpt>
      <trkpt lat="49.51613" lon="4.79933">
        <ele>165</ele>
        <time>2023-04-08T01:23:19Z</time>
      </trkpt>
      <trkpt lat="49.51611" lon="4.79981">
        <ele>165</ele>
        <time>2023-04-08T01:23:44Z</time>
      </trkpt>
      <trkpt lat="49.51625" lon="4.80282">
        <ele>163</ele>
        <time>2023-04-08T01:26:21Z</time>
      </trkpt>
      <trkpt lat="49.51662" lon="4.80645">
        <ele>163</ele>
        <time>2023-04-08T01:29:32Z</time>
      </trkpt>
      <trkpt lat="49.51753" lon="4.81294">
        <ele>163</ele>
        <time>2023-04-08T01:35:17Z</time>
      </trkpt>
      <trkpt lat="49.51754" lon="4.81318">
        <ele>163</ele>
        <time>2023-04-08T01:35:29Z</time>
      </trkpt>
      <trkpt lat="49.51747" lon="4.8134">
        <ele>163</ele>
        <time>2023-04-08T01:35:42Z</time>
      </trkpt>
      <trkpt lat="49.5174" lon="4.81351">
        <ele>163</ele>
        <time>2023-04-08T01:35:50Z</time>
      </trkpt>
      <trkpt lat="49.51661" lon="4.81431">
        <ele>164</ele>
        <time>2023-04-08T01:37:06Z</time>
      </trkpt>
      <trkpt lat="49.51592" lon="4.81484">
        <ele>162</ele>
        <time>2023-04-08T01:38:07Z</time>
      </trkpt>
      <trkpt lat="49.51544" lon="4.81526">
        <ele>165</ele>
        <time>2023-04-08T01:38:52Z</time>
      </trkpt>
      <trkpt lat="49.51298" lon="4.81822">
        <ele>177</ele>
        <time>2023-04-08T01:43:01Z</time>
      </trkpt>
      <trkpt lat="49.51118" lon="4.82123">
        <ele>184</ele>
        <time>2023-04-08T01:46:34Z</time>
      </trkpt>
      <trkpt lat="49.51094" lon="4.82151">
        <ele>184</ele>
        <time>2023-04-08T01:46:58Z</time>
      </trkpt>
      <trkpt lat="49.51066" lon="4.82173">
        <ele>183</ele>
        <time>2023-04-08T01:47:24Z</time>
      </trkpt>
      <trkpt lat="49.50554" lon="4.82438">
        <ele>165</ele>
        <time>2023-04-08T01:54:36Z</time>
      </trkpt>
      <trkpt lat="49.50529" lon="4.82455">
        <ele>166</ele>
        <time>2023-04-08T01:54:58Z</time>
      </trkpt>
      <trkpt lat="49.50518" lon="4.8247">
        <ele>166</ele>
        <time>2023-04-08T01:55:10Z</time>
      </trkpt>
      <trkpt lat="49.50517" lon="4.82487">
        <ele>166</ele>
        <time>2023-04-08T01:55:19Z</time>
      </trkpt>
      <trkpt lat="49.50527" lon="4.82505">
        <ele>166</ele>
        <time>2023-04-08T01:55:31Z</time>
      </trkpt>
      <trkpt lat="49.50597" lon="4.82583">
        <ele>166</ele>
        <time>2023-04-08T01:56:40Z</time>
      </trkpt>
      <trkpt lat="49.50616" lon="4.82613">
        <ele>167</ele>
        <time>2023-04-08T01:57:02Z</time>
      </trkpt>
      <trkpt lat="49.50618" lon="4.82628">
        <ele>167</ele>
        <time>2023-04-08T01:57:10Z</time>
      </trkpt>
      <trkpt lat="49.5061" lon="4.82641">
        <ele>167</ele>
        <time>2023-04-08T01:57:19Z</time>
      </trkpt>
      <trkpt lat="49.50558" lon="4.82697">
        <ele>170</ele>
        <time>2023-04-08T01:58:10Z</time>
      </trkpt>
      <trkpt lat="49.50551" lon="4.82711">
        <ele>172</ele>
        <time>2023-04-08T01:58:19Z</time>
      </trkpt>
      <trkpt lat="49.50552" lon="4.82731">
        <ele>173</ele>
        <time>2023-04-08T01:58:29Z</time>
      </trkpt>
      <trkpt lat="49.50574" lon="4.82843">
        <ele>176</ele>
        <time>2023-04-08T01:59:30Z</time>
      </trkpt>
      <trkpt lat="49.50629" lon="4.83035">
        <ele>174</ele>
        <time>2023-04-08T02:01:19Z</time>
      </trkpt>
      <trkpt lat="49.50643" lon="4.8314">
        <ele>174</ele>
        <time>2023-04-08T02:02:15Z</time>
      </trkpt>
      <trkpt lat="49.50651" lon="4.83286">
        <ele>174</ele>
        <time>2023-04-08T02:03:31Z</time>
      </trkpt>
      <trkpt lat="49.5064" lon="4.83544">
        <ele>173</ele>
        <time>2023-04-08T02:05:46Z</time>
      </trkpt>
      <trkpt lat="49.50654" lon="4.83686">
        <ele>174</ele>
        <time>2023-04-08T02:07:00Z</time>
      </trkpt>
      <trkpt lat="49.50654" lon="4.8372">
        <ele>175</ele>
        <time>2023-04-08T02:07:18Z</time>
      </trkpt>
      <trkpt lat="49.50644" lon="4.83854">
        <ele>180</ele>
        <time>2023-04-08T02:08:28Z</time>
      </trkpt>
      <trkpt lat="49.5063" lon="4.83935">
        <ele>182</ele>
        <time>2023-04-08T02:09:12Z</time>
      </trkpt>
      <trkpt lat="49.50588" lon="4.84063">
        <ele>180</ele>
        <time>2023-04-08T02:10:26Z</time>
      </trkpt>
      <trkpt lat="49.50565" lon="4.84149">
        <ele>184</ele>
        <time>2023-04-08T02:11:15Z</time>
      </trkpt>
      <trkpt lat="49.5055" lon="4.84224">
        <ele>188</ele>
        <time>2023-04-08T02:11:56Z</time>
      </trkpt>
      <trkpt lat="49.50541" lon="4.84247">
        <ele>188</ele>
        <time>2023-04-08T02:12:10Z</time>
      </trkpt>
      <trkpt lat="49.50532" lon="4.84259">
        <ele>188</ele>
        <time>2023-04-08T02:12:19Z</time>
      </trkpt>
      <trkpt lat="49.50516" lon="4.84265">
        <ele>188</ele>
        <time>2023-04-08T02:12:32Z</time>
      </trkpt>
      <trkpt lat="49.50465" lon="4.84264">
        <ele>191</ele>
        <time>2023-04-08T02:13:13Z</time>
      </trkpt>
      <trkpt lat="49.50447" lon="4.84267">
        <ele>194</ele>
        <time>2023-04-08T02:13:28Z</time>
      </trkpt>
      <trkpt lat="49.50439" lon="4.84256">
        <ele>195</ele>
        <time>2023-04-08T02:13:36Z</time>
      </trkpt>
      <trkpt lat="49.50454" lon="4.84239">
        <ele>193</ele>
        <time>2023-04-08T02:13:51Z</time>
      </trkpt>
      <trkpt lat="49.50461" lon="4.8426">
        <ele>192</ele>
        <time>2023-04-08T02:14:03Z</time>
      </trkpt>
      <trkpt lat="49.50472" lon="4.84265">
        <ele>190</ele>
        <time>2023-04-08T02:14:13Z</time>
      </trkpt>
      <trkpt lat="49.50525" lon="4.84265">
        <ele>188</ele>
        <time>2023-04-08T02:14:55Z</time>
      </trkpt>
      <trkpt lat="49.50536" lon="4.84256">
        <ele>189</ele>
        <time>2023-04-08T02:15:05Z</time>
      </trkpt>
      <trkpt lat="49.50544" lon="4.84239">
        <ele>188</ele>
        <time>2023-04-08T02:15:16Z</time>
      </trkpt>
      <trkpt lat="49.50551" lon="4.84216">
        <ele>187</ele>
        <time>2023-04-08T02:15:29Z</time>
      </trkpt>
      <trkpt lat="49.50584" lon="4.84068">
        <ele>180</ele>
        <time>2023-04-08T02:16:50Z</time>
      </trkpt>
      <trkpt lat="49.50631" lon="4.83929">
        <ele>182</ele>
        <time>2023-04-08T02:18:12Z</time>
      </trkpt>
      <trkpt lat="49.50638" lon="4.8388">
        <ele>181</ele>
        <time>2023-04-08T02:18:38Z</time>
      </trkpt>
      <trkpt lat="49.50643" lon="4.83867">
        <ele>181</ele>
        <time>2023-04-08T02:18:46Z</time>
      </trkpt>
      <trkpt lat="49.50648" lon="4.83881">
        <ele>182</ele>
        <time>2023-04-08T02:18:54Z</time>
      </trkpt>
      <trkpt lat="49.50646" lon="4.83948">
        <ele>185</ele>
        <time>2023-04-08T02:19:29Z</time>
      </trkpt>
      <trkpt lat="49.50606" lon="4.84313">
        <ele>198</ele>
        <time>2023-04-08T02:22:41Z</time>
      </trkpt>
      <trkpt lat="49.50547" lon="4.84427">
        <ele>201</ele>
        <time>2023-04-08T02:23:57Z</time>
      </trkpt>
      <trkpt lat="49.50532" lon="4.84453">
        <ele>201</ele>
        <time>2023-04-08T02:24:15Z</time>
      </trkpt>
      <trkpt lat="49.50513" lon="4.84479">
        <ele>202</ele>
        <time>2023-04-08T02:24:36Z</time>
      </trkpt>
      <trkpt lat="49.50484" lon="4.84509">
        <ele>201</ele>
        <time>2023-04-08T02:25:04Z</time>
      </trkpt>
      <trkpt lat="49.50389" lon="4.84569">
        <ele>198</ele>
        <time>2023-04-08T02:26:26Z</time>
      </trkpt>
      <trkpt lat="49.50367" lon="4.84593">
        <ele>197</ele>
        <time>2023-04-08T02:26:47Z</time>
      </trkpt>
      <trkpt lat="49.50358" lon="4.8461">
        <ele>197</ele>
        <time>2023-04-08T02:26:59Z</time>
      </trkpt>
      <trkpt lat="49.50338" lon="4.84665">
        <ele>196</ele>
        <time>2023-04-08T02:27:32Z</time>
      </trkpt>
      <trkpt lat="49.50315" lon="4.84761">
        <ele>198</ele>
        <time>2023-04-08T02:28:25Z</time>
      </trkpt>
      <trkpt lat="49.50299" lon="4.84814">
        <ele>199</ele>
        <time>2023-04-08T02:28:55Z</time>
      </trkpt>
      <trkpt lat="49.50283" lon="4.84848">
        <ele>199</ele>
        <time>2023-04-08T02:29:17Z</time>
      </trkpt>
      <trkpt lat="49.50253" lon="4.84865">
        <ele>198</ele>
        <time>2023-04-08T02:29:43Z</time>
      </trkpt>
      <trkpt lat="49.50243" lon="4.84868">
        <ele>199</ele>
        <time>2023-04-08T02:29:51Z</time>
      </trkpt>
      <trkpt lat="49.50233" lon="4.84865">
        <ele>200</ele>
        <time>2023-04-08T02:29:59Z</time>
      </trkpt>
      <trkpt lat="49.50223" lon="4.84855">
        <ele>200</ele>
        <time>2023-04-08T02:30:09Z</time>
      </trkpt>
      <trkpt lat="49.50161" lon="4.8477">
        <ele>208</ele>
        <time>2023-04-08T02:31:15Z</time>
      </trkpt>
      <trkpt lat="49.50149" lon="4.84742">
        <ele>210</ele>
        <time>2023-04-08T02:31:32Z</time>
      </trkpt>
      <trkpt lat="49.50121" lon="4.84659">
        <ele>215</ele>
        <time>2023-04-08T02:32:21Z</time>
      </trkpt>
      <trkpt lat="49.50117" lon="4.84633">
        <ele>216</ele>
        <time>2023-04-08T02:32:35Z</time>
      </trkpt>
      <trkpt lat="49.50116" lon="4.84603">
        <ele>217</ele>
        <time>2023-04-08T02:32:51Z</time>
      </trkpt>
      <trkpt lat="49.50119" lon="4.84522">
        <ele>217</ele>
        <time>2023-04-08T02:33:33Z</time>
      </trkpt>
      <trkpt lat="49.50122" lon="4.84492">
        <ele>217</ele>
        <time>2023-04-08T02:33:49Z</time>
      </trkpt>
      <trkpt lat="49.50129" lon="4.8446">
        <ele>217</ele>
        <time>2023-04-08T02:34:06Z</time>
      </trkpt>
      <trkpt lat="49.50151" lon="4.84384">
        <ele>217</ele>
        <time>2023-04-08T02:34:49Z</time>
      </trkpt>
      <trkpt lat="49.50178" lon="4.84267">
        <ele>218</ele>
        <time>2023-04-08T02:35:54Z</time>
      </trkpt>
      <trkpt lat="49.50193" lon="4.84213">
        <ele>218</ele>
        <time>2023-04-08T02:36:25Z</time>
      </trkpt>
      <trkpt lat="49.50274" lon="4.83858">
        <ele>217</ele>
        <time>2023-04-08T02:39:40Z</time>
      </trkpt>
      <trkpt lat="49.50342" lon="4.83615">
        <ele>212</ele>
        <time>2023-04-08T02:41:58Z</time>
      </trkpt>
      <trkpt lat="49.50344" lon="4.83597">
        <ele>211</ele>
        <time>2023-04-08T02:42:07Z</time>
      </trkpt>
      <trkpt lat="49.50357" lon="4.83263">
        <ele>202</ele>
        <time>2023-04-08T02:45:01Z</time>
      </trkpt>
      <trkpt lat="49.50355" lon="4.83029">
        <ele>191</ele>
        <time>2023-04-08T02:47:03Z</time>
      </trkpt>
      <trkpt lat="49.50345" lon="4.8292">
        <ele>186</ele>
        <time>2023-04-08T02:48:00Z</time>
      </trkpt>
      <trkpt lat="49.50336" lon="4.82878">
        <ele>184</ele>
        <time>2023-04-08T02:48:23Z</time>
      </trkpt>
      <trkpt lat="49.50303" lon="4.82775">
        <ele>178</ele>
        <time>2023-04-08T02:49:23Z</time>
      </trkpt>
      <trkpt lat="49.50297" lon="4.82749">
        <ele>177</ele>
        <time>2023-04-08T02:49:37Z</time>
      </trkpt>
      <trkpt lat="49.50299" lon="4.82729">
        <ele>176</ele>
        <time>2023-04-08T02:49:48Z</time>
      </trkpt>
      <trkpt lat="49.5032" lon="4.82672">
        <ele>175</ele>
        <time>2023-04-08T02:50:22Z</time>
      </trkpt>
      <trkpt lat="49.50341" lon="4.82648">
        <ele>174</ele>
        <time>2023-04-08T02:50:43Z</time>
      </trkpt>
      <trkpt lat="49.50434" lon="4.82599">
        <ele>170</ele>
        <time>2023-04-08T02:52:01Z</time>
      </trkpt>
      <trkpt lat="49.50443" lon="4.82589">
        <ele>169</ele>
        <time>2023-04-08T02:52:10Z</time>
      </trkpt>
      <trkpt lat="49.50442" lon="4.82571">
        <ele>168</ele>
        <time>2023-04-08T02:52:20Z</time>
      </trkpt>
      <trkpt lat="49.50435" lon="4.8256">
        <ele>168</ele>
        <time>2023-04-08T02:52:28Z</time>
      </trkpt>
      <trkpt lat="49.50423" lon="4.8255">
        <ele>168</ele>
        <time>2023-04-08T02:52:39Z</time>
      </trkpt>
      <trkpt lat="49.50379" lon="4.82525">
        <ele>168</ele>
        <time>2023-04-08T02:53:16Z</time>
      </trkpt>
      <trkpt lat="49.50361" lon="4.82507">
        <ele>167</ele>
        <time>2023-04-08T02:53:33Z</time>
      </trkpt>
      <trkpt lat="49.50318" lon="4.82448">
        <ele>166</ele>
        <time>2023-04-08T02:54:20Z</time>
      </trkpt>
      <trkpt lat="49.50238" lon="4.82357">
        <ele>165</ele>
        <time>2023-04-08T02:55:39Z</time>
      </trkpt>
      <trkpt lat="49.49468" lon="4.81381">
        <ele>163</ele>
        <time>2023-04-08T03:08:58Z</time>
      </trkpt>
      <trkpt lat="49.49442" lon="4.8136">
        <ele>163</ele>
        <time>2023-04-08T03:09:21Z</time>
      </trkpt>
      <trkpt lat="49.49428" lon="4.81355">
        <ele>164</ele>
        <time>2023-04-08T03:09:33Z</time>
      </trkpt>
      <trkpt lat="49.49397" lon="4.81355">
        <ele>164</ele>
        <time>2023-04-08T03:09:58Z</time>
      </trkpt>
      <trkpt lat="49.48936" lon="4.81439">
        <ele>173</ele>
        <time>2023-04-08T03:16:09Z</time>
      </trkpt>
      <trkpt lat="49.48675" lon="4.81475">
        <ele>183</ele>
        <time>2023-04-08T03:19:39Z</time>
      </trkpt>
      <trkpt lat="49.48619" lon="4.81463">
        <ele>186</ele>
        <time>2023-04-08T03:20:24Z</time>
      </trkpt>
      <trkpt lat="49.48298" lon="4.81339">
        <ele>197</ele>
        <time>2023-04-08T03:24:49Z</time>
      </trkpt>
      <trkpt lat="49.48275" lon="4.81324">
        <ele>197</ele>
        <time>2023-04-08T03:25:09Z</time>
      </trkpt>
      <trkpt lat="49.48263" lon="4.81328">
        <ele>198</ele>
        <time>2023-04-08T03:25:19Z</time>
      </trkpt>
      <trkpt lat="49.48219" lon="4.81365">
        <ele>200</ele>
        <time>2023-04-08T03:25:59Z</time>
      </trkpt>
      <trkpt lat="49.48208" lon="4.81368">
        <ele>201</ele>
        <time>2023-04-08T03:26:08Z</time>
      </trkpt>
      <trkpt lat="49.48199" lon="4.81366">
        <ele>201</ele>
        <time>2023-04-08T03:26:16Z</time>
      </trkpt>
      <trkpt lat="49.48179" lon="4.81378">
        <ele>203</ele>
        <time>2023-04-08T03:26:33Z</time>
      </trkpt>
      <trkpt lat="49.48144" lon="4.81361">
        <ele>206</ele>
        <time>2023-04-08T03:27:02Z</time>
      </trkpt>
      <trkpt lat="49.48126" lon="4.81332">
        <ele>208</ele>
        <time>2023-04-08T03:27:23Z</time>
      </trkpt>
      <trkpt lat="49.48123" lon="4.81319">
        <ele>208</ele>
        <time>2023-04-08T03:27:30Z</time>
      </trkpt>
      <trkpt lat="49.48121" lon="4.81285">
        <ele>207</ele>
        <time>2023-04-08T03:27:48Z</time>
      </trkpt>
      <trkpt lat="49.48079" lon="4.81165">
        <ele>205</ele>
        <time>2023-04-08T03:28:59Z</time>
      </trkpt>
      <trkpt lat="49.48038" lon="4.8103">
        <ele>203</ele>
        <time>2023-04-08T03:30:16Z</time>
      </trkpt>
      <trkpt lat="49.48008" lon="4.80957">
        <ele>206</ele>
        <time>2023-04-08T03:31:01Z</time>
      </trkpt>
      <trkpt lat="49.4799" lon="4.809">
        <ele>205</ele>
        <time>2023-04-08T03:31:34Z</time>
      </trkpt>
      <trkpt lat="49.47985" lon="4.80893">
        <ele>205</ele>
        <time>2023-04-08T03:31:40Z</time>
      </trkpt>
      <trkpt lat="49.4795" lon="4.808">
        <ele>204</ele>
        <time>2023-04-08T03:32:36Z</time>
      </trkpt>
      <trkpt lat="49.47948" lon="4.80784">
        <ele>204</ele>
        <time>2023-04-08T03:32:44Z</time>
      </trkpt>
      <trkpt lat="49.47934" lon="4.80753">
        <ele>206</ele>
        <time>2023-04-08T03:33:04Z</time>
      </trkpt>
      <trkpt lat="49.4793" lon="4.80738">
        <ele>206</ele>
        <time>2023-04-08T03:33:12Z</time>
      </trkpt>
      <trkpt lat="49.47909" lon="4.80699">
        <ele>206</ele>
        <time>2023-04-08T03:33:38Z</time>
      </trkpt>
      <trkpt lat="49.47905" lon="4.80668">
        <ele>204</ele>
        <time>2023-04-08T03:33:55Z</time>
      </trkpt>
      <trkpt lat="49.47872" lon="4.80584">
        <ele>201</ele>
        <time>2023-04-08T03:34:46Z</time>
      </trkpt>
      <trkpt lat="49.47865" lon="4.80557">
        <ele>200</ele>
        <time>2023-04-08T03:35:01Z</time>
      </trkpt>
      <trkpt lat="49.47851" lon="4.80533">
        <ele>198</ele>
        <time>2023-04-08T03:35:18Z</time>
      </trkpt>
      <trkpt lat="49.47815" lon="4.80414">
        <ele>198</ele>
        <time>2023-04-08T03:36:26Z</time>
      </trkpt>
      <trkpt lat="49.47812" lon="4.80389">
        <ele>197</ele>
        <time>2023-04-08T03:36:39Z</time>
      </trkpt>
      <trkpt lat="49.47808" lon="4.80383">
        <ele>197</ele>
        <time>2023-04-08T03:36:44Z</time>
      </trkpt>
      <trkpt lat="49.47799" lon="4.80327">
        <ele>197</ele>
        <time>2023-04-08T03:37:14Z</time>
      </trkpt>
      <trkpt lat="49.47767" lon="4.80249">
        <ele>198</ele>
        <time>2023-04-08T03:38:02Z</time>
      </trkpt>
      <trkpt lat="49.47739" lon="4.80158">
        <ele>196</ele>
        <time>2023-04-08T03:38:54Z</time>
      </trkpt>
      <trkpt lat="49.47693" lon="4.80039">
        <ele>200</ele>
        <time>2023-04-08T03:40:06Z</time>
      </trkpt>
      <trkpt lat="49.47682" lon="4.80002">
        <ele>200</ele>
        <time>2023-04-08T03:40:27Z</time>
      </trkpt>
      <trkpt lat="49.47672" lon="4.79979">
        <ele>200</ele>
        <time>2023-04-08T03:40:42Z</time>
      </trkpt>
      <trkpt lat="49.4765" lon="4.79947">
        <ele>200</ele>
        <time>2023-04-08T03:41:06Z</time>
      </trkpt>
      <trkpt lat="49.47644" lon="4.79917">
        <ele>200</ele>
        <time>2023-04-08T03:41:22Z</time>
      </trkpt>
      <trkpt lat="49.47635" lon="4.79893">
        <ele>201</ele>
        <time>2023-04-08T03:41:37Z</time>
      </trkpt>
      <trkpt lat="49.4762" lon="4.79866">
        <ele>204</ele>
        <time>2023-04-08T03:41:55Z</time>
      </trkpt>
      <trkpt lat="49.4756" lon="4.79805">
        <ele>214</ele>
        <time>2023-04-08T03:42:53Z</time>
      </trkpt>
      <trkpt lat="49.47483" lon="4.79681">
        <ele>218</ele>
        <time>2023-04-08T03:44:22Z</time>
      </trkpt>
      <trkpt lat="49.4744" lon="4.79619">
        <ele>215</ele>
        <time>2023-04-08T03:45:09Z</time>
      </trkpt>
      <trkpt lat="49.47431" lon="4.79597">
        <ele>215</ele>
        <time>2023-04-08T03:45:23Z</time>
      </trkpt>
      <trkpt lat="49.4742" lon="4.79558">
        <ele>214</ele>
        <time>2023-04-08T03:45:45Z</time>
      </trkpt>
      <trkpt lat="49.47407" lon="4.79531">
        <ele>214</ele>
        <time>2023-04-08T03:46:02Z</time>
      </trkpt>
      <trkpt lat="49.474" lon="4.79493">
        <ele>214</ele>
        <time>2023-04-08T03:46:23Z</time>
      </trkpt>
      <trkpt lat="49.47389" lon="4.79397">
        <ele>214</ele>
        <time>2023-04-08T03:47:14Z</time>
      </trkpt>
      <trkpt lat="49.4737" lon="4.79288">
        <ele>215</ele>
        <time>2023-04-08T03:48:12Z</time>
      </trkpt>
      <trkpt lat="49.4736" lon="4.79211">
        <ele>215</ele>
        <time>2023-04-08T03:48:53Z</time>
      </trkpt>
      <trkpt lat="49.47308" lon="4.78956">
        <ele>205</ele>
        <time>2023-04-08T03:51:12Z</time>
      </trkpt>
      <trkpt lat="49.47298" lon="4.78898">
        <ele>204</ele>
        <time>2023-04-08T03:51:44Z</time>
      </trkpt>
      <trkpt lat="49.47294" lon="4.78826">
        <ele>206</ele>
        <time>2023-04-08T03:52:21Z</time>
      </trkpt>
      <trkpt lat="49.47283" lon="4.78759">
        <ele>203</ele>
        <time>2023-04-08T03:52:57Z</time>
      </trkpt>
      <trkpt lat="49.47268" lon="4.78682">
        <ele>199</ele>
        <time>2023-04-08T03:53:39Z</time>
      </trkpt>
      <trkpt lat="49.47251" lon="4.78616">
        <ele>196</ele>
        <time>2023-04-08T03:54:16Z</time>
      </trkpt>
      <trkpt lat="49.47243" lon="4.78547">
        <ele>196</ele>
        <time>2023-04-08T03:54:52Z</time>
      </trkpt>
      <trkpt lat="49.47228" lon="4.78475">
        <ele>198</ele>
        <time>2023-04-08T03:55:32Z</time>
      </trkpt>
      <trkpt lat="49.4722" lon="4.78415">
        <ele>200</ele>
        <time>2023-04-08T03:56:03Z</time>
      </trkpt>
      <trkpt lat="49.47212" lon="4.78381">
        <ele>202</ele>
        <time>2023-04-08T03:56:22Z</time>
      </trkpt>
      <trkpt lat="49.47176" lon="4.78268">
        <ele>207</ele>
        <time>2023-04-08T03:57:28Z</time>
      </trkpt>
      <trkpt lat="49.4716" lon="4.78191">
        <ele>208</ele>
        <time>2023-04-08T03:58:10Z</time>
      </trkpt>
      <trkpt lat="49.47133" lon="4.78082">
        <ele>204</ele>
        <time>2023-04-08T03:59:11Z</time>
      </trkpt>
      <trkpt lat="49.47098" lon="4.77977">
        <ele>199</ele>
        <time>2023-04-08T04:00:12Z</time>
      </trkpt>
      <trkpt lat="49.4708" lon="4.77932">
        <ele>198</ele>
        <time>2023-04-08T04:00:39Z</time>
      </trkpt>
      <trkpt lat="49.47052" lon="4.77887">
        <ele>200</ele>
        <time>2023-04-08T04:01:12Z</time>
      </trkpt>
      <trkpt lat="49.47036" lon="4.7784">
        <ele>202</ele>
        <time>2023-04-08T04:01:39Z</time>
      </trkpt>
      <trkpt lat="49.4702" lon="4.77816">
        <ele>201</ele>
        <time>2023-04-08T04:01:57Z</time>
      </trkpt>
      <trkpt lat="49.47006" lon="4.77788">
        <ele>201</ele>
        <time>2023-04-08T04:02:16Z</time>
      </trkpt>
      <trkpt lat="49.46996" lon="4.77761">
        <ele>201</ele>
        <time>2023-04-08T04:02:32Z</time>
      </trkpt>
      <trkpt lat="49.46994" lon="4.77729">
        <ele>203</ele>
        <time>2023-04-08T04:02:49Z</time>
      </trkpt>
      <trkpt lat="49.47008" lon="4.77652">
        <ele>210</ele>
        <time>2023-04-08T04:03:30Z</time>
      </trkpt>
      <trkpt lat="49.4701" lon="4.77615">
        <ele>211</ele>
        <time>2023-04-08T04:03:50Z</time>
      </trkpt>
      <trkpt lat="49.47002" lon="4.77586">
        <ele>211</ele>
        <time>2023-04-08T04:04:06Z</time>
      </trkpt>
      <trkpt lat="49.46972" lon="4.77511">
        <ele>212</ele>
        <time>2023-04-08T04:04:52Z</time>
      </trkpt>
      <trkpt lat="49.4696" lon="4.77454">
        <ele>212</ele>
        <time>2023-04-08T04:05:23Z</time>
      </trkpt>
      <trkpt lat="49.4692" lon="4.77363">
        <ele>213</ele>
        <time>2023-04-08T04:06:20Z</time>
      </trkpt>
      <trkpt lat="49.46876" lon="4.77272">
        <ele>209</ele>
        <time>2023-04-08T04:07:19Z</time>
      </trkpt>
      <trkpt lat="49.46832" lon="4.77171">
        <ele>203</ele>
        <time>2023-04-08T04:08:22Z</time>
      </trkpt>
      <trkpt lat="49.46817" lon="4.77129">
        <ele>205</ele>
        <time>2023-04-08T04:08:47Z</time>
      </trkpt>
      <trkpt lat="49.4681" lon="4.771">
        <ele>206</ele>
        <time>2023-04-08T04:09:03Z</time>
      </trkpt>
      <trkpt lat="49.46783" lon="4.76926">
        <ele>216</ele>
        <time>2023-04-08T04:10:37Z</time>
      </trkpt>
      <trkpt lat="49.46742" lon="4.76808">
        <ele>215</ele>
        <time>2023-04-08T04:11:46Z</time>
      </trkpt>
      <trkpt lat="49.4673" lon="4.76782">
        <ele>215</ele>
        <time>2023-04-08T04:12:03Z</time>
      </trkpt>
      <trkpt lat="49.46682" lon="4.7664">
        <ele>221</ele>
        <time>2023-04-08T04:13:26Z</time>
      </trkpt>
      <trkpt lat="49.46632" lon="4.76531">
        <ele>222</ele>
        <time>2023-04-08T04:14:35Z</time>
      </trkpt>
      <trkpt lat="49.46621" lon="4.765">
        <ele>222</ele>
        <time>2023-04-08T04:14:54Z</time>
      </trkpt>
      <trkpt lat="49.46586" lon="4.76432">
        <ele>223</ele>
        <time>2023-04-08T04:15:39Z</time>
      </trkpt>
      <trkpt lat="49.46555" lon="4.76363">
        <ele>222</ele>
        <time>2023-04-08T04:16:23Z</time>
      </trkpt>
      <trkpt lat="49.46501" lon="4.76191">
        <ele>216</ele>
        <time>2023-04-08T04:18:02Z</time>
      </trkpt>
      <trkpt lat="49.46475" lon="4.76126">
        <ele>213</ele>
        <time>2023-04-08T04:18:42Z</time>
      </trkpt>
      <trkpt lat="49.46472" lon="4.76107">
        <ele>213</ele>
        <time>2023-04-08T04:18:52Z</time>
      </trkpt>
      <trkpt lat="49.46458" lon="4.76073">
        <ele>211</ele>
        <time>2023-04-08T04:19:13Z</time>
      </trkpt>
      <trkpt lat="49.46436" lon="4.75997">
        <ele>209</ele>
        <time>2023-04-08T04:19:56Z</time>
      </trkpt>
      <trkpt lat="49.46419" lon="4.75958">
        <ele>208</ele>
        <time>2023-04-08T04:20:21Z</time>
      </trkpt>
      <trkpt lat="49.46388" lon="4.75871">
        <ele>209</ele>
        <time>2023-04-08T04:21:12Z</time>
      </trkpt>
      <trkpt lat="49.46383" lon="4.75848">
        <ele>209</ele>
        <time>2023-04-08T04:21:25Z</time>
      </trkpt>
      <trkpt lat="49.46351" lon="4.75619">
        <ele>210</ele>
        <time>2023-04-08T04:23:27Z</time>
      </trkpt>
      <trkpt lat="49.46347" lon="4.75603">
        <ele>210</ele>
        <time>2023-04-08T04:23:36Z</time>
      </trkpt>
      <trkpt lat="49.46331" lon="4.75574">
        <ele>209</ele>
        <time>2023-04-08T04:23:55Z</time>
      </trkpt>
      <trkpt lat="49.46317" lon="4.75512">
        <ele>205</ele>
        <time>2023-04-08T04:24:30Z</time>
      </trkpt>
      <trkpt lat="49.46308" lon="4.75331">
        <ele>203</ele>
        <time>2023-04-08T04:26:04Z</time>
      </trkpt>
      <trkpt lat="49.46309" lon="4.75272">
        <ele>205</ele>
        <time>2023-04-08T04:26:35Z</time>
      </trkpt>
      <trkpt lat="49.46321" lon="4.75243">
        <ele>206</ele>
        <time>2023-04-08T04:26:53Z</time>
      </trkpt>
      <trkpt lat="49.46318" lon="4.7523">
        <ele>206</ele>
        <time>2023-04-08T04:27:00Z</time>
      </trkpt>
      <trkpt lat="49.46308" lon="4.7523">
        <ele>206</ele>
        <time>2023-04-08T04:27:08Z</time>
      </trkpt>
      <trkpt lat="49.46298" lon="4.75237">
        <ele>206</ele>
        <time>2023-04-08T04:27:17Z</time>
      </trkpt>
      <trkpt lat="49.45993" lon="4.75537">
        <ele>199</ele>
        <time>2023-04-08T04:32:06Z</time>
      </trkpt>
      <trkpt lat="49.45985" lon="4.75527">
        <ele>198</ele>
        <time>2023-04-08T04:32:15Z</time>
      </trkpt>
      <trkpt lat="49.4597" lon="4.75487">
        <ele>198</ele>
        <time>2023-04-08T04:32:39Z</time>
      </trkpt>
      <trkpt lat="49.45969" lon="4.75474">
        <ele>198</ele>
        <time>2023-04-08T04:32:46Z</time>
      </trkpt>
      <trkpt lat="49.45981" lon="4.75464">
        <ele>199</ele>
        <time>2023-04-08T04:32:57Z</time>
      </trkpt>
      <trkpt lat="49.46027" lon="4.75413">
        <ele>201</ele>
        <time>2023-04-08T04:33:42Z</time>
      </trkpt>
      <trkpt lat="49.46038" lon="4.75387">
        <ele>203</ele>
        <time>2023-04-08T04:33:58Z</time>
      </trkpt>
      <trkpt lat="49.4605" lon="4.75318">
        <ele>206</ele>
        <time>2023-04-08T04:34:35Z</time>
      </trkpt>
      <trkpt lat="49.4605" lon="4.75302">
        <ele>206</ele>
        <time>2023-04-08T04:34:44Z</time>
      </trkpt>
      <trkpt lat="49.46047" lon="4.75285">
        <ele>207</ele>
        <time>2023-04-08T04:34:53Z</time>
      </trkpt>
      <trkpt lat="49.45972" lon="4.75081">
        <ele>208</ele>
        <time>2023-04-08T04:36:55Z</time>
      </trkpt>
      <trkpt lat="49.45957" lon="4.7505">
        <ele>209</ele>
        <time>2023-04-08T04:37:15Z</time>
      </trkpt>
      <trkpt lat="49.45947" lon="4.75039">
        <ele>209</ele>
        <time>2023-04-08T04:37:25Z</time>
      </trkpt>
      <trkpt lat="49.45938" lon="4.75034">
        <ele>210</ele>
        <time>2023-04-08T04:37:32Z</time>
      </trkpt>
      <trkpt lat="49.45913" lon="4.75026">
        <ele>209</ele>
        <time>2023-04-08T04:37:53Z</time>
      </trkpt>
      <trkpt lat="49.45873" lon="4.75006">
        <ele>207</ele>
        <time>2023-04-08T04:38:26Z</time>
      </trkpt>
      <trkpt lat="49.45821" lon="4.74968">
        <ele>205</ele>
        <time>2023-04-08T04:39:13Z</time>
      </trkpt>
      <trkpt lat="49.45723" lon="4.74869">
        <ele>202</ele>
        <time>2023-04-08T04:40:46Z</time>
      </trkpt>
      <trkpt lat="49.45709" lon="4.74861">
        <ele>202</ele>
        <time>2023-04-08T04:40:58Z</time>
      </trkpt>
      <trkpt lat="49.45667" lon="4.74846">
        <ele>201</ele>
        <time>2023-04-08T04:41:33Z</time>
      </trkpt>
      <trkpt lat="49.4559" lon="4.74809">
        <ele>198</ele>
        <time>2023-04-08T04:42:37Z</time>
      </trkpt>
      <trkpt lat="49.45543" lon="4.74794">
        <ele>198</ele>
        <time>2023-04-08T04:43:16Z</time>
      </trkpt>
      <trkpt lat="49.4548" lon="4.74788">
        <ele>199</ele>
        <time>2023-04-08T04:44:06Z</time>
      </trkpt>
      <trkpt lat="49.45464" lon="4.74784">
        <ele>199</ele>
        <time>2023-04-08T04:44:19Z</time>
      </trkpt>
      <trkpt lat="49.45447" lon="4.74786">
        <ele>200</ele>
        <time>2023-04-08T04:44:33Z</time>
      </trkpt>
      <trkpt lat="49.45414" lon="4.74783">
        <ele>201</ele>
        <time>2023-04-08T04:45:00Z</time>
      </trkpt>
      <trkpt lat="49.45362" lon="4.74771">
        <ele>200</ele>
        <time>2023-04-08T04:45:42Z</time>
      </trkpt>
      <trkpt lat="49.45349" lon="4.7477">
        <ele>199</ele>
        <time>2023-04-08T04:45:52Z</time>
      </trkpt>
      <trkpt lat="49.45295" lon="4.7479">
        <ele>197</ele>
        <time>2023-04-08T04:46:37Z</time>
      </trkpt>
      <trkpt lat="49.45278" lon="4.74801">
        <ele>197</ele>
        <time>2023-04-08T04:46:51Z</time>
      </trkpt>
      <trkpt lat="49.45267" lon="4.74801">
        <ele>196</ele>
        <time>2023-04-08T04:47:00Z</time>
      </trkpt>
      <trkpt lat="49.45216" lon="4.74817">
        <ele>195</ele>
        <time>2023-04-08T04:47:42Z</time>
      </trkpt>
      <trkpt lat="49.45188" lon="4.74831">
        <ele>195</ele>
        <time>2023-04-08T04:48:05Z</time>
      </trkpt>
      <trkpt lat="49.45177" lon="4.74845">
        <ele>196</ele>
        <time>2023-04-08T04:48:17Z</time>
      </trkpt>
      <trkpt lat="49.45149" lon="4.74892">
        <ele>201</ele>
        <time>2023-04-08T04:48:50Z</time>
      </trkpt>
      <trkpt lat="49.45128" lon="4.74913">
        <ele>203</ele>
        <time>2023-04-08T04:49:10Z</time>
      </trkpt>
      <trkpt lat="49.4509" lon="4.74934">
        <ele>204</ele>
        <time>2023-04-08T04:49:42Z</time>
      </trkpt>
      <trkpt lat="49.45081" lon="4.74942">
        <ele>204</ele>
        <time>2023-04-08T04:49:51Z</time>
      </trkpt>
      <trkpt lat="49.45062" lon="4.74951">
        <ele>204</ele>
        <time>2023-04-08T04:50:07Z</time>
      </trkpt>
      <trkpt lat="49.45033" lon="4.7497">
        <ele>204</ele>
        <time>2023-04-08T04:50:32Z</time>
      </trkpt>
      <trkpt lat="49.45023" lon="4.74974">
        <ele>205</ele>
        <time>2023-04-08T04:50:40Z</time>
      </trkpt>
      <trkpt lat="49.44978" lon="4.7498">
        <ele>204</ele>
        <time>2023-04-08T04:51:16Z</time>
      </trkpt>
      <trkpt lat="49.44956" lon="4.74994">
        <ele>204</ele>
        <time>2023-04-08T04:51:35Z</time>
      </trkpt>
      <trkpt lat="49.44938" lon="4.75002">
        <ele>204</ele>
        <time>2023-04-08T04:51:50Z</time>
      </trkpt>
      <trkpt lat="49.44927" lon="4.75009">
        <ele>203</ele>
        <time>2023-04-08T04:52:00Z</time>
      </trkpt>
      <trkpt lat="49.44872" lon="4.75062">
        <ele>203</ele>
        <time>2023-04-08T04:52:52Z</time>
      </trkpt>
      <trkpt lat="49.44861" lon="4.75088">
        <ele>202</ele>
        <time>2023-04-08T04:53:08Z</time>
      </trkpt>
      <trkpt lat="49.44853" lon="4.75095">
        <ele>201</ele>
        <time>2023-04-08T04:53:15Z</time>
      </trkpt>
      <trkpt lat="49.44792" lon="4.75125">
        <ele>199</ele>
        <time>2023-04-08T04:54:07Z</time>
      </trkpt>
      <trkpt lat="49.44769" lon="4.75132">
        <ele>198</ele>
        <time>2023-04-08T04:54:25Z</time>
      </trkpt>
      <trkpt lat="49.44689" lon="4.75145">
        <ele>196</ele>
        <time>2023-04-08T04:55:30Z</time>
      </trkpt>
      <trkpt lat="49.44661" lon="4.75152">
        <ele>195</ele>
        <time>2023-04-08T04:55:53Z</time>
      </trkpt>
      <trkpt lat="49.4458" lon="4.75181">
        <ele>192</ele>
        <time>2023-04-08T04:56:59Z</time>
      </trkpt>
      <trkpt lat="49.44539" lon="4.75191">
        <ele>191</ele>
        <time>2023-04-08T04:57:32Z</time>
      </trkpt>
      <trkpt lat="49.44514" lon="4.7519">
        <ele>191</ele>
        <time>2023-04-08T04:57:52Z</time>
      </trkpt>
      <trkpt lat="49.44462" lon="4.75176">
        <ele>190</ele>
        <time>2023-04-08T04:58:35Z</time>
      </trkpt>
      <trkpt lat="49.44361" lon="4.75122">
        <ele>189</ele>
        <time>2023-04-08T05:00:00Z</time>
      </trkpt>
      <trkpt lat="49.44235" lon="4.75077">
        <ele>184</ele>
        <time>2023-04-08T05:01:44Z</time>
      </trkpt>
      <trkpt lat="49.4413" lon="4.75072">
        <ele>176</ele>
        <time>2023-04-08T05:03:08Z</time>
      </trkpt>
      <trkpt lat="49.44061" lon="4.75058">
        <ele>174</ele>
        <time>2023-04-08T05:04:04Z</time>
      </trkpt>
      <trkpt lat="49.44021" lon="4.75063">
        <ele>174</ele>
        <time>2023-04-08T05:04:36Z</time>
      </trkpt>
      <trkpt lat="49.43976" lon="4.75077">
        <ele>177</ele>
        <time>2023-04-08T05:05:13Z</time>
      </trkpt>
      <trkpt lat="49.43957" lon="4.7509">
        <ele>181</ele>
        <time>2023-04-08T05:05:29Z</time>
      </trkpt>
      <trkpt lat="49.43946" lon="4.75107">
        <ele>182</ele>
        <time>2023-04-08T05:05:42Z</time>
      </trkpt>
      <trkpt lat="49.43941" lon="4.7517">
        <ele>181</ele>
        <time>2023-04-08T05:06:15Z</time>
      </trkpt>
      <trkpt lat="49.43944" lon="4.75187">
        <ele>181</ele>
        <time>2023-04-08T05:06:24Z</time>
      </trkpt>
      <trkpt lat="49.43939" lon="4.75202">
        <ele>182</ele>
        <time>2023-04-08T05:06:33Z</time>
      </trkpt>
      <trkpt lat="49.43931" lon="4.75197">
        <ele>183</ele>
        <time>2023-04-08T05:06:40Z</time>
      </trkpt>
      <trkpt lat="49.43904" lon="4.75153">
        <ele>186</ele>
        <time>2023-04-08T05:07:11Z</time>
      </trkpt>
      <trkpt lat="49.43879" lon="4.7513">
        <ele>187</ele>
        <time>2023-04-08T05:07:34Z</time>
      </trkpt>
      <trkpt lat="49.43831" lon="4.75102">
        <ele>189</ele>
        <time>2023-04-08T05:08:16Z</time>
      </trkpt>
      <trkpt lat="49.43769" lon="4.75059">
        <ele>188</ele>
        <time>2023-04-08T05:09:10Z</time>
      </trkpt>
      <trkpt lat="49.43747" lon="4.75033">
        <ele>189</ele>
        <time>2023-04-08T05:09:32Z</time>
      </trkpt>
      <trkpt lat="49.4373" lon="4.75001">
        <ele>193</ele>
        <time>2023-04-08T05:09:54Z</time>
      </trkpt>
      <trkpt lat="49.43682" lon="4.74863">
        <ele>195</ele>
        <time>2023-04-08T05:11:15Z</time>
      </trkpt>
      <trkpt lat="49.43647" lon="4.74726">
        <ele>192</ele>
        <time>2023-04-08T05:12:32Z</time>
      </trkpt>
      <trkpt lat="49.43638" lon="4.74704">
        <ele>192</ele>
        <time>2023-04-08T05:12:45Z</time>
      </trkpt>
      <trkpt lat="49.4345" lon="4.74042">
        <ele>180</ele>
        <time>2023-04-08T05:19:02Z</time>
      </trkpt>
      <trkpt lat="49.43419" lon="4.73914">
        <ele>178</ele>
        <time>2023-04-08T05:20:13Z</time>
      </trkpt>
      <trkpt lat="49.4341" lon="4.73908">
        <ele>178</ele>
        <time>2023-04-08T05:20:20Z</time>
      </trkpt>
      <trkpt lat="49.43397" lon="4.73911">
        <ele>177</ele>
        <time>2023-04-08T05:20:31Z</time>
      </trkpt>
      <trkpt lat="49.43215" lon="4.73979">
        <ele>170</ele>
        <time>2023-04-08T05:23:01Z</time>
      </trkpt>
      <trkpt lat="49.43154" lon="4.73981">
        <ele>165</ele>
        <time>2023-04-08T05:23:50Z</time>
      </trkpt>
      <trkpt lat="49.43136" lon="4.73975">
        <ele>165</ele>
        <time>2023-04-08T05:24:05Z</time>
      </trkpt>
      <trkpt lat="49.43107" lon="4.73956">
        <ele>164</ele>
        <time>2023-04-08T05:24:30Z</time>
      </trkpt>
      <trkpt lat="49.43072" lon="4.73929">
        <ele>164</ele>
        <time>2023-04-08T05:25:01Z</time>
      </trkpt>
      <trkpt lat="49.43033" lon="4.7389">
        <ele>162</ele>
        <time>2023-04-08T05:25:38Z</time>
      </trkpt>
      <trkpt lat="49.43017" lon="4.73878">
        <ele>161</ele>
        <time>2023-04-08T05:25:53Z</time>
      </trkpt>
      <trkpt lat="49.43005" lon="4.73863">
        <ele>162</ele>
        <time>2023-04-08T05:26:05Z</time>
      </trkpt>
      <trkpt lat="49.42996" lon="4.73833">
        <ele>164</ele>
        <time>2023-04-08T05:26:22Z</time>
      </trkpt>
      <trkpt lat="49.42983" lon="4.73825">
        <ele>161</ele>
        <time>2023-04-08T05:26:33Z</time>
      </trkpt>
      <trkpt lat="49.42969" lon="4.73823">
        <ele>157</ele>
        <time>2023-04-08T05:26:45Z</time>
      </trkpt>
      <trkpt lat="49.4294" lon="4.73814">
        <ele>150</ele>
        <time>2023-04-08T05:27:08Z</time>
      </trkpt>
      <trkpt lat="49.42931" lon="4.73814">
        <ele>148</ele>
        <time>2023-04-08T05:27:16Z</time>
      </trkpt>
      <trkpt lat="49.42906" lon="4.73867">
        <ele>138</ele>
        <time>2023-04-08T05:27:50Z</time>
      </trkpt>
      <trkpt lat="49.4286" lon="4.73915">
        <ele>125</ele>
        <time>2023-04-08T05:28:34Z</time>
      </trkpt>
      <trkpt lat="49.42846" lon="4.73926">
        <ele>122</ele>
        <time>2023-04-08T05:28:47Z</time>
      </trkpt>
      <trkpt lat="49.42826" lon="4.73936">
        <ele>119</ele>
        <time>2023-04-08T05:29:04Z</time>
      </trkpt>
      <trkpt lat="49.42787" lon="4.73947">
        <ele>115</ele>
        <time>2023-04-08T05:29:35Z</time>
      </trkpt>
      <trkpt lat="49.42753" lon="4.73963">
        <ele>112</ele>
        <time>2023-04-08T05:30:04Z</time>
      </trkpt>
      <trkpt lat="49.42668" lon="4.74019">
        <ele>107</ele>
        <time>2023-04-08T05:31:18Z</time>
      </trkpt>
      <trkpt lat="49.42656" lon="4.74036">
        <ele>106</ele>
        <time>2023-04-08T05:31:31Z</time>
      </trkpt>
      <trkpt lat="49.42642" lon="4.74082">
        <ele>105</ele>
        <time>2023-04-08T05:31:57Z</time>
      </trkpt>
      <trkpt lat="49.42623" lon="4.74197">
        <ele>103</ele>
        <time>2023-04-08T05:32:59Z</time>
      </trkpt>
      <trkpt lat="49.42604" lon="4.74266">
        <ele>102</ele>
        <time>2023-04-08T05:33:38Z</time>
      </trkpt>
      <trkpt lat="49.42585" lon="4.74294">
        <ele>102</ele>
        <time>2023-04-08T05:33:59Z</time>
      </trkpt>
      <trkpt lat="49.42577" lon="4.743">
        <ele>102</ele>
        <time>2023-04-08T05:34:06Z</time>
      </trkpt>
      <trkpt lat="49.42561" lon="4.74307">
        <ele>103</ele>
        <time>2023-04-08T05:34:20Z</time>
      </trkpt>
      <trkpt lat="49.42517" lon="4.74315">
        <ele>105</ele>
        <time>2023-04-08T05:34:55Z</time>
      </trkpt>
      <trkpt lat="49.42512" lon="4.74326">
        <ele>105</ele>
        <time>2023-04-08T05:35:02Z</time>
      </trkpt>
      <trkpt lat="49.4252" lon="4.74338">
        <ele>105</ele>
        <time>2023-04-08T05:35:11Z</time>
      </trkpt>
      <trkpt lat="49.42634" lon="4.74451">
        <ele>108</ele>
        <time>2023-04-08T05:37:00Z</time>
      </trkpt>
      <trkpt lat="49.42652" lon="4.74466">
        <ele>109</ele>
        <time>2023-04-08T05:37:16Z</time>
      </trkpt>
      <trkpt lat="49.42658" lon="4.74477">
        <ele>109</ele>
        <time>2023-04-08T05:37:24Z</time>
      </trkpt>
      <trkpt lat="49.42658" lon="4.74488">
        <ele>110</ele>
        <time>2023-04-08T05:37:29Z</time>
      </trkpt>
      <trkpt lat="49.42618" lon="4.74528">
        <ele>110</ele>
        <time>2023-04-08T05:38:08Z</time>
      </trkpt>
      <trkpt lat="49.42591" lon="4.74549">
        <ele>110</ele>
        <time>2023-04-08T05:38:32Z</time>
      </trkpt>
      <trkpt lat="49.42495" lon="4.74606">
        <ele>112</ele>
        <time>2023-04-08T05:39:54Z</time>
      </trkpt>
      <trkpt lat="49.42469" lon="4.7461">
        <ele>114</ele>
        <time>2023-04-08T05:40:15Z</time>
      </trkpt>
      <trkpt lat="49.42449" lon="4.74606">
        <ele>115</ele>
        <time>2023-04-08T05:40:31Z</time>
      </trkpt>
      <trkpt lat="49.42385" lon="4.74562">
        <ele>120</ele>
        <time>2023-04-08T05:41:27Z</time>
      </trkpt>
      <trkpt lat="49.42367" lon="4.74563">
        <ele>123</ele>
        <time>2023-04-08T05:41:42Z</time>
      </trkpt>
      <trkpt lat="49.4231" lon="4.746">
        <ele>130</ele>
        <time>2023-04-08T05:42:31Z</time>
      </trkpt>
      <trkpt lat="49.42299" lon="4.74603">
        <ele>131</ele>
        <time>2023-04-08T05:42:40Z</time>
      </trkpt>
      <trkpt lat="49.42238" lon="4.74609">
        <ele>137</ele>
        <time>2023-04-08T05:43:29Z</time>
      </trkpt>
      <trkpt lat="49.4217" lon="4.74638">
        <ele>143</ele>
        <time>2023-04-08T05:44:26Z</time>
      </trkpt>
      <trkpt lat="49.42102" lon="4.74671">
        <ele>148</ele>
        <time>2023-04-08T05:45:23Z</time>
      </trkpt>
      <trkpt lat="49.41943" lon="4.74751">
        <ele>162</ele>
        <time>2023-04-08T05:47:37Z</time>
      </trkpt>
      <trkpt lat="49.41783" lon="4.74837">
        <ele>164</ele>
        <time>2023-04-08T05:49:53Z</time>
      </trkpt>
      <trkpt lat="49.41701" lon="4.7487">
        <ele>163</ele>
        <time>2023-04-08T05:51:00Z</time>
      </trkpt>
      <trkpt lat="49.41651" lon="4.74885">
        <ele>163</ele>
        <time>2023-04-08T05:51:41Z</time>
      </trkpt>
      <trkpt lat="49.41596" lon="4.74919">
        <ele>162</ele>
        <time>2023-04-08T05:52:29Z</time>
      </trkpt>
      <trkpt lat="49.41535" lon="4.74961">
        <ele>163</ele>
        <time>2023-04-08T05:53:22Z</time>
      </trkpt>
      <trkpt lat="49.41305" lon="4.75214">
        <ele>167</ele>
        <time>2023-04-08T05:57:09Z</time>
      </trkpt>
      <trkpt lat="49.41285" lon="4.75239">
        <ele>167</ele>
        <time>2023-04-08T05:57:29Z</time>
      </trkpt>
      <trkpt lat="49.4128" lon="4.75252">
        <ele>168</ele>
        <time>2023-04-08T05:57:37Z</time>
      </trkpt>
      <trkpt lat="49.41281" lon="4.75267">
        <ele>167</ele>
        <time>2023-04-08T05:57:45Z</time>
      </trkpt>
      <trkpt lat="49.41306" lon="4.75352">
        <ele>166</ele>
        <time>2023-04-08T05:58:34Z</time>
      </trkpt>
      <trkpt lat="49.41307" lon="4.75367">
        <ele>166</ele>
        <time>2023-04-08T05:58:41Z</time>
      </trkpt>
      <trkpt lat="49.413" lon="4.75383">
        <ele>166</ele>
        <time>2023-04-08T05:58:51Z</time>
      </trkpt>
      <trkpt lat="49.41244" lon="4.75433">
        <ele>169</ele>
        <time>2023-04-08T05:59:43Z</time>
      </trkpt>
      <trkpt lat="49.41183" lon="4.75471">
        <ele>169</ele>
        <time>2023-04-08T06:00:36Z</time>
      </trkpt>
      <trkpt lat="49.41036" lon="4.75556">
        <ele>168</ele>
        <time>2023-04-08T06:02:42Z</time>
      </trkpt>
      <trkpt lat="49.41027" lon="4.75548">
        <ele>168</ele>
        <time>2023-04-08T06:02:50Z</time>
      </trkpt>
      <trkpt lat="49.41007" lon="4.75518">
        <ele>168</ele>
        <time>2023-04-08T06:03:12Z</time>
      </trkpt>
      <trkpt lat="49.40997" lon="4.75515">
        <ele>169</ele>
        <time>2023-04-08T06:03:21Z</time>
      </trkpt>
      <trkpt lat="49.40934" lon="4.75557">
        <ele>176</ele>
        <time>2023-04-08T06:04:16Z</time>
      </trkpt>
      <trkpt lat="49.40928" lon="4.75556">
        <ele>177</ele>
        <time>2023-04-08T06:04:20Z</time>
      </trkpt>
      <trkpt lat="49.40911" lon="4.7556">
        <ele>178</ele>
        <time>2023-04-08T06:04:34Z</time>
      </trkpt>
      <trkpt lat="49.40899" lon="4.75585">
        <ele>180</ele>
        <time>2023-04-08T06:04:50Z</time>
      </trkpt>
      <trkpt lat="49.40876" lon="4.75617">
        <ele>180</ele>
        <time>2023-04-08T06:05:15Z</time>
      </trkpt>
      <trkpt lat="49.40835" lon="4.75689">
        <ele>183</ele>
        <time>2023-04-08T06:06:05Z</time>
      </trkpt>
      <trkpt lat="49.40758" lon="4.75785">
        <ele>183</ele>
        <time>2023-04-08T06:07:24Z</time>
      </trkpt>
      <trkpt lat="49.40722" lon="4.75826">
        <ele>185</ele>
        <time>2023-04-08T06:08:00Z</time>
      </trkpt>
      <trkpt lat="49.40713" lon="4.75823">
        <ele>185</ele>
        <time>2023-04-08T06:08:08Z</time>
      </trkpt>
      <trkpt lat="49.4071" lon="4.75658">
        <ele>180</ele>
        <time>2023-04-08T06:09:34Z</time>
      </trkpt>
      <trkpt lat="49.40712" lon="4.75593">
        <ele>179</ele>
        <time>2023-04-08T06:10:08Z</time>
      </trkpt>
      <trkpt lat="49.40739" lon="4.75356">
        <ele>172</ele>
        <time>2023-04-08T06:12:13Z</time>
      </trkpt>
      <trkpt lat="49.40745" lon="4.75232">
        <ele>168</ele>
        <time>2023-04-08T06:13:18Z</time>
      </trkpt>
      <trkpt lat="49.40758" lon="4.7516">
        <ele>166</ele>
        <time>2023-04-08T06:13:57Z</time>
      </trkpt>
      <trkpt lat="49.40818" lon="4.74973">
        <ele>168</ele>
        <time>2023-04-08T06:15:45Z</time>
      </trkpt>
      <trkpt lat="49.40901" lon="4.74687">
        <ele>163</ele>
        <time>2023-04-08T06:18:28Z</time>
      </trkpt>
      <trkpt lat="49.40897" lon="4.74626">
        <ele>161</ele>
        <time>2023-04-08T06:19:00Z</time>
      </trkpt>
      <trkpt lat="49.40891" lon="4.74592">
        <ele>160</ele>
        <time>2023-04-08T06:19:19Z</time>
      </trkpt>
      <trkpt lat="49.40869" lon="4.74522">
        <ele>158</ele>
        <time>2023-04-08T06:19:59Z</time>
      </trkpt>
      <trkpt lat="49.40847" lon="4.74468">
        <ele>157</ele>
        <time>2023-04-08T06:20:32Z</time>
      </trkpt>
      <trkpt lat="49.40803" lon="4.74332">
        <ele>153</ele>
        <time>2023-04-08T06:21:52Z</time>
      </trkpt>
      <trkpt lat="49.40797" lon="4.74299">
        <ele>151</ele>
        <time>2023-04-08T06:22:09Z</time>
      </trkpt>
      <trkpt lat="49.40799" lon="4.74283">
        <ele>150</ele>
        <time>2023-04-08T06:22:18Z</time>
      </trkpt>
      <trkpt lat="49.40809" lon="4.74245">
        <ele>148</ele>
        <time>2023-04-08T06:22:39Z</time>
      </trkpt>
      <trkpt lat="49.40841" lon="4.74172">
        <ele>145</ele>
        <time>2023-04-08T06:23:25Z</time>
      </trkpt>
      <trkpt lat="49.40851" lon="4.74158">
        <ele>144</ele>
        <time>2023-04-08T06:23:36Z</time>
      </trkpt>
      <trkpt lat="49.40921" lon="4.74084">
        <ele>134</ele>
        <time>2023-04-08T06:24:44Z</time>
      </trkpt>
      <trkpt lat="49.40929" lon="4.7407">
        <ele>131</ele>
        <time>2023-04-08T06:24:54Z</time>
      </trkpt>
      <trkpt lat="49.40939" lon="4.74039">
        <ele>127</ele>
        <time>2023-04-08T06:25:12Z</time>
      </trkpt>
      <trkpt lat="49.40945" lon="4.74">
        <ele>122</ele>
        <time>2023-04-08T06:25:33Z</time>
      </trkpt>
      <trkpt lat="49.40946" lon="4.73961">
        <ele>120</ele>
        <time>2023-04-08T06:25:53Z</time>
      </trkpt>
      <trkpt lat="49.40939" lon="4.73857">
        <ele>116</ele>
        <time>2023-04-08T06:26:47Z</time>
      </trkpt>
      <trkpt lat="49.40932" lon="4.73819">
        <ele>116</ele>
        <time>2023-04-08T06:27:08Z</time>
      </trkpt>
      <trkpt lat="49.4092" lon="4.73784">
        <ele>116</ele>
        <time>2023-04-08T06:27:29Z</time>
      </trkpt>
      <trkpt lat="49.40892" lon="4.73729">
        <ele>117</ele>
        <time>2023-04-08T06:28:05Z</time>
      </trkpt>
      <trkpt lat="49.40866" lon="4.7367">
        <ele>121</ele>
        <time>2023-04-08T06:28:42Z</time>
      </trkpt>
      <trkpt lat="49.40842" lon="4.73579">
        <ele>127</ele>
        <time>2023-04-08T06:29:33Z</time>
      </trkpt>
      <trkpt lat="49.40815" lon="4.73425">
        <ele>141</ele>
        <time>2023-04-08T06:30:56Z</time>
      </trkpt>
      <trkpt lat="49.40814" lon="4.73396">
        <ele>142</ele>
        <time>2023-04-08T06:31:11Z</time>
      </trkpt>
      <trkpt lat="49.40791" lon="4.73301">
        <ele>142</ele>
        <time>2023-04-08T06:32:04Z</time>
      </trkpt>
      <trkpt lat="49.40788" lon="4.7328">
        <ele>142</ele>
        <time>2023-04-08T06:32:15Z</time>
      </trkpt>
      <trkpt lat="49.40784" lon="4.73225">
        <ele>140</ele>
        <time>2023-04-08T06:32:44Z</time>
      </trkpt>
      <trkpt lat="49.40792" lon="4.73136">
        <ele>137</ele>
        <time>2023-04-08T06:33:31Z</time>
      </trkpt>
      <trkpt lat="49.40802" lon="4.73092">
        <ele>136</ele>
        <time>2023-04-08T06:33:55Z</time>
      </trkpt>
      <trkpt lat="49.40834" lon="4.72995">
        <ele>137</ele>
        <time>2023-04-08T06:34:52Z</time>
      </trkpt>
      <trkpt lat="49.40827" lon="4.72889">
        <ele>134</ele>
        <time>2023-04-08T06:35:48Z</time>
      </trkpt>
      <trkpt lat="49.40837" lon="4.72687">
        <ele>128</ele>
        <time>2023-04-08T06:37:33Z</time>
      </trkpt>
      <trkpt lat="49.40836" lon="4.72671">
        <ele>127</ele>
        <time>2023-04-08T06:37:41Z</time>
      </trkpt>
      <trkpt lat="49.40826" lon="4.7266">
        <ele>126</ele>
        <time>2023-04-08T06:37:51Z</time>
      </trkpt>
      <trkpt lat="49.40668" lon="4.72589">
        <ele>109</ele>
        <time>2023-04-08T06:40:03Z</time>
      </trkpt>
      <trkpt lat="49.40654" lon="4.7257">
        <ele>108</ele>
        <time>2023-04-08T06:40:18Z</time>
      </trkpt>
      <trkpt lat="49.40649" lon="4.72557">
        <ele>108</ele>
        <time>2023-04-08T06:40:26Z</time>
      </trkpt>
      <trkpt lat="49.4065" lon="4.72508">
        <ele>107</ele>
        <time>2023-04-08T06:40:51Z</time>
      </trkpt>
      <trkpt lat="49.40657" lon="4.72463">
        <ele>106</ele>
        <time>2023-04-08T06:41:16Z</time>
      </trkpt>
      <trkpt lat="49.4069" lon="4.72353">
        <ele>101</ele>
        <time>2023-04-08T06:42:19Z</time>
      </trkpt>
      <trkpt lat="49.40692" lon="4.72325">
        <ele>100</ele>
        <time>2023-04-08T06:42:33Z</time>
      </trkpt>
      <trkpt lat="49.40687" lon="4.7226">
        <ele>98</ele>
        <time>2023-04-08T06:43:07Z</time>
      </trkpt>
      <trkpt lat="49.40631" lon="4.71812">
        <ele>91</ele>
        <time>2023-04-08T06:47:05Z</time>
      </trkpt>
      <trkpt lat="49.40607" lon="4.71795">
        <ele>91</ele>
        <time>2023-04-08T06:47:26Z</time>
      </trkpt>
      <trkpt lat="49.40591" lon="4.71764">
        <ele>91</ele>
        <time>2023-04-08T06:47:47Z</time>
      </trkpt>
      <trkpt lat="49.40404" lon="4.71457">
        <ele>93</ele>
        <time>2023-04-08T06:51:26Z</time>
      </trkpt>
      <trkpt lat="49.40335" lon="4.71336">
        <ele>93</ele>
        <time>2023-04-08T06:52:50Z</time>
      </trkpt>
      <trkpt lat="49.40249" lon="4.71205">
        <ele>92</ele>
        <time>2023-04-08T06:54:27Z</time>
      </trkpt>
      <trkpt lat="49.40068" lon="4.709">
        <ele>92</ele>
        <time>2023-04-08T06:58:02Z</time>
      </trkpt>
      <trkpt lat="49.40022" lon="4.70838">
        <ele>93</ele>
        <time>2023-04-08T06:58:51Z</time>
      </trkpt>
      <trkpt lat="49.39982" lon="4.70686">
        <ele>94</ele>
        <time>2023-04-08T07:00:16Z</time>
      </trkpt>
      <trkpt lat="49.39893" lon="4.70496">
        <ele>95</ele>
        <time>2023-04-08T07:02:18Z</time>
      </trkpt>
      <trkpt lat="49.39868" lon="4.70453">
        <ele>98</ele>
        <time>2023-04-08T07:02:48Z</time>
      </trkpt>
      <trkpt lat="49.39847" lon="4.7043">
        <ele>100</ele>
        <time>2023-04-08T07:03:09Z</time>
      </trkpt>
      <trkpt lat="49.39825" lon="4.70411">
        <ele>103</ele>
        <time>2023-04-08T07:03:29Z</time>
      </trkpt>
      <trkpt lat="49.39762" lon="4.70374">
        <ele>109</ele>
        <time>2023-04-08T07:04:23Z</time>
      </trkpt>
      <trkpt lat="49.39747" lon="4.70363">
        <ele>110</ele>
        <time>2023-04-08T07:04:36Z</time>
      </trkpt>
      <trkpt lat="49.39742" lon="4.70343">
        <ele>110</ele>
        <time>2023-04-08T07:04:48Z</time>
      </trkpt>
      <trkpt lat="49.39736" lon="4.70249">
        <ele>111</ele>
        <time>2023-04-08T07:05:37Z</time>
      </trkpt>
    </trkseg>
  </trk>
</gpx>